[[{"header":{"parameterUnit":"m.s-1","parameterCategory":1,"la1":31.0,"la2":29.5877,"lo1":-88.7671,"lo2":-86.6584,"dy":0.0162,"dx":0.0185,"nx":115,"ny":88,"refTime":"2024-03-23T06:00:00:Z","depth":0,"parameterNumber":2,"parameterNumberName":"U-component_of_WINDS"},"data":[0.0,0.0,0.0,0.0,0.0,0.0,0.0,0.0,0.0,0.0,0.0,0.0,0.0,0.0,0.0,0.0,0.0,0.0,0.0,0.0,0.0,0.0,0.0,0.0,0.0,0.0,0.0,0.0,0.0,0.0,0.0,0.0,0.0,0.0,0.0,0.0,0.0,0.0,0.0,0.0,0.0,1.0198,0.9738,0.9274,0.8838,0.847,0.8062,0.0,0.0,0.0,0.0,0.0,0.0,0.0,0.0,0.0,0.0,0.0,0.0,0.0,0.0,0.0,0.0,0.0,0.0,0.0,0.0,0.0,0.0,0.0,0.0,0.0,0.0,0.0,0.0,0.0,0.0,0.0,0.0,0.0,0.0,0.0,0.0,0.0,0.0,0.0,0.0,0.0,0.0,0.0,0.0,0.0,0.0,0.0,0.0,0.0,0.0,0.0,0.0,0.0,0.0,0.0,0.0,0.0,0.0,0.0,0.0,0.0,0.0,0.0,0.0,0.0,0.0,0.0,0.0,0.0,0.0,0.0,0.0,0.0,0.0,0.0,0.0,0.0,0.0,0.0,0.0,0.0,0.0,0.0,0.0,0.0,0.0,0.0,0.0,0.0,0.0,0.0,0.0,0.0,0.0,0.0,0.0,0.0,0.0,0.0,0.0,0.0,0.0,0.0,0.0,0.0,0.0,0.0,0.0,0.0,0.0,0.9855,0.9422,0.9029,0.8623,0.8268,0.0,0.0,0.0,0.0,0.0,0.0,0.0,0.0,0.0,0.0,0.0,0.0,0.0,0.0,0.0,0.0,0.0,0.0,0.0,0.0,0.0,0.0,0.0,0.0,0.0,0.0,0.0,0.0,0.0,0.0,0.0,0.0,0.0,0.0,0.0,0.0,0.0,0.0,0.0,0.0,0.0,0.0,0.0,0.0,0.0,0.0,0.0,0.0,0.0,0.0,0.0,0.0,0.0,0.0,0.0,0.0,0.0,0.0,0.0,0.0,0.0,0.0,0.0,0.0,0.0,0.0,0.0,0.0,0.0,0.0,0.0,0.0,0.0,0.0,0.0,0.0,0.0,0.0,0.0,0.0,0.0,0.0,0.0,0.0,0.0,0.0,0.0,0.0,0.0,0.0,0.0,0.0,0.0,0.0,0.0,0.0,0.0,0.0,0.0,0.0,0.0,0.0,0.0,0.0,0.0,0.0,0.0,0.0,0.0,0.0,0.9992,0.9505,0.9219,0.8944,0.8684,0.0,0.0,0.0,0.0,0.0,0.0,0.0,0.0,0.0,0.0,0.0,0.0,0.0,0.0,0.0,0.0,0.0,0.0,0.0,0.0,0.0,0.0,0.0,0.0,0.0,0.0,0.0,0.0,0.0,0.0,0.0,0.0,0.0,0.0,0.0,0.0,0.0,0.0,0.0,0.0,0.0,0.0,0.0,0.0,0.0,0.0,0.0,0.0,0.0,0.0,0.0,0.0,0.0,0.0,0.0,0.0,0.0,0.0,0.0,0.0,0.0,0.0,0.0,0.0,0.0,0.0,0.0,0.0,0.0,0.0,0.0,0.0,0.0,0.0,0.0,0.0,0.0,0.0,0.0,0.0,0.0,0.0,0.0,0.0,0.0,0.0,0.0,0.0,0.0,0.0,0.0,0.0,0.0,0.0,0.0,0.0,0.0,0.0,0.0,0.0,0.0,0.0,0.0,0.0,0.0,0.0,0.0,0.0,0.0,0.0,1.0222,0.9919,0.9486,0.9067,0.8756,0.8536,0.0,0.0,0.0,0.0,0.0,0.0,0.0,0.0,0.0,0.0,0.0,0.0,0.0,0.0,0.0,0.0,0.0,0.0,0.0,0.0,0.0,0.0,0.0,0.0,0.0,0.0,0.0,0.0,0.0,0.0,0.0,0.0,0.0,0.0,0.0,0.0,0.0,0.0,0.0,0.0,0.0,0.0,0.0,0.0,0.0,0.0,0.0,0.0,0.0,0.0,0.0,0.0,0.0,0.0,0.0,0.0,0.0,0.0,0.0,0.0,0.0,0.0,0.0,0.0,0.0,0.0,0.0,0.0,0.0,0.0,0.0,0.0,0.0,0.0,0.0,0.0,0.0,0.0,0.0,0.0,0.0,0.0,0.0,0.0,0.0,0.0,0.0,0.0,0.0,0.0,0.0,0.0,0.0,0.0,0.0,0.0,0.0,0.0,0.0,0.0,0.0,0.0,0.0,0.0,0.0,0.0,0.0,0.0,0.0,1.0509,1.0428,0.9644,0.9051,0.8848,0.8641,0.0,0.0,0.0,0.0,0.0,0.0,0.0,0.0,0.0,0.0,0.0,0.0,0.0,0.0,0.0,0.0,0.0,0.0,0.0,0.0,0.0,0.0,0.0,0.0,0.0,0.0,0.0,0.0,0.0,0.0,0.0,0.0,0.0,0.0,0.0,0.0,0.0,0.0,0.0,0.0,0.0,0.0,0.0,0.0,0.0,0.0,0.0,0.0,0.0,0.0,0.0,0.0,0.0,0.0,0.0,0.0,0.0,0.0,0.0,0.0,0.0,0.0,0.0,0.0,0.0,0.0,0.0,0.0,0.0,0.0,0.0,0.0,0.0,0.0,0.0,0.0,0.0,0.0,0.0,0.0,0.0,0.0,0.0,0.0,0.0,0.0,0.0,0.0,0.0,0.0,0.0,0.0,0.0,0.0,0.0,0.0,0.0,0.0,0.0,0.0,0.0,0.0,0.0,0.0,0.0,0.0,0.0,0.0,0.0,1.0628,1.0481,0.9587,0.9263,0.9452,0.8939,0.0,0.0,0.0,0.0,0.0,0.0,0.0,0.0,0.0,0.0,0.0,0.0,0.0,0.0,0.0,0.0,0.0,0.0,0.0,0.0,0.0,0.0,0.0,0.0,0.0,0.0,0.0,0.0,0.0,0.0,0.0,0.0,0.0,0.0,0.0,0.0,0.0,0.0,0.0,0.0,0.0,0.0,0.0,0.0,0.0,0.0,0.0,0.0,0.0,0.0,0.0,0.0,0.0,0.0,0.0,0.0,0.0,0.0,0.0,0.0,0.0,0.0,0.0,0.0,0.0,0.0,0.0,0.0,0.0,0.0,0.0,0.0,0.0,0.0,0.0,0.0,0.0,0.0,0.0,0.0,0.0,0.0,0.0,0.0,0.0,0.0,0.0,0.0,0.0,0.0,0.0,0.0,0.0,0.0,0.0,0.0,0.0,0.0,0.0,0.0,0.0,0.0,0.0,0.0,0.0,0.0,0.0,0.0,0.0,1.0805,1.0874,0.9769,0.9305,0.9723,0.9051,0.0,0.0,0.0,0.0,0.0,0.0,0.0,0.0,0.0,0.0,0.0,0.0,0.0,0.0,0.0,0.0,0.0,0.0,0.0,0.0,0.0,0.0,0.0,0.0,0.0,0.0,0.0,0.0,0.0,0.0,0.0,0.0,0.0,0.0,0.0,0.0,0.0,0.0,0.0,0.0,0.0,0.0,0.0,0.0,0.0,0.0,0.0,0.0,0.0,0.0,0.0,0.0,0.0,0.0,0.0,0.0,0.0,0.0,0.0,0.0,0.0,0.0,0.0,0.0,0.0,0.0,0.0,0.0,0.0,0.0,0.0,0.0,0.0,0.0,0.0,0.0,0.0,0.0,0.0,0.0,0.0,0.0,0.0,0.0,0.0,0.0,0.0,0.0,0.0,0.0,0.0,0.0,0.0,0.0,0.0,0.0,0.0,0.0,0.0,0.0,0.0,0.0,0.0,0.0,0.0,0.0,0.0,0.0,1.1151,1.1054,1.1414,1.0056,0.9538,1.0091,0.9313,0.0,0.0,0.0,0.0,0.0,0.0,0.0,0.0,0.0,0.0,0.0,0.0,0.0,0.0,0.0,0.0,0.0,0.0,0.0,0.0,0.0,0.0,0.0,0.0,0.0,0.0,0.0,0.0,0.0,0.0,0.0,0.0,0.0,0.0,0.0,0.0,0.0,0.0,0.0,0.0,0.0,0.0,0.0,0.0,0.0,0.0,0.0,0.0,0.0,0.0,0.0,0.0,0.0,0.0,0.0,0.0,0.0,0.0,0.0,0.0,0.0,0.0,0.0,0.0,0.0,0.0,0.0,0.0,0.0,0.0,0.0,0.0,0.0,0.0,0.0,0.0,0.0,0.0,0.0,0.0,0.0,0.0,0.0,0.0,0.0,0.0,0.0,0.0,0.0,0.0,0.0,0.0,0.0,0.0,0.0,0.0,0.0,0.0,0.0,0.0,0.0,0.0,0.0,0.0,0.0,0.0,0.0,1.1999,1.149,1.1441,1.1783,1.0591,1.0195,1.0814,0.9976,0.0,0.0,0.0,0.0,0.0,0.0,0.0,0.0,0.0,0.0,0.0,0.0,0.0,0.0,0.0,0.0,0.0,0.0,0.0,0.0,0.0,0.0,0.0,0.0,0.0,0.0,0.0,0.0,0.0,0.0,0.0,0.0,0.0,0.0,0.0,0.0,0.0,0.0,0.0,0.0,0.0,0.0,0.0,0.0,0.0,0.0,0.0,0.0,0.0,0.0,0.0,0.0,0.0,0.0,0.0,0.0,0.0,0.0,0.0,0.0,0.0,0.0,0.0,0.0,0.0,0.0,0.0,0.0,0.0,0.0,0.0,0.0,0.0,0.0,0.0,0.0,0.0,0.0,0.0,0.0,0.0,0.0,0.0,0.0,0.0,0.0,0.0,0.0,0.0,0.0,0.0,0.0,0.0,0.0,0.0,0.0,0.0,0.0,0.0,0.0,0.0,0.0,0.0,0.0,0.0,0.0,1.2184,1.2049,1.1586,1.152,1.1999,1.083,1.0578,1.1319,1.0359,0.0,0.0,0.0,0.0,0.0,0.0,0.0,0.0,0.0,0.0,0.0,0.0,0.0,0.0,0.0,0.0,0.0,0.0,0.0,0.0,0.0,0.0,0.0,0.0,0.0,0.0,0.0,0.0,0.0,0.0,0.0,0.0,0.0,0.0,0.0,0.0,0.0,0.0,0.0,0.0,0.0,0.0,0.0,0.0,0.0,0.0,0.0,0.0,0.0,0.0,0.0,0.0,0.0,0.0,0.0,0.0,0.0,0.0,0.0,0.0,0.0,0.0,0.0,0.0,0.0,0.0,0.0,0.0,0.0,0.0,0.0,0.0,0.0,0.0,0.0,0.0,0.0,0.0,0.0,0.0,0.0,0.0,0.0,0.0,0.0,0.0,0.0,0.0,0.0,0.0,0.0,0.0,0.0,0.0,0.0,0.0,0.0,0.0,0.0,0.0,0.0,0.0,0.0,0.0,0.0,0.0,1.2358,1.2388,1.1816,1.1816,1.2319,1.1472,1.1178,1.1678,0.0,0.0,0.0,0.0,0.0,0.0,0.0,0.0,0.0,0.0,0.0,0.0,0.0,0.0,0.0,0.0,0.0,0.0,0.0,0.0,0.0,0.0,0.0,0.0,0.0,0.0,0.0,0.0,0.0,0.0,0.0,0.0,0.0,0.0,0.0,0.0,0.0,0.0,0.0,0.0,0.0,0.0,0.0,0.0,0.0,0.0,0.0,0.0,0.0,0.0,0.0,0.0,0.0,0.0,0.0,0.0,0.0,0.0,0.0,0.0,0.0,0.0,0.0,0.0,0.0,0.0,0.0,0.0,0.0,0.0,0.0,0.0,0.0,0.0,0.0,0.0,0.0,0.0,0.0,0.0,0.0,0.0,0.0,0.0,0.0,0.0,0.0,0.0,0.0,0.0,0.0,0.0,0.0,0.0,0.0,0.0,0.0,0.0,0.0,0.0,0.0,0.0,0.0,0.0,0.0,0.0,0.0,1.272,1.3465,1.2568,1.2499,1.3399,1.2831,1.2337,1.1869,0.0,0.0,0.0,0.0,0.0,0.0,0.0,0.0,0.0,0.0,0.0,0.0,0.0,0.0,0.0,0.0,0.0,0.0,0.0,0.0,0.0,0.0,0.0,0.0,0.0,0.0,0.0,0.0,0.0,0.0,0.0,0.0,0.0,0.0,0.0,0.0,0.0,0.0,0.0,0.0,0.0,0.0,0.0,0.0,0.0,0.0,0.0,0.0,0.0,0.0,0.0,0.0,0.0,0.0,0.0,0.0,0.0,0.0,0.0,0.0,0.0,0.0,0.0,0.0,0.0,0.0,0.0,0.0,0.0,0.0,0.0,0.0,0.0,0.0,0.0,0.0,0.0,0.0,0.0,0.0,0.0,0.0,0.0,0.0,0.0,0.0,0.0,0.0,0.0,0.0,0.0,0.0,0.0,0.0,0.0,0.0,0.0,0.0,0.0,0.0,0.0,0.0,0.0,0.0,0.0,0.0,1.2578,1.27,1.3004,1.2725,1.2838,1.3385,1.301,1.2461,1.1713,0.0,0.0,0.0,0.0,0.0,0.0,0.0,0.0,0.0,0.0,0.0,0.0,0.0,0.0,0.0,0.0,0.0,0.0,0.0,0.0,0.0,0.0,0.0,0.0,0.0,0.0,0.0,0.0,0.0,0.0,0.0,0.0,0.0,0.0,0.0,0.0,0.0,0.0,0.0,0.0,0.0,0.0,0.0,0.0,0.0,0.0,0.0,0.0,0.0,0.0,0.0,0.0,0.0,0.0,0.0,0.0,0.0,0.0,0.0,0.0,0.0,0.0,0.0,0.0,0.0,0.0,0.0,0.0,0.0,0.0,0.0,0.0,0.0,0.0,0.0,0.0,0.0,0.0,0.0,0.0,0.0,0.0,0.0,0.0,0.0,0.0,0.0,0.0,0.0,0.0,0.0,0.0,0.0,0.0,0.0,0.0,0.0,0.0,0.0,0.0,0.0,0.0,0.0,0.0,0.0,1.2744,1.2725,1.2849,1.3176,1.3048,1.3195,1.3517,1.3053,1.2489,1.1829,0.0,0.0,0.0,0.0,0.0,0.0,0.0,0.0,0.0,0.0,0.0,0.0,0.0,0.0,0.0,0.0,0.0,0.0,0.0,0.0,0.0,0.0,0.0,0.0,0.0,0.0,0.0,0.0,0.0,0.0,0.0,0.0,0.0,0.0,0.0,0.0,0.0,0.0,0.0,0.0,0.0,0.0,0.0,0.0,0.0,0.0,0.0,0.0,0.0,0.0,0.0,0.0,0.0,0.0,0.0,0.0,0.0,0.0,0.0,0.0,0.0,0.0,0.0,0.0,0.0,0.0,0.0,0.0,0.0,0.0,0.0,0.0,0.0,0.0,0.0,0.0,0.0,0.0,0.0,0.0,0.0,0.0,0.0,0.0,0.0,0.0,0.0,0.0,0.0,0.0,0.0,0.0,0.0,0.0,0.0,0.0,0.0,0.0,0.0,0.0,0.0,0.0,0.0,0.0,0.0,0.0,1.2774,1.3426,1.4755,1.3854,1.3555,1.4102,1.3087,1.2538,1.2599,0.0,0.0,0.0,0.0,0.0,0.0,0.0,0.0,0.0,0.0,0.0,0.0,0.0,0.0,0.0,0.0,0.0,0.0,0.0,0.0,0.0,0.0,0.0,0.0,0.0,0.0,0.0,0.0,0.0,0.0,0.0,0.0,0.0,0.0,0.0,0.0,0.0,0.0,0.0,0.0,0.0,0.0,0.0,0.0,0.0,0.0,0.0,0.0,0.0,0.0,0.0,0.0,0.0,0.0,0.0,0.0,0.0,0.0,0.0,0.0,0.0,0.0,0.0,0.0,0.0,0.0,0.0,0.0,0.0,0.0,0.0,0.0,0.0,0.0,0.0,0.0,0.0,0.0,0.0,0.0,0.0,0.0,0.0,0.0,0.0,0.0,0.0,0.0,0.0,0.0,0.0,0.0,0.0,0.0,0.0,0.0,0.0,0.0,0.0,0.0,0.0,0.0,0.0,0.0,0.0,0.0,1.3126,1.3155,1.3637,1.3567,1.3848,1.4382,1.3399,1.2935,1.2997,0.0,0.0,0.0,0.0,0.0,0.0,0.0,0.0,0.0,0.0,0.0,0.0,0.0,0.0,0.0,0.0,0.0,0.0,0.0,0.0,0.0,0.0,0.0,0.0,0.0,0.0,0.0,0.0,0.0,0.0,0.0,0.0,0.0,0.0,0.0,0.0,0.0,0.0,0.0,0.0,0.0,0.0,0.0,0.0,0.0,0.0,0.0,0.0,0.0,0.0,0.0,0.0,0.0,0.0,0.0,0.0,0.0,0.0,0.0,0.0,0.0,0.0,0.0,0.0,0.0,0.0,0.0,0.0,0.0,0.0,0.0,0.0,0.0,0.0,0.0,0.0,0.0,0.0,0.0,0.0,0.0,0.0,0.0,0.0,0.0,0.0,0.0,0.0,0.0,0.0,0.0,0.0,0.0,0.0,0.0,0.0,0.0,0.0,0.0,0.0,0.0,0.0,0.0,0.0,0.0,0.0,1.3472,1.3441,1.3601,1.4175,1.4513,1.4566,1.3815,1.3234,0.0,0.0,0.0,0.0,0.0,0.0,0.0,0.0,0.0,0.0,0.0,0.0,0.0,0.0,0.0,0.0,0.0,0.0,0.0,0.0,0.0,0.0,0.0,0.0,0.0,0.0,0.0,0.0,0.0,0.0,0.0,0.0,0.0,0.0,0.0,0.0,0.0,0.0,0.0,0.0,0.0,0.0,0.0,0.0,0.0,0.0,0.0,0.0,0.0,0.0,0.0,0.0,0.0,0.0,0.0,0.0,0.0,0.0,0.0,0.0,0.0,0.0,0.0,0.0,0.0,0.0,0.0,0.0,0.0,0.0,0.0,0.0,0.0,0.0,0.0,0.0,0.0,0.0,0.0,0.0,0.0,0.0,0.0,0.0,0.0,0.0,0.0,0.0,0.0,0.0,0.0,0.0,0.0,0.0,0.0,0.0,0.0,0.0,0.0,0.0,0.0,0.0,0.0,0.0,0.0,0.0,0.0,1.3872,1.4277,1.4987,1.569,1.5571,1.4659,1.4255,1.3441,0.0,0.0,0.0,0.0,0.0,0.0,0.0,0.0,0.0,0.0,0.0,0.0,0.0,0.0,0.0,0.0,0.0,0.0,0.0,0.0,0.0,0.0,0.0,0.0,0.0,0.0,0.0,0.0,0.0,0.0,0.0,0.0,0.0,0.0,0.0,0.0,0.0,0.0,0.0,0.0,0.0,0.0,0.0,0.0,0.0,0.0,0.0,0.0,0.0,0.0,0.0,0.0,0.0,0.0,0.0,0.0,0.0,0.0,0.0,0.0,0.0,0.0,0.0,0.0,0.0,0.0,0.0,0.0,0.0,0.0,0.0,0.0,0.0,0.0,0.0,0.0,0.0,0.0,0.0,0.0,0.0,0.0,0.0,0.0,0.0,0.0,0.0,0.0,0.0,0.0,0.0,0.0,0.0,0.0,0.0,0.0,0.0,0.0,0.0,0.0,0.0,0.0,0.0,0.0,0.0,0.0,0.0,1.5741,1.5771,1.5301,1.5587,1.6042,1.665,1.5158,1.4407,1.4551,0.0,0.0,0.0,0.0,0.0,0.0,0.0,0.0,0.0,0.0,0.0,0.0,0.0,0.0,0.0,0.0,0.0,0.0,0.0,0.0,0.0,0.0,0.0,0.0,0.0,0.0,0.0,0.0,0.0,0.0,0.0,0.0,0.0,0.0,0.0,0.0,0.0,0.0,0.0,0.0,0.0,0.0,0.0,0.0,0.0,0.0,0.0,0.0,0.0,0.0,0.0,0.0,0.0,0.0,0.0,0.0,0.0,0.0,0.0,0.0,0.0,0.0,0.0,0.0,0.0,0.0,0.0,0.0,0.0,0.0,0.0,0.0,0.0,0.0,0.0,0.0,0.0,0.0,0.0,0.0,0.0,0.0,0.0,0.0,0.0,0.0,0.0,0.0,0.0,0.0,0.0,0.0,0.0,0.0,0.0,0.0,0.0,0.0,0.0,0.0,0.0,0.0,0.0,0.0,0.0,0.0,1.7226,1.7485,1.7126,1.6751,1.6842,1.7361,1.5965,1.5199,1.5127,0.0,0.0,0.0,0.0,0.0,0.0,0.0,0.0,0.0,0.0,0.0,0.0,0.0,0.0,0.0,0.0,0.0,0.0,0.0,0.0,0.0,0.0,0.0,0.0,0.0,0.0,0.0,0.0,0.0,0.0,0.0,0.0,0.0,0.0,0.0,0.0,0.0,0.0,0.0,0.0,0.0,0.0,0.0,0.0,0.0,0.0,0.0,0.0,0.0,0.0,0.0,0.0,0.0,0.0,0.0,0.0,0.0,0.0,0.0,0.0,0.0,0.0,0.0,0.0,0.0,0.0,0.0,0.0,0.0,0.0,0.0,0.0,0.0,0.0,0.0,0.0,0.0,0.0,0.0,0.0,0.0,0.0,0.0,0.0,0.0,0.0,0.0,0.0,0.0,0.0,0.0,0.0,0.0,0.0,0.0,0.0,0.0,0.0,0.0,0.0,0.0,0.0,0.0,0.0,0.0,0.0,0.0,1.9243,2.0132,1.9052,1.8057,1.7105,1.6873,1.5936,1.4498,0.0,0.0,0.0,0.0,0.0,0.0,0.0,0.0,0.0,0.0,0.0,0.0,0.0,0.0,0.0,0.0,0.0,0.0,0.0,0.0,0.0,0.0,0.0,0.0,0.0,0.0,0.0,0.0,0.0,0.0,0.0,0.0,0.0,0.0,0.0,0.0,0.0,0.0,0.0,0.0,0.0,0.0,0.0,0.0,0.0,0.0,0.0,0.0,0.0,0.0,0.0,0.0,0.0,0.0,0.0,0.0,0.0,0.0,0.0,0.0,0.0,0.0,0.0,0.0,0.0,0.0,0.0,0.0,0.0,0.0,0.0,0.0,0.0,0.0,0.0,0.0,0.0,0.0,0.0,0.0,0.0,0.0,0.0,0.0,0.0,0.0,0.0,0.0,0.0,0.0,0.0,0.0,0.0,0.0,0.0,0.0,0.0,0.0,0.0,0.0,0.0,0.0,0.0,0.0,0.0,0.0,1.8489,1.9884,2.1638,2.1735,2.1476,2.0665,1.8935,1.7698,1.6935,0.0,0.0,0.0,0.0,0.0,0.0,0.0,0.0,0.0,0.0,0.0,0.0,0.0,0.0,0.0,0.0,0.0,0.0,0.0,0.0,0.0,0.0,0.0,0.0,0.0,0.0,0.0,0.0,0.0,0.0,0.0,0.0,0.0,0.0,0.0,0.0,0.0,0.0,0.0,0.0,0.0,0.0,0.0,0.0,0.0,0.0,0.0,0.0,0.0,0.0,0.0,0.0,0.0,0.0,0.0,0.0,0.0,0.0,0.0,0.0,0.0,0.0,0.0,0.0,0.0,0.0,0.0,0.0,0.0,0.0,0.0,0.0,0.0,0.0,0.0,0.0,0.0,0.0,0.0,0.0,0.0,0.0,0.0,0.0,0.0,0.0,0.0,0.0,0.0,0.0,0.0,0.0,0.0,0.0,0.0,0.0,0.0,0.0,0.0,0.0,0.0,0.0,0.0,0.0,0.0,0.0,1.9476,2.1152,2.3171,2.421,2.4567,2.4211,2.1885,1.979,1.8193,0.0,0.0,0.0,0.0,0.0,0.0,0.0,0.0,0.0,0.0,0.0,0.0,0.0,0.0,0.0,0.0,0.0,0.0,0.0,0.0,0.0,0.0,0.0,0.0,0.0,0.0,0.0,0.0,0.0,0.0,0.0,0.0,0.0,0.0,0.0,0.0,0.0,0.0,0.0,0.0,0.0,0.0,0.0,0.0,0.0,0.0,0.0,0.0,0.2385,0.0,0.0,0.0,0.0,0.0,0.0,0.0,0.0,0.0,0.0,0.0,0.0,0.0,0.0,0.0,0.0,0.0,0.0,0.0,0.0,0.0,0.0,0.0,0.0,0.0,0.0,0.0,0.0,0.0,0.0,0.0,0.0,0.0,0.0,0.0,0.0,0.0,0.0,0.0,0.0,0.0,0.0,0.0,0.0,0.0,0.0,0.0,0.0,0.0,0.0,0.0,0.0,0.0,0.0,0.0,1.7789,1.8767,2.0728,2.2791,2.4747,2.6335,2.723,2.7405,2.495,2.1996,1.8797,0.0,0.0,0.0,0.0,0.0,0.0,0.0,0.0,0.0,0.0,0.0,0.0,0.0,0.0,0.0,0.0,0.0,0.0,0.0,0.0,0.0,0.0,0.0,0.0,0.0,0.0,0.0,0.0,0.0,0.0,0.0,0.0,0.0,0.0,0.0,0.0,0.0,0.0,0.0,0.0,0.0,0.0,0.0,0.0,0.0,0.0,0.0,0.2947,0.2679,0.0,0.0,0.0,0.0,0.0,0.0,0.0,0.0,0.0,0.0,0.0,0.0,0.0,0.0,0.0,0.0,0.0,0.0,0.0,0.0,0.0,0.0,0.0,0.0,0.0,0.0,0.0,1.2382,0.0,1.2641,0.0,0.0,0.0,0.0,0.0,0.0,0.0,0.0,0.0,0.0,0.0,0.0,0.0,0.0,0.0,0.0,0.0,0.0,0.0,0.0,0.0,0.0,0.0,0.0,1.72,1.8213,1.9765,2.1243,2.3464,2.6554,2.7995,2.8983,2.9638,2.5958,2.2774,2.0303,0.0,0.0,0.0,0.0,0.0,0.0,0.0,0.0,0.0,0.0,0.0,0.0,0.0,0.0,0.0,0.0,0.0,0.0,0.0,0.0,0.0,0.0,0.0,0.0,0.0,0.0,0.0,0.0,0.0,0.0,0.0,0.0,0.0,0.0,0.0,0.0,0.0,0.0,0.0,0.0,0.0,0.0,0.0,0.0,0.0,0.0,0.0,0.2798,0.0,0.0,0.0,0.0,0.0,0.0,0.0,0.0,0.0,0.0,0.0,0.0,0.0,0.0,0.0,0.0,0.0,0.0,0.0,0.0,0.0,0.0,0.0,0.0,0.0,0.0,0.0,0.0,1.2638,1.2571,1.2528,0.0,0.0,0.0,0.0,0.0,0.0,0.0,0.0,0.0,0.0,0.0,0.0,0.0,0.0,0.0,0.0,0.0,0.0,0.0,0.0,0.0,0.0,0.0,1.6906,1.7921,1.9118,2.0466,2.2724,2.5088,2.74,2.8968,3.004,3.0562,2.8198,2.5289,2.2002,0.0,0.0,0.0,0.0,0.0,0.0,0.0,0.0,0.0,0.0,0.0,0.0,0.0,0.0,0.0,0.0,0.0,0.0,0.0,0.0,0.0,0.0,0.0,0.0,0.0,0.0,0.0,0.0,0.0,0.0,0.0,0.0,0.0,0.0,0.0,0.0,0.0,0.5069,0.4912,0.0,0.0,0.0,0.0,0.0,0.0,0.0,0.0,0.2471,0.1955,0.0,0.0,0.0,0.0,0.0,0.0,0.0,0.0,0.0,0.0,0.0,0.0,0.0,0.0,0.0,0.0,0.0,0.0,0.0,0.0,0.0,0.0,0.0,0.0,0.0,0.0,0.0,1.2796,1.2704,1.2316,0.0,0.0,0.0,0.0,0.0,0.0,0.0,0.0,0.0,0.0,0.0,0.0,0.0,0.0,0.0,0.0,0.0,0.0,0.0,0.0,0.0,0.0,0.0,1.7034,1.8533,1.9923,2.1209,2.4143,2.6395,2.7945,2.9682,3.0842,3.1249,3.0647,2.8155,2.3794,0.0,0.0,0.0,0.0,0.0,0.0,0.0,0.0,0.0,0.0,0.0,0.0,0.0,0.0,0.0,0.0,0.0,0.0,0.0,0.0,0.0,0.0,0.0,0.0,0.0,0.0,0.0,0.0,0.0,0.0,0.0,0.0,0.0,0.0,0.0,0.0,0.0,0.5139,0.5167,0.5088,0.4925,0.0,0.0,0.0,0.0,0.0,0.0,0.0,0.116,0.0931,0.1429,0.0,0.0,0.0,0.0,0.0,0.0,0.0,0.0,0.0,0.0,0.0,0.0,0.0,0.0,0.0,0.0,0.0,0.0,0.0,0.0,0.0,0.0,0.0,0.0,0.0,1.2481,1.2522,1.2911,0.0,0.0,0.0,0.0,0.0,0.0,0.0,0.0,0.0,0.0,0.0,0.0,0.0,0.0,0.0,0.0,0.0,0.0,0.0,0.0,0.0,0.0,0.0,0.0,1.8012,1.9528,2.2184,2.3654,2.5916,2.9003,3.0553,3.1638,3.2167,3.1903,2.9537,2.4934,2.3131,0.0,0.0,0.0,0.0,0.0,0.0,0.0,0.0,0.0,0.0,0.0,0.0,0.0,0.0,0.0,0.0,0.0,0.0,0.0,0.0,0.0,0.0,0.0,0.0,0.0,0.0,0.0,0.0,0.0,0.0,0.0,0.0,0.0,0.0,0.0,0.0,0.5616,0.694,0.6142,0.5401,0.5297,0.0,0.0,0.0,0.0,0.0,-0.0,0.0364,0.1067,0.1637,0.1457,0.0,0.0,0.0,0.0,0.0,0.0,0.0,0.0,0.0,0.0,0.0,0.0,0.0,0.0,0.0,0.0,0.0,0.0,0.0,0.0,0.0,0.0,0.0,0.0,1.2719,1.2744,1.3069,1.2753,1.2744,0.0,0.0,0.0,0.0,1.272,0.0,0.0,0.0,0.0,0.0,0.0,0.0,0.0,0.0,0.0,0.0,0.0,0.0,0.0,0.0,0.0,0.0,1.916,2.1012,2.3301,2.5315,2.7495,2.9893,3.0965,3.1758,3.2351,3.1649,2.9431,2.5492,0.0,0.0,0.0,0.0,0.0,0.0,0.0,0.0,0.0,0.0,0.0,0.0,0.0,0.0,0.0,0.0,0.0,0.0,0.0,0.0,0.0,0.0,0.0,0.0,0.0,0.0,0.0,0.0,0.0,0.0,0.0,0.0,0.0,0.0,0.0,0.0,0.0,0.0,0.7466,0.6765,0.6165,0.6672,0.5237,0.3768,0.2845,0.1705,0.0708,-0.0,-0.0191,-0.0,0.0821,0.0,0.0,0.0,0.0,0.0,0.0,0.0,0.0,0.0,0.0,0.0,0.0,0.0,0.0,0.0,0.0,0.0,0.0,0.0,0.0,0.0,0.0,0.0,0.0,0.0,0.0,1.3025,1.3094,1.3094,1.306,1.299,0.0,0.0,0.0,1.2826,1.3338,0.0,0.0,0.0,0.0,0.0,0.0,0.0,0.0,0.0,0.0,0.0,0.0,0.0,0.0,0.0,0.0,2.0149,2.2203,2.4265,2.6745,2.8834,3.0486,3.1144,3.1673,3.2113,3.1174,2.9056,2.5608,0.0,0.0,0.0,0.0,0.0,0.0,0.0,0.0,0.0,0.0,0.0,0.0,0.0,0.0,0.0,0.0,0.0,0.0,0.0,0.0,0.0,0.0,0.0,0.0,0.0,0.0,0.0,0.0,0.0,0.0,0.0,0.0,0.0,0.0,0.0,0.0,0.0,0.0,0.0,0.6976,0.679,0.7118,0.5619,0.4138,0.3295,0.1399,0.0137,0.067,-0.0068,-0.0476,0.0,0.0,0.0,0.0,0.0,0.0,0.0,0.0,0.0,0.0,0.0,0.0,0.0,0.0,0.0,0.0,0.0,0.0,0.0,0.0,0.0,0.0,1.306,1.2955,0.0,0.0,1.3129,1.3129,1.3163,1.3129,1.3129,1.3129,1.2965,1.299,0.0,1.2955,1.3484,1.4489,0.0,0.0,0.0,0.0,0.0,0.0,0.0,0.0,0.0,0.0,0.0,0.0,0.0,0.0,0.0,0.0,2.1391,2.4625,2.6177,2.8041,3.0375,3.1209,3.1584,3.1383,3.1641,2.9463,2.4686,0.0,0.0,0.0,0.0,0.0,0.0,0.0,0.0,0.0,0.0,0.0,0.0,0.0,0.0,0.0,0.0,0.0,0.0,0.0,0.0,0.0,0.0,0.0,0.0,0.0,0.5131,0.0,0.0,0.0,0.0,0.0,0.0,0.0,0.0,0.0,0.0,0.0,0.0,0.0,0.0,0.6572,0.4924,0.4183,0.3465,0.2428,0.1904,0.1605,0.142,0.1493,0.1176,0.0,0.0,0.0,0.0,0.0,0.0,0.0,0.0,0.0,0.0,0.0,0.0,0.0,0.0,0.0,0.0,0.0,0.0,0.0,0.0,0.0,0.0,1.2739,1.2936,1.2895,1.2839,1.3073,1.3188,1.3198,1.3301,1.3301,1.3198,1.3173,1.3383,1.372,1.3649,1.4212,1.5172,0.0,0.0,0.0,0.0,0.0,0.0,0.0,0.0,0.0,0.0,0.0,0.0,1.7278,1.7701,1.8577,1.9891,2.2116,2.5355,2.6781,2.8727,3.1065,3.1484,3.1603,3.1496,3.0922,2.8691,0.0,0.0,0.0,0.0,0.0,0.0,0.0,0.0,0.0,0.0,0.0,0.0,0.0,0.0,0.0,0.0,0.0,0.0,0.0,0.0,0.0,0.0,0.0,0.0,0.0,0.5482,0.5404,0.5449,0.0,0.0,0.0,0.0,0.0,0.0,0.0,0.0,0.0,0.0,0.0,0.0,0.0,0.6247,0.5618,0.4457,0.3612,0.3315,0.2187,0.1295,0.1265,0.0867,0.0155,0.0,0.0,0.0,0.0,0.0,0.0,0.0,0.0,0.0,0.0,0.0,0.0,0.0,0.0,0.0,0.0,0.0,0.0,1.4237,1.4063,1.3638,1.3173,1.2889,1.3069,1.3088,1.2956,1.3292,1.3468,1.3503,1.3489,1.3489,1.3503,1.3607,1.3948,1.4432,1.4458,1.5069,1.6195,1.6204,0.0,0.0,0.0,0.0,0.0,0.0,0.0,0.0,0.0,0.0,1.7334,1.7334,1.7759,1.8758,2.0393,2.2728,2.5669,2.7349,2.9213,3.1321,3.1447,3.1518,3.1496,3.0296,2.8234,0.0,0.0,0.0,0.0,0.0,0.0,0.0,0.0,0.0,0.0,0.0,0.0,0.0,0.0,0.0,0.0,0.0,0.0,0.0,0.0,0.0,0.0,0.0,0.576,0.5657,0.5508,0.5466,0.5518,0.5379,0.0,0.4997,0.0,0.0,0.0,0.0,0.0,0.0,0.0,0.0,0.0,0.0,0.5504,0.5689,0.4692,0.3984,0.399,0.2295,0.1014,0.1233,0.0413,-0.0652,0.0,0.0,0.0,0.0,0.0,0.0,0.0,0.0,0.0,0.0,0.0,0.0,0.0,0.0,0.0,0.0,0.0,0.0,1.5424,1.4904,1.4435,1.4217,1.3993,1.3569,1.3666,1.4054,1.4105,1.4228,1.4249,1.3771,1.3822,1.43,1.4336,1.4644,1.5107,1.5132,1.6031,1.7573,1.7517,0.0,0.0,0.0,0.0,0.0,0.0,0.0,0.0,0.0,0.0,1.7479,1.739,1.7759,1.8698,2.0268,2.2409,2.5084,2.716,2.8964,3.0533,3.0814,3.0984,3.1074,3.0441,2.8587,0.0,0.0,0.0,0.0,0.0,0.0,0.0,0.0,0.0,0.0,0.0,0.0,0.0,0.0,0.0,0.0,0.0,0.0,0.0,0.0,0.0,0.0,0.0,0.0,0.5562,0.5351,0.5234,0.5132,0.5117,0.5034,0.481,0.0,0.0,0.0,0.0,0.0,0.0,0.0,0.0,0.0,0.0,0.4148,0.3992,0.4414,0.444,0.3653,0.2288,0.1407,0.1604,0.1041,0.0172,-0.1232,-0.1692,-0.2284,0.0,0.0,0.0,0.0,0.0,0.0,0.0,0.0,0.0,0.0,0.0,0.0,0.0,0.0,0.0,1.6338,1.55,1.4803,1.4435,1.4268,1.4249,1.4333,1.4547,1.4857,1.4805,1.4495,1.466,1.4624,1.4439,1.4883,1.5323,1.5802,1.588,1.6814,1.8455,1.9371,0.0,0.0,0.0,0.0,0.0,0.0,0.0,0.0,0.0,0.0,1.7512,1.7368,1.7759,1.8758,2.0583,2.2662,2.5061,2.7466,2.9273,3.0486,3.1074,3.1176,3.0781,3.0239,2.8656,2.5844,0.0,0.0,0.0,0.0,0.0,0.0,0.0,0.0,0.0,0.0,0.0,0.0,0.0,0.0,0.0,0.0,0.0,0.0,0.0,0.0,0.0,0.0,0.0,0.0,0.5736,0.5575,0.5536,0.5385,0.5166,0.4924,0.464,0.0,0.0,0.0,0.0,0.0,0.0,0.0,0.3177,0.0,0.3558,0.3515,0.3769,0.3789,0.3442,0.1929,0.1101,0.1852,0.0438,-0.0945,-0.1758,-0.2563,-0.3325,-0.3831,0.0,0.0,0.0,0.0,0.0,0.0,0.0,0.0,0.0,0.0,0.0,0.0,0.0,0.0,1.7854,1.6514,1.5693,1.5194,1.5027,1.5337,1.5424,1.5286,1.5616,1.5526,1.5197,1.5395,1.5332,1.5101,1.5578,1.6049,1.6517,1.6821,1.8026,1.9973,2.1823,2.3067,0.0,0.0,0.0,0.0,0.0,0.0,0.0,0.0,0.0,1.7612,1.7312,1.7679,1.878,2.0786,2.2914,2.5061,2.7655,2.9463,3.0509,3.1031,3.111,3.0719,2.9942,2.8565,2.6607,0.0,0.0,0.0,0.0,1.3644,0.0,0.0,0.0,0.0,0.0,0.0,0.0,0.0,0.0,0.0,0.0,0.0,0.0,0.0,0.0,0.0,0.0,0.0,0.0,0.0,0.5932,0.5841,0.562,0.5367,0.4988,0.4575,0.4376,0.4585,0.0,0.0,0.0,0.0,0.0,0.0,0.3114,0.3035,0.2628,0.2463,0.2372,0.2165,0.1036,0.0374,0.0727,-0.0977,-0.2497,-0.2782,-0.3313,-0.3747,-0.3925,-0.388,-0.3785,-0.3491,-0.332,-0.334,-0.3746,0.0,0.0,0.0,0.0,0.0,0.0,0.0,0.0,2.0169,1.8085,1.7268,1.6773,1.656,1.701,1.6996,1.6613,1.6479,1.6612,1.665,1.5969,1.6009,1.6455,1.6534,1.6835,1.7267,1.786,1.9766,2.2537,2.4886,2.587,2.5699,2.5345,2.4796,2.4221,2.3195,2.1885,2.0276,1.969,1.8964,1.7801,1.7256,1.7644,1.8742,2.0809,2.2914,2.5061,2.7655,2.9463,3.0486,3.0322,3.0468,3.0812,2.9546,2.833,2.7379,0.0,0.0,0.0,0.0,1.4382,0.0,0.0,0.0,0.0,0.0,0.0,0.0,0.0,0.0,0.0,0.0,0.0,0.0,0.0,0.0,0.0,0.0,0.0,0.0,0.0,0.6222,0.5802,0.5776,0.5562,0.5067,0.4527,0.4278,0.0,0.0,0.0,0.0,0.0,0.3144,0.2861,0.288,0.2394,0.1171,0.0481,-0.0096,-0.0584,-0.0568,-0.0923,-0.2118,-0.3351,-0.4293,-0.4531,-0.3737,0.0,0.0,0.0,0.0,0.0,0.0,0.0,0.0,0.0,0.0,0.0,0.0,0.0,0.0,0.0,0.0,2.1738,1.9571,1.8609,1.8244,1.8464,1.9581,1.9898,1.9768,2.0067,2.0092,1.9838,1.9838,1.9355,1.8507,1.8843,1.8826,1.8648,2.0194,2.2237,2.4553,2.6387,2.778,2.8812,2.8673,2.846,2.8142,2.7344,2.5124,2.1902,2.1748,2.09,1.9291,1.9065,1.9076,1.9119,2.1509,2.3326,2.4572,2.7636,2.94,2.9777,3.007,3.0217,3.0216,2.939,2.8014,2.5953,2.2821,0.0,0.0,1.6694,1.503,0.0,0.0,0.0,0.0,0.0,0.0,0.0,0.0,0.0,0.0,0.0,0.0,0.0,0.0,0.0,0.0,0.0,0.0,0.0,0.0,0.5894,0.5577,0.5322,0.5029,0.4635,0.418,0.3734,0.3242,0.3134,0.2973,0.2935,0.2371,0.1918,0.1678,0.0861,0.0097,-0.0196,-0.1181,-0.1873,-0.2054,-0.3382,-0.447,-0.5005,-0.4899,-0.5044,-0.5644,-0.5116,-0.4705,-0.5127,-0.4753,-0.4649,-0.5212,-0.502,-0.4727,-0.4736,-0.4426,-0.4191,-0.4544,-0.4442,-0.4409,-0.4881,-0.4327,-0.4074,2.4201,2.1947,2.1281,2.0885,2.0667,2.1825,2.2115,2.193,2.2403,2.2541,2.2413,2.2419,2.1787,2.0781,2.0909,2.0552,2.0067,2.2296,2.4253,2.5959,2.7941,2.9588,3.1056,3.0935,3.0903,3.0899,3.0211,2.8126,2.5063,2.3816,2.2366,2.0702,2.0533,2.0488,2.0401,2.2719,2.4397,2.5454,2.8104,2.9675,2.991,3.0074,3.0217,3.0124,2.9591,2.8121,2.5678,2.3835,2.206,0.0,1.8077,0.0,0.0,0.0,0.0,0.0,0.0,0.0,0.0,0.0,0.0,0.0,0.0,0.0,0.0,0.0,0.0,0.0,0.0,0.0,0.0,0.6184,0.5544,0.5464,0.5106,0.4809,0.4395,0.3886,0.3418,0.304,0.2621,0.244,0.267,0.1667,0.0865,0.0588,-0.1099,-0.2223,-0.2017,-0.3056,-0.3882,-0.4131,-0.5404,-0.6421,-0.6899,-0.6368,-0.5935,-0.6268,-0.5895,-0.5548,-0.5471,-0.5282,-0.5282,-0.5705,-0.5621,-0.5502,-0.5436,-0.5098,-0.5058,-0.5456,-0.5406,-0.5512,-0.6008,-0.5345,-0.5066,2.7462,2.4961,2.5101,2.4519,2.3472,2.3761,2.3759,2.3498,2.3593,2.4058,2.4478,2.3632,2.3262,2.3441,2.2698,2.208,2.1618,2.4073,2.5834,2.6973,2.9451,3.1282,3.2346,3.2146,3.2278,3.2657,3.1902,3.0778,2.9301,2.596,2.3523,2.2293,2.1826,2.1931,2.2634,2.4279,2.5984,2.7568,2.9021,3.0155,3.08,3.0397,3.0262,3.0484,2.9986,2.8696,2.6682,2.5082,2.368,2.2582,1.98,0.0,0.0,0.0,0.0,0.0,0.0,0.0,0.0,0.0,0.0,0.0,0.0,0.0,0.0,0.0,0.0,0.0,0.0,0.0,0.6741,0.5882,0.5361,0.5436,0.5132,0.4758,0.4265,0.3691,0.3346,0.3396,0.2562,0.2038,0.2153,0.1074,0.0102,-0.0413,-0.2632,-0.4262,-0.415,-0.5104,-0.6162,-0.6785,-0.6588,-0.6782,-0.7965,-0.7517,-0.6905,-0.634,-0.5997,-0.5731,-0.5247,-0.5126,-0.5382,-0.5794,-0.5889,-0.5918,-0.5941,-0.5956,-0.6136,-0.6528,-0.6595,-0.669,-0.7032,-0.6754,-0.6651,3.1532,2.7285,2.7374,2.6896,2.61,2.6609,2.7311,2.8009,2.8698,2.8769,2.8227,2.7931,2.7025,2.5693,2.5335,2.4753,2.4165,2.582,2.7242,2.8404,3.0203,3.194,3.3463,3.3752,3.421,3.4822,3.3938,3.2896,3.1855,2.9972,2.7661,2.5034,2.4937,2.4535,2.3962,2.5303,2.6341,2.6783,2.8528,2.955,2.9621,2.9693,2.9732,2.9847,2.951,2.8711,2.7668,2.642,2.4794,2.2654,2.0898,0.0,1.6991,0.0,0.0,0.0,0.0,1.1487,1.0578,1.0402,0.0,0.0,0.0,0.8391,0.0,0.0,0.0,0.0,0.7305,0.6458,0.5504,0.5119,0.4952,0.4905,0.4475,0.4148,0.4059,0.3288,0.2772,0.2623,0.2073,0.1433,0.0718,-0.0,-0.063,-0.1267,-0.2439,-0.3722,-0.4998,-0.584,-0.6579,-0.7638,-0.802,-0.826,-0.8526,-0.8172,-0.766,-0.733,-0.6834,-0.641,-0.6069,-0.6312,-0.666,-0.692,-0.7094,-0.7311,-0.7651,-0.706,-0.6878,-0.7352,-0.7677,-0.7926,-0.8141,-0.8123,-0.8263,3.5488,3.1961,3.0966,3.0178,2.9581,3.0225,3.0771,3.1258,3.1941,3.1991,3.1703,3.111,3.0062,2.8823,2.7821,2.7026,2.6487,2.7795,2.9065,3.0268,3.1578,3.3062,3.4571,3.4941,3.545,3.6056,3.5186,3.4376,3.3547,3.2509,3.0861,2.8586,2.776,2.6819,2.5456,2.6626,2.7172,2.7212,2.8477,2.9331,2.9556,2.9821,2.973,2.944,2.9,2.8431,2.7533,2.6406,2.5063,2.326,2.1657,2.0085,0.0,1.695,1.5789,1.4949,1.3756,1.2638,1.1663,1.0932,0.0,0.0,0.9327,0.8765,0.9377,0.0,0.0,0.7735,0.6858,0.5877,0.4913,0.489,0.4715,0.4658,0.4185,0.3828,0.3569,0.306,0.2672,0.2394,0.2174,0.1495,0.0325,-0.087,-0.1745,-0.2524,-0.3184,-0.4166,-0.5591,-0.6423,-0.726,-0.8126,-0.8548,-0.8821,-0.8989,-0.8625,-0.8079,-0.7557,-0.7119,-0.686,-0.6707,-0.6959,-0.7401,-0.7841,-0.8201,-0.8607,-0.9181,-0.8813,-0.8486,-0.8658,-0.9025,-0.9408,-0.972,-0.9446,-0.9426,3.9248,3.7918,3.5535,3.4199,3.3602,3.4178,3.4061,3.3436,3.3723,3.417,3.4594,3.3164,3.2495,3.2223,3.0105,2.8946,2.8684,2.9883,3.0984,3.2175,3.3117,3.4271,3.5516,3.5568,3.6053,3.6793,3.5968,3.5353,3.4876,3.4145,3.3287,3.2204,3.0413,2.894,2.7654,2.8164,2.8451,2.8429,2.8664,2.9217,3.013,3.0215,2.9992,2.9225,2.8586,2.7749,2.6765,2.5465,2.4548,2.3917,2.1977,2.0799,2.0452,1.8201,1.6532,1.5656,1.4757,1.3886,1.3004,1.1683,1.1023,1.1209,1.0435,0.9999,1.0075,0.9034,0.8199,0.7879,0.649,0.5494,0.4997,0.4822,0.463,0.4528,0.4196,0.3717,0.3067,0.2959,0.2831,0.2664,0.2494,0.1874,0.0559,-0.1348,-0.2941,-0.367,-0.4472,-0.5154,-0.5956,-0.6995,-0.7937,-0.8355,-0.8478,-0.8763,-0.9341,-0.8941,-0.8316,-0.7521,-0.7197,-0.7228,-0.7286,-0.7606,-0.7952,-0.8544,-0.9087,-0.9708,-1.0299,-1.0699,-1.0939,-1.0479,-1.0638,-1.1008,-1.1307,-1.0748,-1.0556,4.1005,4.0562,3.9779,3.8389,3.6698,3.6353,3.6497,3.6829,3.6449,3.596,3.5389,3.4847,3.4056,3.3047,3.1946,3.1354,3.1165,3.1297,3.1749,3.2298,3.2838,3.3772,3.5089,3.5557,3.6363,3.7573,3.7397,3.6963,3.6248,3.5889,3.4799,3.3099,3.2918,3.1636,2.931,2.9386,2.916,2.8666,2.9037,2.9241,2.9276,2.9049,2.8953,2.888,2.7844,2.712,2.6594,2.5061,2.3806,2.2937,2.1828,2.0857,2.0116,1.8755,1.7584,1.6759,1.4861,1.3696,1.3344,1.196,1.1242,1.154,1.1121,1.0352,0.9359,0.8698,0.791,0.7189,0.6283,0.5459,0.491,0.4665,0.4606,0.4908,0.4417,0.4033,0.3969,0.3409,0.2918,0.2826,0.1876,0.1005,0.0224,-0.1134,-0.2404,-0.3332,-0.4318,-0.5294,-0.6074,-0.6842,-0.7493,-0.8042,-0.8484,-0.8872,-0.914,-0.9212,-0.887,-0.8186,-0.8102,-0.8178,-0.8125,-0.8837,-0.9509,-0.9901,-1.0602,-1.1159,-1.1532,-1.1969,-1.2348,-1.2506,-1.2355,-1.2221,-1.2301,-1.2105,-1.2159,4.2521,4.235,4.2343,4.1194,3.9495,3.8853,3.8756,3.9114,3.8461,3.7918,3.7307,3.6253,3.5208,3.4147,3.347,3.3021,3.2635,3.2557,3.2651,3.3005,3.3318,3.4178,3.5491,3.6004,3.6625,3.7505,3.7981,3.7667,3.6967,3.6825,3.5885,3.4093,3.4085,3.3003,3.0708,3.037,2.9806,2.8864,2.8922,2.8922,2.8723,2.8554,2.8384,2.8186,2.7064,2.622,2.5515,2.4083,2.269,2.1623,2.0933,2.0132,1.9316,1.8594,1.7729,1.6759,1.5169,1.4125,1.3813,1.2504,1.1688,1.1451,1.0979,1.0262,0.9158,0.845,0.7529,0.6164,0.5552,0.5104,0.4706,0.4751,0.4687,0.472,0.4505,0.4416,0.446,0.36,0.2834,0.2515,0.1719,0.0805,-0.0232,-0.151,-0.2442,-0.3018,-0.4236,-0.5209,-0.5877,-0.6522,-0.7154,-0.7715,-0.8374,-0.8845,-0.9176,-0.9338,-0.9353,-0.8743,-0.8721,-0.883,-0.9116,-0.9714,-1.0276,-1.0696,-1.1348,-1.1925,-1.2209,-1.2711,-1.3137,-1.3451,-1.3671,-1.3652,-1.3437,-1.3466,-1.3628,4.3632,4.3479,4.3697,4.3076,4.1921,4.1218,4.0656,4.0092,3.9455,3.9217,3.9124,3.735,3.6248,3.5517,3.4886,3.4289,3.3841,3.3692,3.3731,3.3884,3.4149,3.4997,3.6263,3.6444,3.6779,3.733,3.8084,3.8012,3.7412,3.737,3.6584,3.5225,3.4749,3.3554,3.1699,3.1358,3.0474,2.9024,2.8571,2.8344,2.8364,2.8239,2.7833,2.7187,2.6151,2.5111,2.3911,2.2711,2.1442,2.0431,1.9714,1.9,1.8323,1.7916,1.7175,1.6147,1.5282,1.4545,1.3911,1.283,1.1912,1.1238,1.0456,0.9665,0.8989,0.8091,0.6888,0.5259,0.4841,0.4689,0.4596,0.4725,0.4753,0.4461,0.447,0.4474,0.4477,0.3651,0.2842,0.2162,0.1783,0.0829,-0.0838,-0.2139,-0.2827,-0.3171,-0.4183,-0.5184,-0.5631,-0.6341,-0.6943,-0.7621,-0.8263,-0.9015,-0.9436,-0.9743,-0.9847,-0.9339,-0.9268,-0.944,-1.0049,-1.0448,-1.089,-1.1369,-1.1989,-1.2522,-1.2783,-1.3224,-1.3677,-1.3907,-1.4552,-1.4935,-1.453,-1.453,-1.4811,4.3565,4.3712,4.356,4.3417,4.3355,4.2749,4.1213,3.9013,3.7792,3.7518,3.798,3.821,3.8165,3.7724,3.6578,3.5912,3.583,3.4886,3.446,3.4575,3.455,3.5082,3.5963,3.5963,3.6801,3.8084,3.8293,3.8386,3.8517,3.8012,3.7139,3.5782,3.5359,3.4235,3.2534,3.2489,3.1529,2.962,2.8571,2.8034,2.8034,2.7515,2.6881,2.6008,2.4855,2.3745,2.2759,2.1263,2.02,1.9491,1.8426,1.7767,1.7605,1.666,1.5689,1.479,1.3957,1.3067,1.2192,1.1518,1.0899,1.0439,0.9284,0.8295,0.7575,0.6211,0.525,0.4998,0.4836,0.4538,0.4328,0.41,0.3875,0.3883,0.3651,0.3533,0.3768,0.3298,0.3067,0.3196,0.1535,-0.0236,-0.1658,-0.2362,-0.3065,-0.3889,-0.4461,-0.5155,-0.6322,-0.6853,-0.731,-0.8063,-0.903,-0.9815,-1.0166,-1.0344,-1.0552,-1.0562,-1.0396,-1.0487,-1.115,-1.1869,-1.2275,-1.226,-1.3375,-1.4128,-1.3736,-1.4177,-1.4683,-1.4902,-1.5074,-1.5105,-1.4726,-1.4991,-1.5259,4.4334,4.425,4.4264,4.3808,4.3145,4.295,4.1433,3.9257,3.9268,3.9033,3.8582,3.8574,3.8409,3.8187,3.6948,3.6407,3.6358,3.5041,3.4823,3.5571,3.5396,3.5829,3.695,3.7045,3.754,3.8197,3.8561,3.8667,3.8438,3.83,3.7589,3.6317,3.5864,3.4751,3.3204,3.2551,3.135,2.9784,2.8384,2.7632,2.7526,2.6534,2.5771,2.5221,2.4183,2.31,2.1773,2.0626,1.9375,1.8242,1.7241,1.6577,1.6109,1.5432,1.4583,1.3769,1.2868,1.2099,1.1569,1.0575,0.9863,0.9703,0.792,0.6593,0.6168,0.5039,0.4214,0.4163,0.3987,0.4035,0.4063,0.3202,0.3079,0.4441,0.3328,0.2216,0.1847,0.1848,0.1843,0.1587,0.0122,-0.1459,-0.2776,-0.3256,-0.3856,-0.4694,-0.5379,-0.6204,-0.7298,-0.7602,-0.8028,-0.915,-0.9853,-1.0526,-1.0946,-1.1045,-1.1105,-1.1391,-1.1236,-1.1394,-1.2225,-1.2675,-1.302,-1.3152,-1.3997,-1.4411,-1.4104,-1.441,-1.491,-1.5042,-1.5163,-1.5228,-1.5035,-1.5162,-1.5348,4.4996,4.4889,4.4965,4.4273,4.3163,4.3057,4.2172,4.0655,4.1346,4.0946,3.9633,3.9056,3.8688,3.8316,3.7489,3.7006,3.6855,3.571,3.5788,3.6812,3.6575,3.6973,3.7916,3.8139,3.8164,3.8066,3.8718,3.8691,3.8099,3.8202,3.7679,3.6712,3.6036,3.5176,3.3791,3.2268,3.0977,2.9928,2.8327,2.7319,2.6992,2.5806,2.5,2.4684,2.3792,2.2526,2.0891,2.009,1.8838,1.7065,1.6276,1.5616,1.474,1.4239,1.3727,1.2924,1.2072,1.139,1.1039,0.9711,0.8799,0.8453,0.6478,0.5049,0.4892,0.4099,0.3549,0.3355,0.3271,0.3311,0.3606,0.219,0.2061,0.4514,0.2448,0.0643,-0.0129,-0.0,-0.0,-0.0761,-0.1897,-0.3026,-0.4238,-0.4723,-0.5218,-0.5949,-0.6761,-0.7696,-0.8848,-0.8897,-0.9116,-1.0357,-1.1003,-1.1397,-1.1729,-1.1866,-1.185,-1.2181,-1.1924,-1.2165,-1.2958,-1.3237,-1.3403,-1.3732,-1.4151,-1.4267,-1.4229,-1.4462,-1.4721,-1.4953,-1.512,-1.5267,-1.52,-1.5248,-1.529,4.502,4.5449,4.4943,4.4962,4.5186,4.457,4.4273,4.3775,4.1485,4.0089,3.9715,4.033,4.026,3.9829,3.9625,3.9446,3.924,3.9063,3.8814,3.8541,3.8466,3.8216,3.7643,3.7742,3.7967,3.8289,3.8185,3.8275,3.8275,3.7892,3.7274,3.6386,3.595,3.5268,3.4026,3.2306,3.1175,3.0585,2.8887,2.7713,2.7068,2.5617,2.4573,2.4033,2.3135,2.1858,2.0071,1.9381,1.821,1.6317,1.572,1.5225,1.4469,1.3551,1.2815,1.2348,1.1446,1.0573,0.9976,0.8811,0.7576,0.6122,0.5223,0.4514,0.4014,0.3508,0.3282,0.3201,0.3089,0.2832,0.232,0.1292,0.0388,0.0258,-0.0129,-0.0645,-0.1293,-0.1293,-0.1807,-0.3344,-0.4243,-0.5009,-0.6137,-0.6256,-0.6624,-0.8033,-0.8734,-0.9771,-1.134,-1.1292,-1.095,-1.1586,-1.2319,-1.2664,-1.2663,-1.292,-1.3123,-1.3121,-1.2832,-1.2851,-1.3652,-1.3785,-1.3862,-1.3894,-1.4472,-1.4722,-1.4372,-1.4709,-1.4884,-1.5008,-1.5127,-1.5137,-1.4946,-1.5122,-1.5255,4.5437,4.6061,4.5822,4.5659,4.5533,4.4963,4.5173,4.5608,4.3365,4.2124,4.1745,4.1698,4.1492,4.118,4.0761,4.034,4.0127,3.9677,3.9447,3.9544,3.9519,3.942,3.9432,3.9198,3.9111,3.9202,3.88,3.8707,3.8731,3.8428,3.7762,3.6934,3.5999,3.498,3.3818,3.2854,3.1738,3.0547,2.9144,2.7809,2.6695,2.5527,2.4541,2.3748,2.285,2.1656,2.0274,1.9337,1.8141,1.6585,1.5708,1.4898,1.4032,1.3251,1.2377,1.1408,1.0507,0.9658,0.8739,0.7402,0.608,0.4493,0.3816,0.2848,0.1741,0.1727,0.1725,0.1736,0.1344,0.0945,0.081,-0.0945,-0.2431,-0.2837,-0.2836,-0.2959,-0.3341,-0.3201,-0.3581,-0.4711,-0.5216,-0.5976,-0.7217,-0.7586,-0.8214,-0.9748,-1.0763,-1.2162,-1.3555,-1.3446,-1.3036,-1.3113,-1.3221,-1.3507,-1.3718,-1.386,-1.4081,-1.4051,-1.3926,-1.3914,-1.429,-1.4374,-1.4316,-1.4374,-1.4721,-1.4734,-1.4514,-1.4696,-1.4899,-1.5025,-1.4926,-1.4891,-1.5057,-1.5164,-1.4966,4.5904,4.6701,4.6568,4.6303,4.5967,4.5641,4.607,4.6878,4.5597,4.4778,4.4071,4.2996,4.2394,4.2288,4.1727,4.1264,4.0963,4.0379,4.0245,4.0477,4.0367,4.0537,4.0789,4.0354,4.0001,3.9782,3.9229,3.8895,3.8895,3.8583,3.8083,3.7307,3.6049,3.4778,3.3785,3.3203,3.2113,3.0217,2.9144,2.7934,2.6416,2.5286,2.4335,2.3657,2.261,2.1669,2.0563,1.9363,1.803,1.6797,1.5722,1.477,1.3807,1.2953,1.1965,1.0778,0.9875,0.8742,0.7395,0.6159,0.4768,0.3239,0.2252,0.0988,-0.0568,-0.0561,-0.0417,-0.0415,-0.0834,-0.1119,-0.1398,-0.3219,-0.4771,-0.4768,-0.4905,-0.5008,-0.5384,-0.5224,-0.5176,-0.5734,-0.6225,-0.6967,-0.8199,-0.9074,-0.9986,-1.1532,-1.2885,-1.4005,-1.4673,-1.5137,-1.5032,-1.4791,-1.442,-1.4422,-1.4782,-1.4945,-1.5054,-1.4998,-1.4854,-1.4827,-1.4886,-1.4896,-1.4777,-1.4752,-1.469,-1.4703,-1.469,-1.469,-1.4799,-1.4871,-1.4841,-1.4854,-1.5299,-1.503,-1.4663,4.6481,4.7123,4.6781,4.6786,4.7242,4.7649,4.7622,4.7378,4.7379,4.7163,4.625,4.4361,4.3101,4.2656,4.3041,4.2843,4.246,4.278,4.262,4.1998,4.1618,4.115,4.0586,3.9964,3.9474,3.9165,3.8653,3.8385,3.8361,3.7725,3.72,3.6745,3.5729,3.4897,3.4168,3.2892,3.1421,2.953,2.8883,2.7819,2.6506,2.4858,2.3991,2.3991,2.2706,2.1526,2.0362,1.9242,1.803,1.6436,1.5625,1.4676,1.3805,1.2648,1.1745,1.1097,0.9739,0.8094,0.6019,0.5464,0.4087,0.1851,0.0714,-0.0721,-0.265,-0.3214,-0.3303,-0.3109,-0.2529,-0.2815,-0.4068,-0.4917,-0.5347,-0.5487,-0.5894,-0.6151,-0.6279,-0.6627,-0.7115,-0.7378,-0.7968,-0.8828,-1.0128,-1.0767,-1.1826,-1.3631,-1.4419,-1.515,-1.591,-1.6107,-1.6191,-1.6348,-1.6188,-1.5942,-1.5849,-1.612,-1.6192,-1.6046,-1.5684,-1.5589,-1.5575,-1.533,-1.498,-1.4886,-1.4752,-1.4777,-1.4777,-1.4678,-1.4666,-1.4802,-1.4948,-1.5105,-1.5534,-1.5153,-1.4625,4.6742,4.7649,4.7522,4.7859,4.8409,4.83,4.8437,4.8654,4.8191,4.7756,4.7378,4.6248,4.542,4.4673,4.4692,4.4177,4.3457,4.3551,4.3305,4.2635,4.2301,4.1842,4.1496,4.086,4.0405,3.9942,3.9359,3.8889,3.8562,3.7736,3.6955,3.6443,3.5518,3.4434,3.3231,3.223,3.0603,2.8325,2.7607,2.6574,2.5214,2.4651,2.3982,2.3142,2.2311,2.1313,2.0211,1.9123,1.7989,1.6467,1.5782,1.4763,1.3502,1.2381,1.1453,1.0575,0.8834,0.7023,0.5161,0.4735,0.3319,0.0731,-0.0439,-0.177,-0.3448,-0.4038,-0.4305,-0.4559,-0.4517,-0.4774,-0.5463,-0.6354,-0.6653,-0.6463,-0.7161,-0.7704,-0.7645,-0.8303,-0.8809,-0.9159,-0.9918,-1.0792,-1.1784,-1.2757,-1.3884,-1.5183,-1.5624,-1.6162,-1.6732,-1.6818,-1.6926,-1.6883,-1.7011,-1.6954,-1.6414,-1.6708,-1.6703,-1.6586,-1.6736,-1.6879,-1.603,-1.5931,-1.5786,-1.5263,-1.504,-1.4968,-1.4956,-1.4932,-1.492,-1.4811,-1.4741,-1.4908,-1.5191,-1.5032,-1.4799,4.7082,4.7916,4.8346,4.8911,4.9331,4.8924,4.9089,4.9554,4.9035,4.8433,4.8077,4.7905,4.7304,4.6441,4.5924,4.5167,4.4386,4.407,4.3762,4.33,4.2836,4.2495,4.2208,4.1755,4.1114,4.0514,3.9764,3.8965,3.842,3.7561,3.6763,3.599,3.5044,3.3793,3.2416,3.1479,2.9786,2.7591,2.6577,2.5466,2.4344,2.4054,2.358,2.2646,2.1644,2.0869,2.0068,1.8804,1.7703,1.6718,1.5672,1.4599,1.3493,1.2142,1.0889,0.9575,0.7958,0.641,0.4956,0.4374,0.2932,0.0148,-0.1337,-0.2844,-0.394,-0.4399,-0.5004,-0.5919,-0.6627,-0.6857,-0.65,-0.7417,-0.7855,-0.7624,-0.8624,-0.9163,-0.9188,-0.9717,-1.0211,-1.055,-1.1165,-1.2216,-1.3046,-1.4406,-1.5526,-1.6186,-1.6571,-1.6944,-1.7217,-1.7356,-1.7532,-1.7227,-1.7566,-1.7499,-1.6877,-1.7043,-1.7211,-1.7346,-1.7589,-1.753,-1.6682,-1.6735,-1.6411,-1.5749,-1.5451,-1.5282,-1.5234,-1.5197,-1.5173,-1.4944,-1.4887,-1.474,-1.4908,-1.493,-1.51,4.7534,4.8262,4.9186,4.967,4.9983,4.9956,4.9956,4.9983,4.9901,4.9378,4.8664,4.8839,4.8356,4.7205,4.6368,4.5742,4.5386,4.456,4.413,4.3929,4.321,4.2793,4.2639,4.1727,4.1144,4.0655,3.9419,3.8179,3.6896,3.6894,3.6558,3.5376,3.4289,3.3208,3.1941,3.0383,2.8727,2.7008,2.5977,2.5001,2.3954,2.305,2.2624,2.2258,2.1069,2.0068,1.9839,1.8162,1.7109,1.7203,1.5205,1.4044,1.3816,1.1622,0.9575,0.7972,0.7272,0.6555,0.5396,0.4665,0.3079,0.0148,-0.2233,-0.3756,-0.43,-0.4886,-0.5945,-0.7221,-0.8292,-0.8393,-0.726,-0.8295,-0.9004,-0.8897,-0.9917,-1.0444,-1.0468,-1.0934,-1.1268,-1.1509,-1.2102,-1.3117,-1.4309,-1.5662,-1.6425,-1.6975,-1.74,-1.7647,-1.7626,-1.7948,-1.7948,-1.7749,-1.7763,-1.7806,-1.754,-1.7539,-1.7908,-1.7937,-1.7839,-1.7912,-1.7972,-1.7842,-1.6932,-1.638,-1.6077,-1.5895,-1.5572,-1.5475,-1.5451,-1.527,-1.4956,-1.485,-1.5048,-1.5055,-1.5235,4.8247,4.91,4.9849,5.0217,5.0452,5.0452,5.0381,5.0005,5.0005,4.948,4.8797,4.8584,4.8184,4.751,4.6627,4.5766,4.4991,4.4648,4.4211,4.3801,4.3135,4.2662,4.2257,4.1491,4.0785,4.0159,3.9147,3.7593,3.5783,3.5722,3.5098,3.3816,3.301,3.1771,3.0375,2.92,2.761,2.5623,2.4963,2.4187,2.2766,2.2263,2.175,2.0863,1.9776,1.903,1.8652,1.7085,1.5952,1.5233,1.4299,1.3341,1.2474,1.0426,0.8534,0.6978,0.6406,0.5829,0.4956,0.3207,0.1618,-0.0,-0.2256,-0.3799,-0.465,-0.528,-0.6206,-0.7627,-0.8721,-0.9002,-0.9121,-0.9829,-1.0335,-1.0375,-1.0934,-1.1514,-1.1737,-1.2205,-1.2827,-1.2934,-1.3593,-1.4648,-1.5459,-1.646,-1.7058,-1.7193,-1.7453,-1.7733,-1.7755,-1.7988,-1.8189,-1.8193,-1.8171,-1.8272,-1.8438,-1.8029,-1.7989,-1.8069,-1.8197,-1.8362,-1.8456,-1.8319,-1.7678,-1.7391,-1.7055,-1.6611,-1.639,-1.5846,-1.5834,-1.5692,-1.5366,-1.5239,-1.5478,-1.5332,-1.5426,4.8963,4.9851,5.0221,5.0631,5.1003,5.0817,5.075,5.051,5.0351,4.9823,4.9127,4.8564,4.7988,4.7462,4.6617,4.5565,4.4581,4.4407,4.4289,4.3817,4.3072,4.2468,4.2169,4.1377,4.0545,3.9755,3.859,3.6869,3.5072,3.4733,3.3902,3.2483,3.1672,3.0437,2.881,2.798,2.6414,2.4671,2.3969,2.3057,2.1978,2.1365,2.0597,1.9433,1.846,1.7807,1.7367,1.5899,1.47,1.3906,1.3141,1.205,1.0455,0.8923,0.7566,0.6402,0.568,0.5244,0.4517,0.2331,0.0442,-0.0302,-0.2272,-0.398,-0.4693,-0.5492,-0.6744,-0.8154,-0.9281,-1.0079,-1.0687,-1.1405,-1.174,-1.1573,-1.1978,-1.2407,-1.2515,-1.3148,-1.3675,-1.4067,-1.4719,-1.5539,-1.6457,-1.6857,-1.7317,-1.7549,-1.7823,-1.7949,-1.7981,-1.8215,-1.844,-1.8539,-1.8686,-1.8789,-1.889,-1.8812,-1.8759,-1.8956,-1.8831,-1.8875,-1.8902,-1.8879,-1.8669,-1.8544,-1.8097,-1.7516,-1.6931,-1.6451,-1.6245,-1.6186,-1.5801,-1.5603,-1.5585,-1.5568,-1.5682,4.9559,5.0285,5.0432,5.0922,5.1508,5.111,5.111,5.1349,5.095,5.0326,4.9515,4.8937,4.793,4.7075,4.6213,4.5184,4.4425,4.4135,4.4014,4.3959,4.2985,4.2413,4.2155,4.103,4.0148,3.9256,3.7842,3.6127,3.4298,3.3838,3.2947,3.1414,3.0327,2.9059,2.7668,2.6604,2.5398,2.4003,2.2902,2.2108,2.1721,2.0513,1.9333,1.8193,1.6933,1.6291,1.6205,1.4593,1.3385,1.2863,1.1754,1.0028,0.8069,0.7268,0.6696,0.5825,0.5101,0.481,0.4371,0.2187,0.0295,-0.1055,-0.2878,-0.4135,-0.4688,-0.5971,-0.7385,-0.8646,-0.9976,-1.1154,-1.1937,-1.2718,-1.2915,-1.2498,-1.2761,-1.3166,-1.3334,-1.3706,-1.4284,-1.499,-1.5404,-1.5768,-1.6731,-1.7308,-1.7741,-1.8163,-1.8412,-1.839,-1.8369,-1.8659,-1.896,-1.9055,-1.922,-1.937,-1.9379,-1.9634,-1.976,-1.9899,-1.9732,-1.9611,-1.9676,-1.973,-1.9382,-1.9099,-1.8661,-1.8072,-1.7579,-1.7129,-1.6906,-1.6747,-1.6319,-1.6086,-1.6033,-1.5952,-1.5781,5.013,5.0699,5.104,5.1399,5.1557,5.1373,5.1092,5.076,5.0551,5.0045,4.9193,4.8375,4.7604,4.6637,4.5797,4.5025,4.4451,4.36,4.3185,4.3153,4.2408,4.1774,4.1142,3.9997,3.8528,3.7213,3.6423,3.5103,3.3792,3.3193,3.2069,3.0427,2.9311,2.7916,2.6707,2.5561,2.4224,2.2846,2.231,2.1484,2.0364,1.9739,1.8677,1.6947,1.6101,1.5162,1.3742,1.2933,1.2101,1.1212,1.0348,0.9008,0.7157,0.6376,0.5677,0.4808,0.4371,0.4083,0.3646,0.1896,-0.0295,-0.2258,-0.3484,-0.429,-0.5165,-0.6637,-0.7923,-0.9199,-1.056,-1.1758,-1.2556,-1.3193,-1.3426,-1.3078,-1.3671,-1.4068,-1.4213,-1.4541,-1.5159,-1.5789,-1.615,-1.6708,-1.7428,-1.7918,-1.831,-1.872,-1.8767,-1.8681,-1.8801,-1.8986,-1.9133,-1.9239,-1.9577,-1.9992,-2.0335,-2.0513,-2.0724,-2.08,-2.0615,-2.0297,-2.0374,-2.038,-2.0054,-1.9702,-1.9259,-1.87,-1.8186,-1.7856,-1.7616,-1.7328,-1.7079,-1.6782,-1.6621,-1.6386,-1.6113,5.0825,5.1126,5.1465,5.1471,5.1497,5.1346,5.1038,5.0477,5.0452,4.9996,4.9339,4.8309,4.7431,4.6707,4.5501,4.4792,4.4208,4.3357,4.2706,4.2366,4.1768,4.1213,4.0409,3.8975,3.7355,3.5899,3.5196,3.424,3.3019,3.2294,3.1133,2.9672,2.8615,2.72,2.5666,2.4701,2.3433,2.1899,2.1118,2.019,1.886,1.8422,1.7405,1.5654,1.5086,1.3949,1.2078,1.1566,1.0975,0.9742,0.8734,0.7371,0.6033,0.5515,0.4965,0.4248,0.3948,0.3658,0.2804,0.1622,-0.0297,-0.2577,-0.3657,-0.4455,-0.5477,-0.6971,-0.8604,-0.957,-1.1142,-1.2546,-1.3192,-1.3836,-1.4113,-1.4025,-1.4576,-1.4947,-1.5098,-1.5437,-1.5742,-1.6196,-1.6526,-1.7073,-1.795,-1.8153,-1.8571,-1.9112,-1.9159,-1.9205,-1.9316,-1.9656,-1.9849,-2.0051,-2.0286,-2.0695,-2.1217,-2.1534,-2.1821,-2.161,-2.1369,-2.115,-2.0991,-2.0843,-2.0526,-2.0249,-1.9853,-1.9548,-1.905,-1.8635,-1.8327,-1.8021,-1.778,-1.7453,-1.7154,-1.6722,-1.6464,5.122,5.1596,5.1596,5.1372,5.1094,5.0942,5.079,5.0563,5.0563,5.0283,4.9645,4.8323,4.7458,4.6819,4.548,4.4533,4.3808,4.3242,4.2655,4.1927,4.1243,4.0561,3.9909,3.8118,3.6524,3.5467,3.4408,3.3521,3.277,3.1649,3.0368,2.9288,2.8053,2.6691,2.489,2.4093,2.2649,2.0638,1.9772,1.8593,1.7174,1.6718,1.5681,1.4001,1.3855,1.2951,1.1402,1.0555,0.9636,0.8568,0.6815,0.5743,0.5225,0.4808,0.4543,0.4137,0.3962,0.2958,0.1948,0.1196,-0.015,-0.2454,-0.3999,-0.5114,-0.5655,-0.7627,-0.9287,-0.9945,-1.19,-1.3349,-1.4001,-1.449,-1.4977,-1.5286,-1.5425,-1.5731,-1.6398,-1.619,-1.6344,-1.6653,-1.6812,-1.6983,-1.817,-1.8316,-1.8833,-1.9522,-1.9792,-1.9748,-2.0161,-2.0393,-2.0694,-2.0852,-2.0781,-2.1072,-2.152,-2.1597,-2.191,-2.2435,-2.2215,-2.1885,-2.1646,-2.1341,-2.1022,-2.0842,-2.0548,-2.013,-1.9771,-1.9469,-1.9194,-1.8998,-1.8557,-1.8045,-1.7717,-1.7315,-1.6869,5.0994,5.0842,5.1045,5.0919,5.0715,5.0511,5.041,5.0232,5.0232,4.9694,4.8868,4.8273,4.7172,4.6072,4.5139,4.4405,4.3868,4.2927,4.2525,4.2232,4.1087,3.9815,3.8543,3.7134,3.5908,3.5078,3.4,3.3139,3.2701,3.1576,3.0244,2.8898,2.7568,2.5862,2.3967,2.2889,2.1319,1.9644,1.8757,1.7689,1.6486,1.5635,1.4658,1.3609,1.306,1.2396,1.1259,0.9833,0.8341,0.6977,0.5901,0.5201,0.4898,0.4791,0.4392,0.382,0.3692,0.2668,0.0597,-0.0,-0.1365,-0.4304,-0.4937,-0.5441,-0.6508,-0.8664,-1.0201,-1.1103,-1.2742,-1.416,-1.4818,-1.5147,-1.5639,-1.6588,-1.636,-1.635,-1.7154,-1.6975,-1.6934,-1.7325,-1.7454,-1.7967,-1.8683,-1.8932,-1.9329,-2.0203,-2.0399,-2.0286,-2.0704,-2.0892,-2.1136,-2.084,-2.0769,-2.12,-2.1659,-2.1735,-2.2164,-2.2862,-2.2815,-2.2563,-2.2352,-2.2031,-2.171,-2.139,-2.1042,-2.0677,-2.0425,-2.0146,-1.9985,-1.9758,-1.9468,-1.8957,-1.8568,-1.8156,-1.7535,5.0741,5.0588,5.0639,5.0639,5.0334,5.0104,4.9874,4.9719,4.959,4.9202,4.8264,4.7738,4.6931,4.6006,4.5045,4.4505,4.403,4.2904,4.2304,4.2086,4.0885,3.9351,3.7927,3.6867,3.5963,3.4907,3.3834,3.2985,3.2349,3.1236,2.9944,2.8397,2.7281,2.5442,2.309,2.2051,2.0626,1.8725,1.7772,1.6705,1.5475,1.4666,1.3817,1.3051,1.2418,1.1889,1.0875,0.9307,0.7828,0.6653,0.5832,0.5259,0.4918,0.4844,0.4295,0.3705,0.3584,0.2406,-0.0304,-0.1525,-0.322,-0.5111,-0.5435,-0.6115,-0.7167,-0.9186,-1.0751,-1.1359,-1.3144,-1.4541,-1.5216,-1.5711,-1.6377,-1.7164,-1.7152,-1.7199,-1.7888,-1.7517,-1.765,-1.8007,-1.8154,-1.8469,-1.9222,-1.9453,-2.0005,-2.0725,-2.0923,-2.1003,-2.1413,-2.1408,-2.1412,-2.1209,-2.1114,-2.142,-2.186,-2.2052,-2.2293,-2.2981,-2.342,-2.318,-2.2806,-2.2485,-2.2098,-2.175,-2.1483,-2.1229,-2.1002,-2.0735,-2.0494,-2.0279,-2.009,-1.9755,-1.9318,-1.8898,-1.8277,5.0487,5.0334,5.0155,5.0028,4.9847,4.9593,4.9361,4.9047,4.9072,4.8682,4.7894,4.7232,4.6674,4.6294,4.5233,4.4616,4.4318,4.309,4.2204,4.1615,4.0412,3.8982,3.8039,3.7019,3.5987,3.481,3.3732,3.2788,3.1919,3.0969,2.9518,2.8002,2.7152,2.5221,2.2911,2.1665,1.9991,1.7898,1.7023,1.5858,1.4587,1.3809,1.3099,1.2448,1.2222,1.1395,1.0185,0.9055,0.8047,0.6586,0.6205,0.5756,0.5287,0.4943,0.4379,0.378,0.3181,0.1989,-0.0622,-0.3249,-0.497,-0.5489,-0.6288,-0.6802,-0.7537,-0.924,-1.079,-1.1406,-1.348,-1.4871,-1.5546,-1.6205,-1.6862,-1.7355,-1.7819,-1.8072,-1.8276,-1.8049,-1.7956,-1.8542,-1.8485,-1.8687,-1.9347,-1.9842,-2.0145,-2.106,-2.1302,-2.159,-2.1715,-2.1941,-2.187,-2.1945,-2.1837,-2.1713,-2.1982,-2.2256,-2.2652,-2.3267,-2.3688,-2.3594,-2.314,-2.2779,-2.2378,-2.2058,-2.1911,-2.1737,-2.1537,-2.1243,-2.0935,-2.0842,-2.077,-2.0309,-1.9827,-1.955,-1.9089,4.9202,4.9097,4.9147,4.9147,4.8837,4.8608,4.8608,4.8706,4.8706,4.8158,4.7364,4.7098,4.6452,4.5642,4.5209,4.4855,4.4531,4.3274,4.2221,4.111,3.9945,3.9131,3.8175,3.6972,3.5721,3.4487,3.3051,3.2148,3.1497,3.0557,2.9392,2.7987,2.6272,2.4494,2.2337,2.0729,1.9015,1.7086,1.629,1.5453,1.4131,1.3028,1.2321,1.1851,1.1832,1.1319,1.034,0.9684,0.8835,0.7787,0.6861,0.6113,0.5544,0.4982,0.455,0.3801,0.2601,0.1078,-0.0928,-0.3897,-0.5978,-0.6026,-0.6839,-0.7549,-0.786,-0.9514,-1.0896,-1.1983,-1.3535,-1.5081,-1.6246,-1.6542,-1.7044,-1.7709,-1.8019,-1.8155,-1.8426,-1.8456,-1.8446,-1.8572,-1.8524,-1.8608,-1.9517,-1.9789,-2.0329,-2.1222,-2.1672,-2.1972,-2.2121,-2.2271,-2.2211,-2.2138,-2.2007,-2.1836,-2.1976,-2.2408,-2.2962,-2.3311,-2.3861,-2.4075,-2.3621,-2.326,-2.2939,-2.2659,-2.2432,-2.2218,-2.1951,-2.1817,-2.1523,-2.1496,-2.143,-2.1041,-2.0602,-2.0229,-1.976,4.9224,4.9022,4.9092,4.8993,4.892,4.8518,4.8396,4.8313,4.8313,4.7762,4.6902,4.6799,4.6258,4.5438,4.5107,4.4954,4.4397,4.3098,4.1855,4.07,3.979,3.8928,3.7671,3.6701,3.5519,3.4368,3.3284,3.2244,3.133,3.0243,2.8945,2.7311,2.5809,2.3839,2.1655,1.996,1.8227,1.6538,1.5913,1.5136,1.4026,1.2798,1.1811,1.1351,1.1321,1.1064,1.0173,0.9617,0.9081,0.8205,0.7423,0.6491,0.5764,0.5202,0.4606,0.3831,0.1699,0.0155,-0.1714,-0.4066,-0.6155,-0.6383,-0.7031,-0.7451,-0.8225,-0.9613,-1.0992,-1.2235,-1.3839,-1.5455,-1.6785,-1.6859,-1.733,-1.7799,-1.8055,-1.8174,-1.8491,-1.8569,-1.8636,-1.8804,-1.8818,-1.8906,-1.9347,-1.9743,-2.02,-2.0944,-2.181,-2.2109,-2.2121,-2.2259,-2.2235,-2.2114,-2.1873,-2.1788,-2.2075,-2.2561,-2.3132,-2.3535,-2.4048,-2.4262,-2.4195,-2.3875,-2.3581,-2.3247,-2.2873,-2.2525,-2.2271,-2.2178,-2.2058,-2.1857,-2.1777,-2.1726,-2.1542,-2.1096,-2.0515,4.9145,4.931,4.912,4.9035,4.8913,4.8596,4.822,4.7762,4.7859,4.7194,4.6341,4.6377,4.5919,4.5371,4.5118,4.487,4.4155,4.3109,4.1712,4.0206,3.9596,3.8481,3.7144,3.6002,3.5051,3.4221,3.3357,3.2259,3.0953,3.0024,2.8612,2.6632,2.5198,2.3331,2.1132,1.955,1.803,1.626,1.5784,1.5138,1.4221,1.3029,1.177,1.0953,1.0877,1.0745,1.015,0.9575,0.901,0.8482,0.7718,0.6911,0.5985,0.526,0.4534,0.3713,0.0936,-0.0939,-0.2348,-0.4395,-0.584,-0.639,-0.6886,-0.7294,-0.8254,-0.9677,-1.1059,-1.2483,-1.4105,-1.5931,-1.6986,-1.6977,-1.7233,-1.7879,-1.8083,-1.8192,-1.851,-1.8673,-1.8789,-1.9189,-1.8984,-1.8927,-1.9345,-1.9913,-2.0201,-2.0664,-2.1534,-2.2271,-2.2283,-2.2259,-2.2235,-2.215,-2.1933,-2.197,-2.2244,-2.2777,-2.3327,-2.372,-2.4235,-2.4396,-2.4556,-2.4342,-2.3995,-2.3634,-2.326,-2.2939,-2.2699,-2.2605,-2.2432,-2.2178,-2.2098,-2.2018,-2.1978,-2.1912,-2.1214,4.8059,4.8234,4.814,4.788,4.7596,4.7832,4.7614,4.6839,4.7194,4.6669,4.5665,4.5598,4.5302,4.4658,4.4998,4.4748,4.4074,4.2936,4.1444,3.9609,3.8765,3.78,3.6691,3.521,3.4074,3.3281,3.2726,3.1694,3.0473,2.9555,2.8384,2.6743,2.4891,2.3028,2.1049,1.9446,1.799,1.6703,1.6062,1.5397,1.4448,1.3089,1.1606,1.0613,1.0533,1.0264,0.9987,0.9751,0.9196,0.7812,0.7505,0.6555,0.5609,0.4852,0.376,0.2191,0.047,-0.157,-0.3295,-0.4552,-0.5557,-0.6281,-0.696,-0.7689,-0.8649,-0.9903,-1.1473,-1.3075,-1.4806,-1.6332,-1.6642,-1.6867,-1.7104,-1.7572,-1.7891,-1.8183,-1.851,-1.8664,-1.8942,-1.9321,-1.9033,-1.8727,-1.9123,-1.9543,-2.0013,-2.0472,-2.1314,-2.2055,-2.2193,-2.2307,-2.2259,-2.215,-2.2017,-2.219,-2.2532,-2.3024,-2.3575,-2.4077,-2.4369,-2.4636,-2.4757,-2.4609,-2.4369,-2.4165,-2.3741,-2.3474,-2.326,-2.3073,-2.2939,-2.2766,-2.2605,-2.2458,-2.2472,-2.235,-2.1991,4.8214,4.845,4.8357,4.8239,4.8028,4.7957,4.7698,4.7299,4.7487,4.691,4.6151,4.5941,4.5481,4.4626,4.4717,4.4327,4.3342,4.2276,4.0492,3.8782,3.816,3.7362,3.6254,3.462,3.3686,3.2926,3.2119,3.1213,3.0233,2.9169,2.7997,2.6129,2.4521,2.2668,2.091,1.952,1.829,1.7275,1.6729,1.6082,1.501,1.3347,1.1676,1.0785,1.0048,0.9773,0.948,0.8891,0.8301,0.7521,0.69,0.6118,0.5181,0.44,0.3456,0.1728,-0.0157,-0.204,-0.3927,-0.487,-0.571,-0.6472,-0.7151,-0.7885,-0.8856,-1.0299,-1.2083,-1.394,-1.5391,-1.6771,-1.7307,-1.6919,-1.717,-1.7609,-1.7826,-1.8046,-1.8519,-1.8683,-1.8933,-1.9312,-1.8882,-1.8577,-1.8671,-1.9128,-1.9636,-2.0452,-2.1114,-2.1685,-2.2126,-2.2193,-2.2271,-2.2211,-2.2262,-2.2448,-2.281,-2.3203,-2.3823,-2.4329,-2.4529,-2.4797,-2.4824,-2.4837,-2.477,-2.4715,-2.4458,-2.3901,-2.3688,-2.3447,-2.3407,-2.3354,-2.3233,-2.31,-2.302,-2.2762,-2.24,4.8709,4.8812,4.8658,4.8544,4.8427,4.8146,4.7866,4.7726,4.7656,4.7004,4.5984,4.6014,4.5341,4.4374,4.3997,4.3489,4.2373,4.0993,3.9406,3.7821,3.7611,3.6776,3.5528,3.4521,3.3667,3.283,3.182,3.0887,3.0161,2.909,2.7478,2.5851,2.4201,2.2457,2.0658,1.9764,1.8774,1.8104,1.7407,1.6788,1.5341,1.3678,1.2122,1.0861,1.0074,0.9589,0.9276,0.831,0.7681,0.7056,0.6275,0.5338,0.487,0.425,0.2995,0.1418,-0.0472,-0.2207,-0.3796,-0.491,-0.5602,-0.6357,-0.7177,-0.7917,-0.9373,-1.1036,-1.3075,-1.5009,-1.6309,-1.682,-1.7148,-1.6886,-1.7094,-1.7518,-1.7653,-1.7808,-1.8448,-1.8768,-1.8894,-1.8933,-1.8627,-1.8795,-1.8937,-1.9025,-1.974,-2.0307,-2.1119,-2.1638,-2.2058,-2.2193,-2.2271,-2.2408,-2.2384,-2.2819,-2.3028,-2.3433,-2.4031,-2.4595,-2.4756,-2.4972,-2.4945,-2.4918,-2.4999,-2.5092,-2.4622,-2.4209,-2.4022,-2.3834,-2.3728,-2.3688,-2.3754,-2.3674,-2.3447,-2.3107,-2.2631,4.8565,4.8546,4.8476,4.82,4.7878,4.8154,4.7809,4.7141,4.7202,4.6374,4.5332,4.4661,4.4155,4.3499,4.2669,4.1994,4.1082,4.0046,3.8574,3.6769,3.6522,3.5932,3.4521,3.3614,3.3265,3.2689,3.1715,3.0821,3.0141,2.9284,2.7634,2.563,2.4495,2.2935,2.0847,2.0061,1.9699,1.9053,1.8387,1.6966,1.524,1.3973,1.2702,1.1721,1.0538,0.9687,0.9036,0.8037,0.7213,0.6431,0.5648,0.4868,0.4245,0.3335,0.1913,0.0479,-0.0798,-0.1921,-0.3709,-0.4517,-0.5191,-0.6079,-0.6927,-0.7966,-0.9933,-1.2137,-1.4358,-1.5056,-1.6246,-1.6828,-1.6968,-1.6649,-1.6924,-1.7247,-1.7687,-1.8226,-1.8838,-1.8947,-1.9065,-1.9067,-1.8933,-1.9282,-1.9444,-1.9573,-1.983,-2.0398,-2.099,-2.1528,-2.1895,-2.2234,-2.2428,-2.2615,-2.2627,-2.3079,-2.3392,-2.3804,-2.4142,-2.486,-2.5024,-2.5024,-2.5173,-2.5147,-2.5148,-2.5066,-2.4784,-2.4636,-2.4553,-2.439,-2.4165,-2.3995,-2.4165,-2.3915,-2.3741,-2.3426,-2.3153,4.8627,4.84,4.8109,4.7972,4.7667,4.7726,4.7422,4.706,4.6758,4.6357,4.5578,4.4946,4.3945,4.2606,4.146,4.0298,3.9623,3.8754,3.754,3.6362,3.5761,3.4988,3.4094,3.3342,3.2969,3.2537,3.1841,3.1204,3.0333,2.9247,2.7734,2.5621,2.4557,2.3152,2.1089,2.0576,2.0169,1.959,1.851,1.7181,1.5688,1.4388,1.3109,1.198,1.0583,0.9739,0.8912,0.7731,0.6904,0.6281,0.5519,0.4757,0.3976,0.2886,0.1618,-0.0653,-0.1469,-0.2608,-0.374,-0.4232,-0.5095,-0.5982,-0.7183,-0.8901,-1.1244,-1.3304,-1.5002,-1.5706,-1.6546,-1.6933,-1.686,-1.6787,-1.709,-1.7571,-1.7869,-1.8452,-1.9044,-1.9174,-1.9266,-1.925,-1.9241,-1.9622,-1.9977,-2.0025,-2.0134,-2.0496,-2.1144,-2.1871,-2.2257,-2.2627,-2.2685,-2.2766,-2.2931,-2.3224,-2.3706,-2.4163,-2.4466,-2.5001,-2.5317,-2.5331,-2.5483,-2.5415,-2.5445,-2.5323,-2.5066,-2.5026,-2.4929,-2.4688,-2.4329,-2.4434,-2.4421,-2.4155,-2.4048,-2.4152,-2.3652,4.8627,4.8361,4.7872,4.7794,4.7794,4.7332,4.7186,4.6971,4.6513,4.6211,4.5581,4.4863,4.3278,4.1498,4.0071,3.9239,3.8374,3.7314,3.668,3.6135,3.5531,3.4689,3.4128,3.352,3.3215,3.2759,3.204,3.1381,3.0716,2.9472,2.7769,2.5858,2.485,2.3127,2.1727,2.0949,2.0559,2.0025,1.8656,1.745,1.6351,1.4693,1.3556,1.2372,1.0993,0.9631,0.8955,0.7611,0.678,0.6004,0.524,0.4471,0.3856,0.2597,0.1146,-0.0825,-0.1986,-0.2986,-0.3643,-0.4307,-0.4997,-0.6056,-0.7796,-0.9894,-1.2809,-1.4354,-1.5314,-1.6206,-1.6649,-1.7088,-1.7255,-1.7148,-1.7636,-1.8087,-1.8379,-1.8794,-1.9231,-1.9373,-1.9288,-1.9442,-1.9454,-2.0005,-2.0191,-2.0492,-2.0569,-2.0687,-2.1282,-2.2191,-2.2548,-2.2877,-2.2937,-2.2971,-2.3113,-2.3255,-2.3741,-2.424,-2.4598,-2.5137,-2.5304,-2.5471,-2.5471,-2.5585,-2.563,-2.5496,-2.5335,-2.5283,-2.5201,-2.4999,-2.4636,-2.4529,-2.4449,-2.4436,-2.4382,-2.4461,-2.3733,4.8236,4.814,4.7881,4.7726,4.7749,4.7355,4.6891,4.6529,4.6211,4.5701,4.4784,4.3485,4.111,3.9171,3.8934,3.8552,3.8026,3.7255,3.6849,3.635,3.5869,3.4933,3.4266,3.3958,3.3725,3.3158,3.2242,3.1629,3.078,2.9334,2.8066,2.6841,2.5008,2.33,2.1961,2.1136,2.0716,2.0018,1.8806,1.7964,1.6845,1.5475,1.4153,1.313,1.1558,1.0156,0.9078,0.7861,0.6702,0.5906,0.5128,0.4349,0.374,0.2464,0.0662,-0.0997,-0.2171,-0.3024,-0.3887,-0.4233,-0.4788,-0.6034,-0.8141,-1.0762,-1.368,-1.4923,-1.57,-1.6339,-1.6912,-1.7279,-1.7463,-1.7805,-1.7929,-1.8418,-1.8703,-1.9167,-1.9447,-1.959,-1.9486,-1.9466,-1.9845,-2.0256,-2.0797,-2.1121,-2.1211,-2.1168,-2.17,-2.2611,-2.2934,-2.3116,-2.3045,-2.3128,-2.3104,-2.3247,-2.3544,-2.407,-2.4545,-2.4946,-2.5452,-2.5452,-2.5452,-2.5542,-2.5657,-2.5431,-2.5245,-2.5362,-2.5473,-2.5039,-2.4756,-2.4676,-2.4609,-2.4556,-2.4316,-2.4209,-2.3091,4.7905,4.8167,4.7219,4.6721,4.6456,4.6189,4.5735,4.544,4.4974,4.4018,4.2766,4.1603,4.0117,3.8735,3.8193,3.8084,3.7518,3.675,3.6505,3.6128,3.5366,3.4598,3.3958,3.3852,3.3661,3.3043,3.2366,3.1632,3.1108,2.9292,2.766,2.6221,2.4777,2.3407,2.2084,2.1285,2.057,1.9854,1.9089,1.8226,1.7408,1.5862,1.4485,1.3376,1.1599,1.0214,0.9174,0.8114,0.6952,0.5985,0.5202,0.4576,0.3621,0.2162,0.0501,-0.1171,-0.2187,-0.3059,-0.3954,-0.4302,-0.5166,-0.7694,-0.9504,-1.1489,-1.4359,-1.525,-1.5973,-1.6561,-1.6936,-1.7288,-1.7288,-1.7647,-1.7981,-1.8681,-1.9012,-1.9324,-1.9634,-1.976,-1.9866,-1.9846,-2.0268,-2.0705,-2.1243,-2.1605,-2.1698,-2.1805,-2.2338,-2.2852,-2.304,-2.3284,-2.3091,-2.3079,-2.3079,-2.326,-2.3575,-2.3963,-2.4352,-2.4863,-2.54,-2.5531,-2.5518,-2.557,-2.5649,-2.54,-2.5163,-2.5132,-2.5099,-2.5024,-2.485,-2.4555,-2.4488,-2.4623,-2.4369,-2.3956,-2.2696,4.7674,4.7723,4.6398,4.5743,4.5609,4.5398,4.4863,4.4145,4.3975,4.2549,4.0472,4.0282,3.9465,3.8443,3.8066,3.7744,3.7301,3.6731,3.6426,3.5922,3.5378,3.4501,3.4123,3.379,3.3661,3.3012,3.1976,3.1467,3.1105,2.9173,2.7337,2.5753,2.4407,2.319,2.2047,2.121,2.0554,1.9774,1.8996,1.8255,1.7423,1.5876,1.433,1.3204,1.1449,1.0221,0.934,0.844,0.7091,0.6104,0.5292,0.4648,0.351,0.2018,0.0507,-0.1015,-0.2209,-0.3087,-0.3987,-0.5061,-0.628,-0.8841,-1.0131,-1.2302,-1.4462,-1.5528,-1.6042,-1.6928,-1.7112,-1.7112,-1.7288,-1.7647,-1.8173,-1.8689,-1.903,-1.9351,-1.9709,-1.9855,-2.0154,-2.023,-2.0485,-2.0687,-2.1104,-2.1452,-2.2058,-2.1981,-2.2106,-2.2671,-2.2933,-2.3058,-2.3081,-2.3081,-2.3081,-2.3288,-2.3668,-2.3756,-2.4013,-2.4673,-2.5199,-2.5529,-2.57,-2.5753,-2.5727,-2.5518,-2.5283,-2.492,-2.4661,-2.4553,-2.4455,-2.438,-2.4354,-2.4193,-2.3966,-2.3542,-2.2556,4.7189,4.7167,4.5553,4.5274,4.5497,4.5376,4.4377,4.321,4.3001,4.1569,3.9663,3.9625,3.8936,3.7736,3.7509,3.7403,3.7348,3.6866,3.6746,3.632,3.5663,3.5154,3.4701,3.4246,3.3756,3.3296,3.2159,3.1164,3.0861,2.8924,2.6929,2.5371,2.4317,2.3132,2.2143,2.1335,2.0497,1.9871,1.8831,1.8084,1.7111,1.5546,1.4323,1.3068,1.1339,1.0088,0.9516,0.8605,0.7245,0.5755,0.5363,0.4544,0.3066,0.1877,0.0513,-0.1197,-0.2243,-0.3312,-0.423,-0.605,-0.7851,-0.9628,-1.09,-1.2857,-1.4992,-1.5881,-1.6057,-1.6936,-1.7112,-1.7288,-1.7471,-1.7822,-1.8348,-1.8689,-1.903,-1.9379,-1.9737,-1.9921,-2.0038,-2.0346,-2.0392,-2.0436,-2.0707,-2.1273,-2.2078,-2.2333,-2.2078,-2.2313,-2.282,-2.2797,-2.2982,-2.2786,-2.2786,-2.2878,-2.305,-2.3211,-2.3508,-2.4332,-2.4811,-2.5276,-2.5435,-2.5594,-2.5568,-2.5529,-2.4995,-2.4377,-2.4124,-2.4036,-2.3894,-2.3625,-2.3612,-2.3438,-2.3375,-2.3138,-2.2044,4.7143,4.733,4.5783,4.4844,4.4435,4.4639,4.3949,4.2918,4.1947,4.0724,3.916,3.8794,3.826,3.7594,3.7431,3.7457,3.7288,3.6976,3.6689,3.6563,3.5808,3.5455,3.5015,3.4506,3.4061,3.3239,3.2145,3.0964,3.0634,2.8769,2.698,2.5422,2.412,2.2674,2.163,2.0968,2.0627,1.9866,1.8894,1.7975,1.7295,1.5721,1.4132,1.3019,1.129,1.0234,0.9678,0.8766,0.7399,0.5874,0.5466,0.4627,0.2936,0.1729,0.0346,-0.1211,-0.2261,-0.3669,-0.5294,-0.7115,-0.8943,-1.0377,-1.1799,-1.3571,-1.5352,-1.6049,-1.6401,-1.6944,-1.7136,-1.7312,-1.7288,-1.7998,-1.8523,-1.8689,-1.9039,-1.9563,-1.9921,-1.9921,-2.0076,-2.0414,-2.05,-2.0988,-2.1453,-2.134,-2.199,-2.2565,-2.2521,-2.2564,-2.2883,-2.2899,-2.283,-2.2599,-2.2554,-2.2452,-2.2567,-2.2728,-2.3211,-2.4012,-2.448,-2.4798,-2.5117,-2.5435,-2.5276,-2.5092,-2.4377,-2.3815,-2.3686,-2.3401,-2.2928,-2.2719,-2.2744,-2.303,-2.3141,-2.2621,-2.1745,4.7446,4.7446,4.6034,4.4754,4.4051,4.4376,4.3696,4.2467,4.1187,4.0025,3.9074,3.855,3.8282,3.7998,3.7795,3.7625,3.7661,3.7223,3.6933,3.6789,3.6113,3.5823,3.5378,3.4783,3.4349,3.3504,3.2128,3.0898,3.0548,2.8892,2.7017,2.5419,2.408,2.2966,2.1936,2.1393,2.1074,2.0295,1.9432,1.8337,1.7169,1.5881,1.4231,1.3092,1.1642,1.0224,0.9826,0.8926,0.7523,0.6127,0.5414,0.4707,0.3142,0.1399,0.0175,-0.1224,-0.2987,-0.4408,-0.6219,-0.8014,-0.9655,-1.1088,-1.2863,-1.4285,-1.5528,-1.6049,-1.6632,-1.7009,-1.7193,-1.7386,-1.7563,-1.8259,-1.8576,-1.876,-1.9232,-1.9581,-1.994,-1.994,-1.9949,-2.0288,-2.0607,-2.1302,-2.1811,-2.1729,-2.1744,-2.2374,-2.2829,-2.2865,-2.3056,-2.2876,-2.2531,-2.2441,-2.2178,-2.2067,-2.214,-2.2406,-2.305,-2.368,-2.416,-2.448,-2.4798,-2.513,-2.4811,-2.4467,-2.4074,-2.3502,-2.3056,-2.2766,-2.2421,-2.2138,-2.2079,-2.2355,-2.2768,-2.2073,-2.1233,4.7865,4.7677,4.6057,4.4957,4.4264,4.4242,4.3341,4.1713,4.0509,3.9726,3.9235,3.9216,3.8984,3.8585,3.864,3.834,3.7952,3.7791,3.7608,3.7223,3.6737,3.6258,3.5823,3.5455,3.4702,3.3641,3.2266,3.0927,3.0556,2.8413,2.6485,2.5346,2.4196,2.3354,2.282,2.2117,2.174,2.0808,1.9688,1.8587,1.7461,1.5709,1.4543,1.3201,1.1726,1.0605,1.0007,0.9052,0.746,0.6204,0.5462,0.4399,0.2994,0.106,-0.0354,-0.195,-0.3923,-0.5536,-0.7328,-0.8939,-1.0717,-1.2325,-1.3755,-1.4815,-1.5521,-1.6241,-1.6824,-1.7097,-1.7323,-1.772,-1.8093,-1.822,-1.8522,-1.8822,-1.9268,-1.9618,-1.9793,-1.9977,-1.9996,-2.0152,-2.0114,-2.0617,-2.1302,-2.1414,-2.1891,-2.2224,-2.2663,-2.2747,-2.2594,-2.243,-2.2266,-2.2124,-2.1839,-2.184,-2.1915,-2.2162,-2.2406,-2.3038,-2.3692,-2.4,-2.4492,-2.4652,-2.4332,-2.4099,-2.3599,-2.32,-2.2447,-2.214,-2.2047,-2.1777,-2.1544,-2.158,-2.186,-2.1395,-2.0703,4.6655,4.6195,4.5821,4.4887,4.3543,4.2837,4.217,4.1733,4.1308,4.0685,3.9745,3.9411,3.9272,3.9133,3.8755,3.8383,3.8077,3.7801,3.7648,3.729,3.7078,3.6728,3.6256,3.57,3.4959,3.363,3.2214,3.0889,2.9831,2.7774,2.6163,2.5109,2.4308,2.39,2.3465,2.2799,2.2061,2.119,1.9879,1.8785,1.7499,1.5679,1.4713,1.3406,1.1512,1.073,1.0305,0.8794,0.6998,0.6079,0.5355,0.4283,0.3036,0.1072,-0.0715,-0.3573,-0.5013,-0.627,-0.8413,-0.9655,-1.1266,-1.3604,-1.5027,-1.5704,-1.6233,-1.6624,-1.7049,-1.7372,-1.7461,-1.7861,-1.8066,-1.839,-1.8679,-1.8956,-1.9423,-1.9776,-1.9971,-2.0204,-2.0204,-2.0305,-2.0257,-2.084,-2.1353,-2.1638,-2.1953,-2.232,-2.2471,-2.2557,-2.2471,-2.2309,-2.2159,-2.2008,-2.1868,-2.1882,-2.1709,-2.1774,-2.1989,-2.2245,-2.3108,-2.3627,-2.39,-2.4061,-2.3864,-2.3608,-2.3135,-2.2437,-2.1692,-2.1613,-2.1613,-2.1435,-2.1201,-2.1056,-2.0769,-2.0658,-2.0351,4.5839,4.5432,4.5281,4.4442,4.3401,4.259,4.2169,4.1753,4.1618,4.086,3.9902,3.9588,3.9505,3.9215,3.8956,3.8653,3.8544,3.8406,3.8268,3.7784,3.7367,3.7115,3.6621,3.5743,3.4763,3.3429,3.1978,3.0609,2.9159,2.7482,2.5831,2.5126,2.4349,2.415,2.3871,2.331,2.2678,2.1615,2.0253,1.8949,1.7469,1.5993,1.4882,1.3713,1.1609,1.0841,1.0604,0.8537,0.6896,0.5801,0.5256,0.3975,0.1987,-0.0542,-0.2537,-0.5079,-0.654,-0.7993,-0.9802,-1.1231,-1.2836,-1.4634,-1.6077,-1.6635,-1.6952,-1.7137,-1.7445,-1.7575,-1.7607,-1.7821,-1.8199,-1.8561,-1.8836,-1.9285,-1.9633,-1.998,-2.0215,-2.028,-2.0412,-2.0683,-2.093,-2.1319,-2.1762,-2.1874,-2.1995,-2.2168,-2.2341,-2.2309,-2.2428,-2.2364,-2.2374,-2.2223,-2.2072,-2.1933,-2.176,-2.1631,-2.2091,-2.2397,-2.2792,-2.3423,-2.3434,-2.3478,-2.3281,-2.3015,-2.2704,-2.2032,-2.1559,-2.1525,-2.1503,-2.1188,-2.1009,-2.0856,-2.0747,-2.067,-2.0484,4.5162,4.4715,4.4405,4.3875,4.3359,4.2932,4.237,4.1773,4.1327,4.0685,4.0059,3.9959,3.9711,3.9314,3.923,3.9159,3.8955,3.8812,3.8484,3.8281,3.7556,3.7041,3.6273,3.5489,3.4204,3.2905,3.1563,2.994,2.8658,2.7147,2.5628,2.5228,2.4685,2.4452,2.4107,2.3383,2.277,2.2168,2.0483,1.9014,1.7925,1.6449,1.4752,1.3883,1.2151,1.063,1.0189,0.8864,0.6838,0.5897,0.4775,0.3471,0.0182,-0.2738,-0.4587,-0.625,-0.7537,-0.9369,-1.1008,-1.2642,-1.412,-1.5789,-1.712,-1.7451,-1.7567,-1.729,-1.7567,-1.7721,-1.777,-1.8018,-1.8417,-1.855,-1.8828,-1.9319,-1.9662,-2.0014,-2.0402,-2.044,-2.0421,-2.0507,-2.0562,-2.1146,-2.1636,-2.1771,-2.1854,-2.1936,-2.2058,-2.2242,-2.2168,-2.232,-2.2396,-2.2406,-2.2256,-2.2116,-2.2019,-2.2088,-2.2244,-2.2588,-2.2932,-2.2939,-2.2887,-2.2784,-2.2554,-2.2418,-2.2121,-2.1916,-2.1656,-2.1453,-2.1453,-2.1348,-2.1123,-2.0802,-2.0694,-2.0776,-2.0613,4.3447,4.2797,4.2788,4.2837,4.2952,4.2342,4.1927,4.1773,4.0997,4.0529,4.0254,4.0066,3.9813,3.964,3.9523,3.9501,3.9199,3.8962,3.8493,3.7862,3.7384,3.6444,3.5457,3.4517,3.3306,3.1919,3.0695,2.9152,2.7586,2.6199,2.5116,2.4547,2.4291,2.4291,2.3924,2.3373,2.2637,2.2258,2.0436,1.8947,1.7827,1.6314,1.4778,1.3777,1.224,1.0693,0.9879,0.7981,0.6669,0.5728,0.425,0.166,-0.1844,-0.4056,-0.5721,-0.7023,-0.8512,-1.0364,-1.2024,-1.3682,-1.5153,-1.6044,-1.7159,-1.7587,-1.7754,-1.7648,-1.7664,-1.7835,-1.8133,-1.8383,-1.8593,-1.8702,-1.8826,-1.9166,-1.9679,-2.0043,-2.0398,-2.0408,-2.0226,-2.0315,-2.0374,-2.0667,-2.1343,-2.1442,-2.154,-2.1822,-2.2122,-2.2235,-2.2078,-2.2189,-2.2514,-2.2385,-2.2395,-2.2277,-2.2223,-2.2349,-2.2507,-2.2441,-2.2408,-2.2389,-2.2497,-2.2189,-2.2067,-2.1816,-2.1556,-2.1512,-2.1501,-2.1362,-2.1383,-2.1243,-2.12,-2.1017,-2.0899,-2.0813,-2.0662,4.2158,4.1578,4.1855,4.22,4.2522,4.2035,4.1618,4.1133,4.0529,4.0216,3.9959,3.986,3.9838,3.97,3.9685,3.9378,3.8997,3.8732,3.8272,3.7518,3.6379,3.5596,3.4532,3.3102,3.1793,3.0425,2.9071,2.7548,2.6247,2.5512,2.4729,2.4463,2.4291,2.3945,2.3751,2.3005,2.2278,2.1519,1.9736,1.8657,1.771,1.6176,1.4818,1.3639,1.23,1.0756,0.9236,0.7323,0.6193,0.4865,0.2991,0.0186,-0.2795,-0.4843,-0.6346,-0.786,-0.9551,-1.1212,-1.2882,-1.4547,-1.5838,-1.6567,-1.7325,-1.7989,-1.8005,-1.7916,-1.7916,-1.8054,-1.8433,-1.8677,-1.8871,-1.9005,-1.8988,-1.9147,-1.9516,-1.9876,-2.006,-2.006,-2.0069,-2.04,-2.0272,-2.0505,-2.08,-2.1044,-2.0967,-2.1116,-2.1432,-2.1696,-2.172,-2.2141,-2.2273,-2.2373,-2.2417,-2.2514,-2.2482,-2.2439,-2.2395,-2.232,-2.2234,-2.2251,-2.2244,-2.1785,-2.1579,-2.1351,-2.1297,-2.1265,-2.1265,-2.1276,-2.1276,-2.1265,-2.1254,-2.1211,-2.1103,-2.0985,-2.0877,4.1234,4.0884,4.1269,4.1732,4.1988,4.1882,4.1308,4.0509,4.0059,3.9745,3.9328,3.956,3.9465,3.9304,3.9353,3.9042,3.8728,3.8133,3.7725,3.6616,3.5125,3.4158,3.3006,3.1483,3.0251,2.8685,2.7285,2.6637,2.5815,2.506,2.4602,2.4646,2.4313,2.3793,2.3415,2.2522,2.184,2.0778,1.9535,1.8271,1.7087,1.5695,1.4728,1.356,1.201,1.0483,0.896,0.7236,0.5908,0.3798,0.17,-0.132,-0.3576,-0.527,-0.6983,-0.8511,-1.0409,-1.2107,-1.3627,-1.5494,-1.6255,-1.6838,-1.7803,-1.8176,-1.8168,-1.8168,-1.8168,-1.8363,-1.8557,-1.8735,-1.893,-1.9108,-1.9099,-1.9108,-1.948,-1.9488,-1.9488,-1.948,-1.9851,-2.0214,-2.0105,-1.997,-2.0253,-2.0315,-2.044,-2.0402,-2.0696,-2.0769,-2.1038,-2.1686,-2.1988,-2.2256,-2.2305,-2.2426,-2.2686,-2.2665,-2.2611,-2.2546,-2.2449,-2.2309,-2.2137,-2.1846,-2.1763,-2.1405,-2.1351,-2.1362,-2.1308,-2.1276,-2.1276,-2.1297,-2.1265,-2.1254,-2.119,-2.1093,-2.1082,4.0248,3.9939,4.0384,4.0654,4.0853,4.1128,4.0997,4.0509,4.0059,3.9745,3.9207,3.8865,3.8815,3.8725,3.8283,3.8084,3.7553,3.7065,3.6137,3.4991,3.4095,3.3011,3.1597,3.0204,2.8818,2.7561,2.633,2.56,2.5207,2.4602,2.4302,2.4129,2.3396,2.3272,2.3303,2.2418,2.1008,2.0087,1.8972,1.7697,1.6928,1.5739,1.4783,1.3193,1.1205,0.9833,0.8266,0.6502,0.5344,0.3429,0.0381,-0.266,-0.4371,-0.5697,-0.7223,-0.9319,-1.1042,-1.2539,-1.4046,-1.5737,-1.6486,-1.6868,-1.7429,-1.8192,-1.8192,-1.8208,-1.8217,-1.8233,-1.842,-1.8395,-1.8574,-1.8744,-1.8735,-1.8955,-1.9345,-1.8989,-1.8802,-1.8972,-1.9142,-1.9133,-1.8905,-1.9031,-1.919,-1.9481,-1.9621,-1.976,-2.0417,-2.0677,-2.0696,-2.1194,-2.17,-2.1944,-2.2184,-2.2521,-2.2729,-2.2663,-2.2631,-2.2751,-2.2643,-2.2289,-2.2107,-2.2251,-2.2013,-2.162,-2.1523,-2.1523,-2.1437,-2.1394,-2.133,-2.134,-2.1297,-2.1254,-2.1211,-2.1179,-2.1157]},{"header":{"parameterUnit":"m.s-1","parameterCategory":1,"la1":31.0,"la2":29.5877,"lo1":-88.7671,"lo2":-86.6584,"dy":0.0162,"dx":0.0185,"nx":115,"ny":88,"refTime":"2024-03-23T06:00:00:Z","depth":0,"parameterNumber":3,"parameterNumberName":"V-component_of_WINDS"},"data":[0.0,0.0,0.0,0.0,0.0,0.0,0.0,0.0,0.0,0.0,0.0,0.0,0.0,0.0,0.0,0.0,0.0,0.0,0.0,0.0,0.0,0.0,0.0,0.0,0.0,0.0,0.0,0.0,0.0,0.0,0.0,0.0,0.0,0.0,0.0,0.0,0.0,0.0,0.0,0.0,0.0,-2.3594,-2.3364,-2.2668,-2.1876,-2.1097,-2.0335,0.0,0.0,0.0,0.0,0.0,0.0,0.0,0.0,0.0,0.0,0.0,0.0,0.0,0.0,0.0,0.0,0.0,0.0,0.0,0.0,0.0,0.0,0.0,0.0,0.0,0.0,0.0,0.0,0.0,0.0,0.0,0.0,0.0,0.0,0.0,0.0,0.0,0.0,0.0,0.0,0.0,0.0,0.0,0.0,0.0,0.0,0.0,0.0,0.0,0.0,0.0,0.0,0.0,0.0,0.0,0.0,0.0,0.0,0.0,0.0,0.0,0.0,0.0,0.0,0.0,0.0,0.0,0.0,0.0,0.0,0.0,0.0,0.0,0.0,0.0,0.0,0.0,0.0,0.0,0.0,0.0,0.0,0.0,0.0,0.0,0.0,0.0,0.0,0.0,0.0,0.0,0.0,0.0,0.0,0.0,0.0,0.0,0.0,0.0,0.0,0.0,0.0,0.0,0.0,0.0,0.0,0.0,0.0,0.0,0.0,-2.3358,-2.2607,-2.1798,-2.1078,-2.0463,0.0,0.0,0.0,0.0,0.0,0.0,0.0,0.0,0.0,0.0,0.0,0.0,0.0,0.0,0.0,0.0,0.0,0.0,0.0,0.0,0.0,0.0,0.0,0.0,0.0,0.0,0.0,0.0,0.0,0.0,0.0,0.0,0.0,0.0,0.0,0.0,0.0,0.0,0.0,0.0,0.0,0.0,0.0,0.0,0.0,0.0,0.0,0.0,0.0,0.0,0.0,0.0,0.0,0.0,0.0,0.0,0.0,0.0,0.0,0.0,0.0,0.0,0.0,0.0,0.0,0.0,0.0,0.0,0.0,0.0,0.0,0.0,0.0,0.0,0.0,0.0,0.0,0.0,0.0,0.0,0.0,0.0,0.0,0.0,0.0,0.0,0.0,0.0,0.0,0.0,0.0,0.0,0.0,0.0,0.0,0.0,0.0,0.0,0.0,0.0,0.0,0.0,0.0,0.0,0.0,0.0,0.0,0.0,0.0,0.0,-2.3257,-2.253,-2.1718,-2.1198,-2.1095,0.0,0.0,0.0,0.0,0.0,0.0,0.0,0.0,0.0,0.0,0.0,0.0,0.0,0.0,0.0,0.0,0.0,0.0,0.0,0.0,0.0,0.0,0.0,0.0,0.0,0.0,0.0,0.0,0.0,0.0,0.0,0.0,0.0,0.0,0.0,0.0,0.0,0.0,0.0,0.0,0.0,0.0,0.0,0.0,0.0,0.0,0.0,0.0,0.0,0.0,0.0,0.0,0.0,0.0,0.0,0.0,0.0,0.0,0.0,0.0,0.0,0.0,0.0,0.0,0.0,0.0,0.0,0.0,0.0,0.0,0.0,0.0,0.0,0.0,0.0,0.0,0.0,0.0,0.0,0.0,0.0,0.0,0.0,0.0,0.0,0.0,0.0,0.0,0.0,0.0,0.0,0.0,0.0,0.0,0.0,0.0,0.0,0.0,0.0,0.0,0.0,0.0,0.0,0.0,0.0,0.0,0.0,0.0,0.0,0.0,-2.337,-2.2948,-2.1816,-2.1231,-2.1403,-2.0607,0.0,0.0,0.0,0.0,0.0,0.0,0.0,0.0,0.0,0.0,0.0,0.0,0.0,0.0,0.0,0.0,0.0,0.0,0.0,0.0,0.0,0.0,0.0,0.0,0.0,0.0,0.0,0.0,0.0,0.0,0.0,0.0,0.0,0.0,0.0,0.0,0.0,0.0,0.0,0.0,0.0,0.0,0.0,0.0,0.0,0.0,0.0,0.0,0.0,0.0,0.0,0.0,0.0,0.0,0.0,0.0,0.0,0.0,0.0,0.0,0.0,0.0,0.0,0.0,0.0,0.0,0.0,0.0,0.0,0.0,0.0,0.0,0.0,0.0,0.0,0.0,0.0,0.0,0.0,0.0,0.0,0.0,0.0,0.0,0.0,0.0,0.0,0.0,0.0,0.0,0.0,0.0,0.0,0.0,0.0,0.0,0.0,0.0,0.0,0.0,0.0,0.0,0.0,0.0,0.0,0.0,0.0,0.0,0.0,-2.3328,-2.315,-2.1789,-2.1195,-2.1492,-2.0732,0.0,0.0,0.0,0.0,0.0,0.0,0.0,0.0,0.0,0.0,0.0,0.0,0.0,0.0,0.0,0.0,0.0,0.0,0.0,0.0,0.0,0.0,0.0,0.0,0.0,0.0,0.0,0.0,0.0,0.0,0.0,0.0,0.0,0.0,0.0,0.0,0.0,0.0,0.0,0.0,0.0,0.0,0.0,0.0,0.0,0.0,0.0,0.0,0.0,0.0,0.0,0.0,0.0,0.0,0.0,0.0,0.0,0.0,0.0,0.0,0.0,0.0,0.0,0.0,0.0,0.0,0.0,0.0,0.0,0.0,0.0,0.0,0.0,0.0,0.0,0.0,0.0,0.0,0.0,0.0,0.0,0.0,0.0,0.0,0.0,0.0,0.0,0.0,0.0,0.0,0.0,0.0,0.0,0.0,0.0,0.0,0.0,0.0,0.0,0.0,0.0,0.0,0.0,0.0,0.0,0.0,0.0,0.0,0.0,-2.2283,-2.2223,-2.0915,-2.0805,-2.2001,-2.1581,0.0,0.0,0.0,0.0,0.0,0.0,0.0,0.0,0.0,0.0,0.0,0.0,0.0,0.0,0.0,0.0,0.0,0.0,0.0,0.0,0.0,0.0,0.0,0.0,0.0,0.0,0.0,0.0,0.0,0.0,0.0,0.0,0.0,0.0,0.0,0.0,0.0,0.0,0.0,0.0,0.0,0.0,0.0,0.0,0.0,0.0,0.0,0.0,0.0,0.0,0.0,0.0,0.0,0.0,0.0,0.0,0.0,0.0,0.0,0.0,0.0,0.0,0.0,0.0,0.0,0.0,0.0,0.0,0.0,0.0,0.0,0.0,0.0,0.0,0.0,0.0,0.0,0.0,0.0,0.0,0.0,0.0,0.0,0.0,0.0,0.0,0.0,0.0,0.0,0.0,0.0,0.0,0.0,0.0,0.0,0.0,0.0,0.0,0.0,0.0,0.0,0.0,0.0,0.0,0.0,0.0,0.0,0.0,0.0,-2.2154,-2.2294,-2.0831,-2.0657,-2.2096,-2.1323,0.0,0.0,0.0,0.0,0.0,0.0,0.0,0.0,0.0,0.0,0.0,0.0,0.0,0.0,0.0,0.0,0.0,0.0,0.0,0.0,0.0,0.0,0.0,0.0,0.0,0.0,0.0,0.0,0.0,0.0,0.0,0.0,0.0,0.0,0.0,0.0,0.0,0.0,0.0,0.0,0.0,0.0,0.0,0.0,0.0,0.0,0.0,0.0,0.0,0.0,0.0,0.0,0.0,0.0,0.0,0.0,0.0,0.0,0.0,0.0,0.0,0.0,0.0,0.0,0.0,0.0,0.0,0.0,0.0,0.0,0.0,0.0,0.0,0.0,0.0,0.0,0.0,0.0,0.0,0.0,0.0,0.0,0.0,0.0,0.0,0.0,0.0,0.0,0.0,0.0,0.0,0.0,0.0,0.0,0.0,0.0,0.0,0.0,0.0,0.0,0.0,0.0,0.0,0.0,0.0,0.0,0.0,0.0,-2.2244,-2.2293,-2.2768,-2.1084,-2.0809,-2.2402,-2.1167,0.0,0.0,0.0,0.0,0.0,0.0,0.0,0.0,0.0,0.0,0.0,0.0,0.0,0.0,0.0,0.0,0.0,0.0,0.0,0.0,0.0,0.0,0.0,0.0,0.0,0.0,0.0,0.0,0.0,0.0,0.0,0.0,0.0,0.0,0.0,0.0,0.0,0.0,0.0,0.0,0.0,0.0,0.0,0.0,0.0,0.0,0.0,0.0,0.0,0.0,0.0,0.0,0.0,0.0,0.0,0.0,0.0,0.0,0.0,0.0,0.0,0.0,0.0,0.0,0.0,0.0,0.0,0.0,0.0,0.0,0.0,0.0,0.0,0.0,0.0,0.0,0.0,0.0,0.0,0.0,0.0,0.0,0.0,0.0,0.0,0.0,0.0,0.0,0.0,0.0,0.0,0.0,0.0,0.0,0.0,0.0,0.0,0.0,0.0,0.0,0.0,0.0,0.0,0.0,0.0,0.0,0.0,-2.2686,-2.2071,-2.2096,-2.2755,-2.1476,-2.1494,-2.3059,-2.2539,0.0,0.0,0.0,0.0,0.0,0.0,0.0,0.0,0.0,0.0,0.0,0.0,0.0,0.0,0.0,0.0,0.0,0.0,0.0,0.0,0.0,0.0,0.0,0.0,0.0,0.0,0.0,0.0,0.0,0.0,0.0,0.0,0.0,0.0,0.0,0.0,0.0,0.0,0.0,0.0,0.0,0.0,0.0,0.0,0.0,0.0,0.0,0.0,0.0,0.0,0.0,0.0,0.0,0.0,0.0,0.0,0.0,0.0,0.0,0.0,0.0,0.0,0.0,0.0,0.0,0.0,0.0,0.0,0.0,0.0,0.0,0.0,0.0,0.0,0.0,0.0,0.0,0.0,0.0,0.0,0.0,0.0,0.0,0.0,0.0,0.0,0.0,0.0,0.0,0.0,0.0,0.0,0.0,0.0,0.0,0.0,0.0,0.0,0.0,0.0,0.0,0.0,0.0,0.0,0.0,0.0,-2.2676,-2.266,-2.2021,-2.2012,-2.2686,-2.1487,-2.1569,-2.3207,-2.3267,0.0,0.0,0.0,0.0,0.0,0.0,0.0,0.0,0.0,0.0,0.0,0.0,0.0,0.0,0.0,0.0,0.0,0.0,0.0,0.0,0.0,0.0,0.0,0.0,0.0,0.0,0.0,0.0,0.0,0.0,0.0,0.0,0.0,0.0,0.0,0.0,0.0,0.0,0.0,0.0,0.0,0.0,0.0,0.0,0.0,0.0,0.0,0.0,0.0,0.0,0.0,0.0,0.0,0.0,0.0,0.0,0.0,0.0,0.0,0.0,0.0,0.0,0.0,0.0,0.0,0.0,0.0,0.0,0.0,0.0,0.0,0.0,0.0,0.0,0.0,0.0,0.0,0.0,0.0,0.0,0.0,0.0,0.0,0.0,0.0,0.0,0.0,0.0,0.0,0.0,0.0,0.0,0.0,0.0,0.0,0.0,0.0,0.0,0.0,0.0,0.0,0.0,0.0,0.0,0.0,0.0,-2.276,-2.3055,-2.2341,-2.2341,-2.3047,-2.2037,-2.2056,-2.3422,0.0,0.0,0.0,0.0,0.0,0.0,0.0,0.0,0.0,0.0,0.0,0.0,0.0,0.0,0.0,0.0,0.0,0.0,0.0,0.0,0.0,0.0,0.0,0.0,0.0,0.0,0.0,0.0,0.0,0.0,0.0,0.0,0.0,0.0,0.0,0.0,0.0,0.0,0.0,0.0,0.0,0.0,0.0,0.0,0.0,0.0,0.0,0.0,0.0,0.0,0.0,0.0,0.0,0.0,0.0,0.0,0.0,0.0,0.0,0.0,0.0,0.0,0.0,0.0,0.0,0.0,0.0,0.0,0.0,0.0,0.0,0.0,0.0,0.0,0.0,0.0,0.0,0.0,0.0,0.0,0.0,0.0,0.0,0.0,0.0,0.0,0.0,0.0,0.0,0.0,0.0,0.0,0.0,0.0,0.0,0.0,0.0,0.0,0.0,0.0,0.0,0.0,0.0,0.0,0.0,0.0,0.0,-2.3185,-2.4291,-2.3268,-2.3261,-2.455,-2.388,-2.37,-2.4068,0.0,0.0,0.0,0.0,0.0,0.0,0.0,0.0,0.0,0.0,0.0,0.0,0.0,0.0,0.0,0.0,0.0,0.0,0.0,0.0,0.0,0.0,0.0,0.0,0.0,0.0,0.0,0.0,0.0,0.0,0.0,0.0,0.0,0.0,0.0,0.0,0.0,0.0,0.0,0.0,0.0,0.0,0.0,0.0,0.0,0.0,0.0,0.0,0.0,0.0,0.0,0.0,0.0,0.0,0.0,0.0,0.0,0.0,0.0,0.0,0.0,0.0,0.0,0.0,0.0,0.0,0.0,0.0,0.0,0.0,0.0,0.0,0.0,0.0,0.0,0.0,0.0,0.0,0.0,0.0,0.0,0.0,0.0,0.0,0.0,0.0,0.0,0.0,0.0,0.0,0.0,0.0,0.0,0.0,0.0,0.0,0.0,0.0,0.0,0.0,0.0,0.0,0.0,0.0,0.0,0.0,-2.246,-2.2794,-2.334,-2.3316,-2.3522,-2.4023,-2.3961,-2.3811,-2.3492,0.0,0.0,0.0,0.0,0.0,0.0,0.0,0.0,0.0,0.0,0.0,0.0,0.0,0.0,0.0,0.0,0.0,0.0,0.0,0.0,0.0,0.0,0.0,0.0,0.0,0.0,0.0,0.0,0.0,0.0,0.0,0.0,0.0,0.0,0.0,0.0,0.0,0.0,0.0,0.0,0.0,0.0,0.0,0.0,0.0,0.0,0.0,0.0,0.0,0.0,0.0,0.0,0.0,0.0,0.0,0.0,0.0,0.0,0.0,0.0,0.0,0.0,0.0,0.0,0.0,0.0,0.0,0.0,0.0,0.0,0.0,0.0,0.0,0.0,0.0,0.0,0.0,0.0,0.0,0.0,0.0,0.0,0.0,0.0,0.0,0.0,0.0,0.0,0.0,0.0,0.0,0.0,0.0,0.0,0.0,0.0,0.0,0.0,0.0,0.0,0.0,0.0,0.0,0.0,0.0,-2.2411,-2.2377,-2.2711,-2.3289,-2.354,-2.3682,-2.3769,-2.3671,-2.3488,-2.3215,0.0,0.0,0.0,0.0,0.0,0.0,0.0,0.0,0.0,0.0,0.0,0.0,0.0,0.0,0.0,0.0,0.0,0.0,0.0,0.0,0.0,0.0,0.0,0.0,0.0,0.0,0.0,0.0,0.0,0.0,0.0,0.0,0.0,0.0,0.0,0.0,0.0,0.0,0.0,0.0,0.0,0.0,0.0,0.0,0.0,0.0,0.0,0.0,0.0,0.0,0.0,0.0,0.0,0.0,0.0,0.0,0.0,0.0,0.0,0.0,0.0,0.0,0.0,0.0,0.0,0.0,0.0,0.0,0.0,0.0,0.0,0.0,0.0,0.0,0.0,0.0,0.0,0.0,0.0,0.0,0.0,0.0,0.0,0.0,0.0,0.0,0.0,0.0,0.0,0.0,0.0,0.0,0.0,0.0,0.0,0.0,0.0,0.0,0.0,0.0,0.0,0.0,0.0,0.0,0.0,0.0,-2.2349,-2.3371,-2.5174,-2.4117,-2.3837,-2.4425,-2.3249,-2.2973,-2.3695,0.0,0.0,0.0,0.0,0.0,0.0,0.0,0.0,0.0,0.0,0.0,0.0,0.0,0.0,0.0,0.0,0.0,0.0,0.0,0.0,0.0,0.0,0.0,0.0,0.0,0.0,0.0,0.0,0.0,0.0,0.0,0.0,0.0,0.0,0.0,0.0,0.0,0.0,0.0,0.0,0.0,0.0,0.0,0.0,0.0,0.0,0.0,0.0,0.0,0.0,0.0,0.0,0.0,0.0,0.0,0.0,0.0,0.0,0.0,0.0,0.0,0.0,0.0,0.0,0.0,0.0,0.0,0.0,0.0,0.0,0.0,0.0,0.0,0.0,0.0,0.0,0.0,0.0,0.0,0.0,0.0,0.0,0.0,0.0,0.0,0.0,0.0,0.0,0.0,0.0,0.0,0.0,0.0,0.0,0.0,0.0,0.0,0.0,0.0,0.0,0.0,0.0,0.0,0.0,0.0,0.0,-2.2507,-2.2671,-2.3384,-2.338,-2.3985,-2.5164,-2.3925,-2.3335,-2.3568,0.0,0.0,0.0,0.0,0.0,0.0,0.0,0.0,0.0,0.0,0.0,0.0,0.0,0.0,0.0,0.0,0.0,0.0,0.0,0.0,0.0,0.0,0.0,0.0,0.0,0.0,0.0,0.0,0.0,0.0,0.0,0.0,0.0,0.0,0.0,0.0,0.0,0.0,0.0,0.0,0.0,0.0,0.0,0.0,0.0,0.0,0.0,0.0,0.0,0.0,0.0,0.0,0.0,0.0,0.0,0.0,0.0,0.0,0.0,0.0,0.0,0.0,0.0,0.0,0.0,0.0,0.0,0.0,0.0,0.0,0.0,0.0,0.0,0.0,0.0,0.0,0.0,0.0,0.0,0.0,0.0,0.0,0.0,0.0,0.0,0.0,0.0,0.0,0.0,0.0,0.0,0.0,0.0,0.0,0.0,0.0,0.0,0.0,0.0,0.0,0.0,0.0,0.0,0.0,0.0,0.0,-2.2757,-2.2593,-2.2862,-2.3474,-2.4273,-2.5103,-2.4049,-2.3391,0.0,0.0,0.0,0.0,0.0,0.0,0.0,0.0,0.0,0.0,0.0,0.0,0.0,0.0,0.0,0.0,0.0,0.0,0.0,0.0,0.0,0.0,0.0,0.0,0.0,0.0,0.0,0.0,0.0,0.0,0.0,0.0,0.0,0.0,0.0,0.0,0.0,0.0,0.0,0.0,0.0,0.0,0.0,0.0,0.0,0.0,0.0,0.0,0.0,0.0,0.0,0.0,0.0,0.0,0.0,0.0,0.0,0.0,0.0,0.0,0.0,0.0,0.0,0.0,0.0,0.0,0.0,0.0,0.0,0.0,0.0,0.0,0.0,0.0,0.0,0.0,0.0,0.0,0.0,0.0,0.0,0.0,0.0,0.0,0.0,0.0,0.0,0.0,0.0,0.0,0.0,0.0,0.0,0.0,0.0,0.0,0.0,0.0,0.0,0.0,0.0,0.0,0.0,0.0,0.0,0.0,0.0,-2.3201,-2.3412,-2.3984,-2.451,-2.4678,-2.4277,-2.3608,-2.3047,0.0,0.0,0.0,0.0,0.0,0.0,0.0,0.0,0.0,0.0,0.0,0.0,0.0,0.0,0.0,0.0,0.0,0.0,0.0,0.0,0.0,0.0,0.0,0.0,0.0,0.0,0.0,0.0,0.0,0.0,0.0,0.0,0.0,0.0,0.0,0.0,0.0,0.0,0.0,0.0,0.0,0.0,0.0,0.0,0.0,0.0,0.0,0.0,0.0,0.0,0.0,0.0,0.0,0.0,0.0,0.0,0.0,0.0,0.0,0.0,0.0,0.0,0.0,0.0,0.0,0.0,0.0,0.0,0.0,0.0,0.0,0.0,0.0,0.0,0.0,0.0,0.0,0.0,0.0,0.0,0.0,0.0,0.0,0.0,0.0,0.0,0.0,0.0,0.0,0.0,0.0,0.0,0.0,0.0,0.0,0.0,0.0,0.0,0.0,0.0,0.0,0.0,0.0,0.0,0.0,0.0,0.0,-2.4709,-2.4875,-2.4846,-2.4944,-2.5673,-2.6906,-2.4979,-2.4337,-2.5203,0.0,0.0,0.0,0.0,0.0,0.0,0.0,0.0,0.0,0.0,0.0,0.0,0.0,0.0,0.0,0.0,0.0,0.0,0.0,0.0,0.0,0.0,0.0,0.0,0.0,0.0,0.0,0.0,0.0,0.0,0.0,0.0,0.0,0.0,0.0,0.0,0.0,0.0,0.0,0.0,0.0,0.0,0.0,0.0,0.0,0.0,0.0,0.0,0.0,0.0,0.0,0.0,0.0,0.0,0.0,0.0,0.0,0.0,0.0,0.0,0.0,0.0,0.0,0.0,0.0,0.0,0.0,0.0,0.0,0.0,0.0,0.0,0.0,0.0,0.0,0.0,0.0,0.0,0.0,0.0,0.0,0.0,0.0,0.0,0.0,0.0,0.0,0.0,0.0,0.0,0.0,0.0,0.0,0.0,0.0,0.0,0.0,0.0,0.0,0.0,0.0,0.0,0.0,0.0,0.0,0.0,-2.6026,-2.6417,-2.6372,-2.5917,-2.6184,-2.7382,-2.618,-2.5547,-2.5681,0.0,0.0,0.0,0.0,0.0,0.0,0.0,0.0,0.0,0.0,0.0,0.0,0.0,0.0,0.0,0.0,0.0,0.0,0.0,0.0,0.0,0.0,0.0,0.0,0.0,0.0,0.0,0.0,0.0,0.0,0.0,0.0,0.0,0.0,0.0,0.0,0.0,0.0,0.0,0.0,0.0,0.0,0.0,0.0,0.0,0.0,0.0,0.0,0.0,0.0,0.0,0.0,0.0,0.0,0.0,0.0,0.0,0.0,0.0,0.0,0.0,0.0,0.0,0.0,0.0,0.0,0.0,0.0,0.0,0.0,0.0,0.0,0.0,0.0,0.0,0.0,0.0,0.0,0.0,0.0,0.0,0.0,0.0,0.0,0.0,0.0,0.0,0.0,0.0,0.0,0.0,0.0,0.0,0.0,0.0,0.0,0.0,0.0,0.0,0.0,0.0,0.0,0.0,0.0,0.0,0.0,0.0,-2.7869,-2.8487,-2.7336,-2.6645,-2.6339,-2.7135,-2.6654,-2.4736,0.0,0.0,0.0,0.0,0.0,0.0,0.0,0.0,0.0,0.0,0.0,0.0,0.0,0.0,0.0,0.0,0.0,0.0,0.0,0.0,0.0,0.0,0.0,0.0,0.0,0.0,0.0,0.0,0.0,0.0,0.0,0.0,0.0,0.0,0.0,0.0,0.0,0.0,0.0,0.0,0.0,0.0,0.0,0.0,0.0,0.0,0.0,0.0,0.0,0.0,0.0,0.0,0.0,0.0,0.0,0.0,0.0,0.0,0.0,0.0,0.0,0.0,0.0,0.0,0.0,0.0,0.0,0.0,0.0,0.0,0.0,0.0,0.0,0.0,0.0,0.0,0.0,0.0,0.0,0.0,0.0,0.0,0.0,0.0,0.0,0.0,0.0,0.0,0.0,0.0,0.0,0.0,0.0,0.0,0.0,0.0,0.0,0.0,0.0,0.0,0.0,0.0,0.0,0.0,0.0,0.0,-2.7155,-2.8136,-2.9375,-2.9643,-2.9832,-3.0068,-2.9297,-2.8323,-2.7234,0.0,0.0,0.0,0.0,0.0,0.0,0.0,0.0,0.0,0.0,0.0,0.0,0.0,0.0,0.0,0.0,0.0,0.0,0.0,0.0,0.0,0.0,0.0,0.0,0.0,0.0,0.0,0.0,0.0,0.0,0.0,0.0,0.0,0.0,0.0,0.0,0.0,0.0,0.0,0.0,0.0,0.0,0.0,0.0,0.0,0.0,0.0,0.0,0.0,0.0,0.0,0.0,0.0,0.0,0.0,0.0,0.0,0.0,0.0,0.0,0.0,0.0,0.0,0.0,0.0,0.0,0.0,0.0,0.0,0.0,0.0,0.0,0.0,0.0,0.0,0.0,0.0,0.0,0.0,0.0,0.0,0.0,0.0,0.0,0.0,0.0,0.0,0.0,0.0,0.0,0.0,0.0,0.0,0.0,0.0,0.0,0.0,0.0,0.0,0.0,0.0,0.0,0.0,0.0,0.0,0.0,-2.7945,-2.9247,-3.0472,-3.1694,-3.2453,-3.2719,-3.1694,-3.0185,-2.8148,0.0,0.0,0.0,0.0,0.0,0.0,0.0,0.0,0.0,0.0,0.0,0.0,0.0,0.0,0.0,0.0,0.0,0.0,0.0,0.0,0.0,0.0,0.0,0.0,0.0,0.0,0.0,0.0,0.0,0.0,0.0,0.0,0.0,0.0,0.0,0.0,0.0,0.0,0.0,0.0,0.0,0.0,0.0,0.0,0.0,0.0,0.0,0.0,-2.4768,0.0,0.0,0.0,0.0,0.0,0.0,0.0,0.0,0.0,0.0,0.0,0.0,0.0,0.0,0.0,0.0,0.0,0.0,0.0,0.0,0.0,0.0,0.0,0.0,0.0,0.0,0.0,0.0,0.0,0.0,0.0,0.0,0.0,0.0,0.0,0.0,0.0,0.0,0.0,0.0,0.0,0.0,0.0,0.0,0.0,0.0,0.0,0.0,0.0,0.0,0.0,0.0,0.0,0.0,0.0,-2.5883,-2.6677,-2.8926,-3.066,-3.1674,-3.3556,-3.4542,-3.4453,-3.3873,-3.1855,-2.8266,0.0,0.0,0.0,0.0,0.0,0.0,0.0,0.0,0.0,0.0,0.0,0.0,0.0,0.0,0.0,0.0,0.0,0.0,0.0,0.0,0.0,0.0,0.0,0.0,0.0,0.0,0.0,0.0,0.0,0.0,0.0,0.0,0.0,0.0,0.0,0.0,0.0,0.0,0.0,0.0,0.0,0.0,0.0,0.0,0.0,0.0,0.0,-2.5376,-2.5485,0.0,0.0,0.0,0.0,0.0,0.0,0.0,0.0,0.0,0.0,0.0,0.0,0.0,0.0,0.0,0.0,0.0,0.0,0.0,0.0,0.0,0.0,0.0,0.0,0.0,0.0,0.0,-1.5155,0.0,-1.575,0.0,0.0,0.0,0.0,0.0,0.0,0.0,0.0,0.0,0.0,0.0,0.0,0.0,0.0,0.0,0.0,0.0,0.0,0.0,0.0,0.0,0.0,0.0,0.0,-2.5621,-2.6254,-2.7838,-2.9373,-3.1279,-3.3533,-3.4881,-3.5791,-3.6114,-3.4291,-3.1929,-2.9131,0.0,0.0,0.0,0.0,0.0,0.0,0.0,0.0,0.0,0.0,0.0,0.0,0.0,0.0,0.0,0.0,0.0,0.0,0.0,0.0,0.0,0.0,0.0,0.0,0.0,0.0,0.0,0.0,0.0,0.0,0.0,0.0,0.0,0.0,0.0,0.0,0.0,0.0,0.0,0.0,0.0,0.0,0.0,0.0,0.0,0.0,0.0,-2.555,0.0,0.0,0.0,0.0,0.0,0.0,0.0,0.0,0.0,0.0,0.0,0.0,0.0,0.0,0.0,0.0,0.0,0.0,0.0,0.0,0.0,0.0,0.0,0.0,0.0,0.0,0.0,0.0,-1.54,-1.5455,-1.554,0.0,0.0,0.0,0.0,0.0,0.0,0.0,0.0,0.0,0.0,0.0,0.0,0.0,0.0,0.0,0.0,0.0,0.0,0.0,0.0,0.0,0.0,0.0,-2.5909,-2.6076,-2.7051,-2.8825,-3.071,-3.2695,-3.4756,-3.6255,-3.7096,-3.7074,-3.5769,-3.3865,-3.1422,0.0,0.0,0.0,0.0,0.0,0.0,0.0,0.0,0.0,0.0,0.0,0.0,0.0,0.0,0.0,0.0,0.0,0.0,0.0,0.0,0.0,0.0,0.0,0.0,0.0,0.0,0.0,0.0,0.0,0.0,0.0,0.0,0.0,0.0,0.0,0.0,0.0,-2.5198,-2.5269,0.0,0.0,0.0,0.0,0.0,0.0,0.0,0.0,-2.5662,-2.555,0.0,0.0,0.0,0.0,0.0,0.0,0.0,0.0,0.0,0.0,0.0,0.0,0.0,0.0,0.0,0.0,0.0,0.0,0.0,0.0,0.0,0.0,0.0,0.0,0.0,0.0,0.0,-1.5523,-1.5548,-1.5209,0.0,0.0,0.0,0.0,0.0,0.0,0.0,0.0,0.0,0.0,0.0,0.0,0.0,0.0,0.0,0.0,0.0,0.0,0.0,0.0,0.0,0.0,0.0,-2.6106,-2.684,-2.806,-2.9734,-3.2332,-3.4399,-3.5768,-3.7483,-3.8257,-3.8077,-3.751,-3.6199,-3.3982,0.0,0.0,0.0,0.0,0.0,0.0,0.0,0.0,0.0,0.0,0.0,0.0,0.0,0.0,0.0,0.0,0.0,0.0,0.0,0.0,0.0,0.0,0.0,0.0,0.0,0.0,0.0,0.0,0.0,0.0,0.0,0.0,0.0,0.0,0.0,0.0,0.0,-2.5543,-2.5975,-2.8137,-2.983,0.0,0.0,0.0,0.0,0.0,0.0,0.0,-2.6576,-2.6663,-2.6172,0.0,0.0,0.0,0.0,0.0,0.0,0.0,0.0,0.0,0.0,0.0,0.0,0.0,0.0,0.0,0.0,0.0,0.0,0.0,0.0,0.0,0.0,0.0,0.0,0.0,-1.5276,-1.5394,-1.5732,0.0,0.0,0.0,0.0,0.0,0.0,0.0,0.0,0.0,0.0,0.0,0.0,0.0,0.0,0.0,0.0,0.0,0.0,0.0,0.0,0.0,0.0,0.0,0.0,-2.7473,-2.8951,-3.0958,-3.3316,-3.5345,-3.7123,-3.8238,-3.907,-3.9546,-3.8702,-3.7299,-3.5281,-3.2729,0.0,0.0,0.0,0.0,0.0,0.0,0.0,0.0,0.0,0.0,0.0,0.0,0.0,0.0,0.0,0.0,0.0,0.0,0.0,0.0,0.0,0.0,0.0,0.0,0.0,0.0,0.0,0.0,0.0,0.0,0.0,0.0,0.0,0.0,0.0,0.0,-2.7,-2.8905,-3.0879,-3.185,-3.1234,0.0,0.0,0.0,0.0,0.0,-2.875,-2.781,-2.7166,-2.7764,-2.6679,0.0,0.0,0.0,0.0,0.0,0.0,0.0,0.0,0.0,0.0,0.0,0.0,0.0,0.0,0.0,0.0,0.0,0.0,0.0,0.0,0.0,0.0,0.0,0.0,-1.5637,-1.5667,-1.5854,-1.5609,-1.5667,0.0,0.0,0.0,0.0,-1.6136,0.0,0.0,0.0,0.0,0.0,0.0,0.0,0.0,0.0,0.0,0.0,0.0,0.0,0.0,0.0,0.0,0.0,-2.7879,-2.9731,-3.2368,-3.4526,-3.6654,-3.8608,-3.9456,-3.9925,-3.995,-3.891,-3.7333,-3.5411,0.0,0.0,0.0,0.0,0.0,0.0,0.0,0.0,0.0,0.0,0.0,0.0,0.0,0.0,0.0,0.0,0.0,0.0,0.0,0.0,0.0,0.0,0.0,0.0,0.0,0.0,0.0,0.0,0.0,0.0,0.0,0.0,0.0,0.0,0.0,0.0,0.0,0.0,-3.0224,-3.1828,-3.2864,-3.3164,-3.3064,-3.2438,-3.0963,-3.003,-2.9484,-2.9492,-2.9179,-2.8906,-2.8934,0.0,0.0,0.0,0.0,0.0,0.0,0.0,0.0,0.0,0.0,0.0,0.0,0.0,0.0,0.0,0.0,0.0,0.0,0.0,0.0,0.0,0.0,0.0,0.0,0.0,0.0,-1.5942,-1.5885,-1.5885,-1.5913,-1.597,0.0,0.0,0.0,-1.6052,-1.6843,0.0,0.0,0.0,0.0,0.0,0.0,0.0,0.0,0.0,0.0,0.0,0.0,0.0,0.0,0.0,0.0,-2.8379,-3.0559,-3.3551,-3.5654,-3.7747,-3.973,-4.0405,-4.0539,-4.0191,-3.9191,-3.7527,-3.5086,0.0,0.0,0.0,0.0,0.0,0.0,0.0,0.0,0.0,0.0,0.0,0.0,0.0,0.0,0.0,0.0,0.0,0.0,0.0,0.0,0.0,0.0,0.0,0.0,0.0,0.0,0.0,0.0,0.0,0.0,0.0,0.0,0.0,0.0,0.0,0.0,0.0,0.0,0.0,-3.2821,-3.4136,-3.4986,-3.4981,-3.4322,-3.2725,-3.204,-3.1445,-3.0696,-3.1094,-3.1168,0.0,0.0,0.0,0.0,0.0,0.0,0.0,0.0,0.0,0.0,0.0,0.0,0.0,0.0,0.0,0.0,0.0,0.0,0.0,0.0,0.0,0.0,-1.5913,-1.5998,0.0,0.0,-1.5856,-1.5856,-1.5827,-1.5856,-1.5856,-1.5856,-1.594,-1.597,0.0,-1.5998,-1.6726,-1.7973,0.0,0.0,0.0,0.0,0.0,0.0,0.0,0.0,0.0,0.0,0.0,0.0,0.0,0.0,0.0,0.0,-3.1417,-3.4206,-3.6362,-3.8243,-3.9765,-4.0307,-4.0608,-4.0715,-4.0317,-3.8397,-3.493,0.0,0.0,0.0,0.0,0.0,0.0,0.0,0.0,0.0,0.0,0.0,0.0,0.0,0.0,0.0,0.0,0.0,0.0,0.0,0.0,0.0,0.0,0.0,0.0,0.0,-2.2909,0.0,0.0,0.0,0.0,0.0,0.0,0.0,0.0,0.0,0.0,0.0,0.0,0.0,0.0,-3.6801,-3.5599,-3.6716,-3.6829,-3.472,-3.487,-3.5002,-3.4228,-3.4186,-3.369,0.0,0.0,0.0,0.0,0.0,0.0,0.0,0.0,0.0,0.0,0.0,0.0,0.0,0.0,0.0,0.0,0.0,0.0,0.0,0.0,0.0,0.0,-1.5317,-1.5762,-1.5643,-1.5233,-1.5649,-1.5857,-1.5799,-1.5712,-1.5712,-1.5799,-1.5769,-1.5949,-1.6278,-1.6338,-1.7089,-1.8323,0.0,0.0,0.0,0.0,0.0,0.0,0.0,0.0,0.0,0.0,0.0,0.0,-2.5616,-2.6367,-2.7802,-2.8941,-3.1294,-3.4739,-3.6358,-3.8122,-4.0121,-4.1031,-4.1186,-4.0677,-3.9936,-3.8247,0.0,0.0,0.0,0.0,0.0,0.0,0.0,0.0,0.0,0.0,0.0,0.0,0.0,0.0,0.0,0.0,0.0,0.0,0.0,0.0,0.0,0.0,0.0,0.0,0.0,-2.351,-2.3408,-2.3838,0.0,0.0,0.0,0.0,0.0,0.0,0.0,0.0,0.0,0.0,0.0,0.0,0.0,-3.7332,-3.759,-3.8375,-3.8385,-3.6961,-3.7084,-3.7087,-3.6228,-3.6122,-3.5546,0.0,0.0,0.0,0.0,0.0,0.0,0.0,0.0,0.0,0.0,0.0,0.0,0.0,0.0,0.0,0.0,0.0,0.0,-1.7271,-1.706,-1.6398,-1.5769,-1.5293,-1.5854,-1.5737,-1.5236,-1.5771,-1.598,-1.595,-1.5654,-1.5654,-1.595,-1.5862,-1.6187,-1.6749,-1.6779,-1.7644,-1.9045,-1.914,0.0,0.0,0.0,0.0,0.0,0.0,0.0,0.0,0.0,0.0,-2.5578,-2.5578,-2.6328,-2.768,-2.8589,-3.0998,-3.4848,-3.6129,-3.7899,-4.0269,-4.1355,-4.1448,-4.0677,-4.0022,-3.8683,0.0,0.0,0.0,0.0,0.0,0.0,0.0,0.0,0.0,0.0,0.0,0.0,0.0,0.0,0.0,0.0,0.0,0.0,0.0,0.0,0.0,0.0,0.0,-2.3765,-2.379,-2.3624,-2.3674,-2.4143,-2.4774,0.0,-2.6963,0.0,0.0,0.0,0.0,0.0,0.0,0.0,0.0,0.0,0.0,-3.7962,-3.9238,-3.9645,-3.9565,-3.878,-3.8917,-3.8737,-3.7675,-3.7888,-3.7377,0.0,0.0,0.0,0.0,0.0,0.0,0.0,0.0,0.0,0.0,0.0,0.0,0.0,0.0,0.0,0.0,0.0,0.0,-1.806,-1.7528,-1.6901,-1.6573,-1.6456,-1.6607,-1.6578,-1.6456,-1.6515,-1.6513,-1.6391,-1.5772,-1.5831,-1.645,-1.6419,-1.6772,-1.7302,-1.7331,-1.8361,-2.0127,-2.033,0.0,0.0,0.0,0.0,0.0,0.0,0.0,0.0,0.0,0.0,-2.5432,-2.554,-2.6328,-2.7721,-2.8678,-3.0844,-3.4211,-3.5879,-3.7746,-3.9792,-4.0707,-4.1117,-4.1049,-4.1327,-4.0449,0.0,0.0,0.0,0.0,0.0,0.0,0.0,0.0,0.0,0.0,0.0,0.0,0.0,0.0,0.0,0.0,0.0,0.0,0.0,0.0,0.0,0.0,0.0,0.0,-2.3852,-2.3179,-2.3366,-2.4946,-2.5149,-2.62,-2.8741,0.0,0.0,0.0,0.0,0.0,0.0,0.0,0.0,0.0,0.0,-3.947,-3.9643,-4.0306,-4.0539,-3.9754,-4.0287,-4.0288,-3.8678,-3.9752,-3.9414,-3.5291,-3.5233,-3.4847,0.0,0.0,0.0,0.0,0.0,0.0,0.0,0.0,0.0,0.0,0.0,0.0,0.0,0.0,0.0,-1.9129,-1.8149,-1.7409,-1.6901,-1.6632,-1.6906,-1.6782,-1.6442,-1.6793,-1.6734,-1.6383,-1.6498,-1.653,-1.6537,-1.6822,-1.732,-1.7939,-1.787,-1.8921,-2.086,-2.2186,0.0,0.0,0.0,0.0,0.0,0.0,0.0,0.0,0.0,0.0,-2.5362,-2.5508,-2.6328,-2.768,-2.9125,-3.1336,-3.4179,-3.6284,-3.8149,-3.973,-4.1049,-4.156,-4.1221,-4.162,-4.0735,-3.8497,0.0,0.0,0.0,0.0,0.0,0.0,0.0,0.0,0.0,0.0,0.0,0.0,0.0,0.0,0.0,0.0,0.0,0.0,0.0,0.0,0.0,0.0,0.0,0.0,-2.5095,-2.5411,-2.6618,-2.6768,-2.7209,-2.8285,-2.8492,0.0,0.0,0.0,0.0,0.0,0.0,0.0,-3.7247,0.0,-4.0665,-4.1217,-4.2019,-4.2252,-4.142,-4.2065,-4.2056,-4.0387,-4.0193,-3.9364,-3.6598,-3.5533,-3.4528,-3.2981,0.0,0.0,0.0,0.0,0.0,0.0,0.0,0.0,0.0,0.0,0.0,0.0,0.0,0.0,-2.0813,-1.9081,-1.8702,-1.7948,-1.706,-1.7412,-1.7282,-1.6828,-1.7267,-1.7243,-1.6804,-1.7098,-1.7103,-1.6994,-1.7301,-1.7824,-1.8506,-1.86,-1.9933,-2.228,-2.4451,-2.5958,0.0,0.0,0.0,0.0,0.0,0.0,0.0,0.0,0.0,-2.5388,-2.5546,-2.6335,-2.7712,-2.9412,-3.1539,-3.4179,-3.6533,-3.8397,-3.9761,-4.118,-4.1852,-4.1704,-4.1978,-4.1369,-3.982,0.0,0.0,0.0,0.0,-3.0826,0.0,0.0,0.0,0.0,0.0,0.0,0.0,0.0,0.0,0.0,0.0,0.0,0.0,0.0,0.0,0.0,0.0,0.0,0.0,0.0,-2.7612,-2.8709,-2.8912,-2.896,-2.9028,-3.0163,-3.1139,-3.1622,0.0,0.0,0.0,0.0,0.0,0.0,-4.0701,-4.2078,-4.2966,-4.3368,-4.3451,-4.311,-4.3152,-4.285,-4.1634,-4.0691,-3.9413,-3.7436,-3.6059,-3.4917,-3.3796,-3.3408,-3.3222,-3.3215,-3.1584,-2.9892,-2.8938,0.0,0.0,0.0,0.0,0.0,0.0,0.0,0.0,-2.3304,-2.0352,-2.0948,-1.9989,-1.8151,-1.8321,-1.8387,-1.8209,-1.8382,-1.8368,-1.7855,-1.758,-1.7702,-1.8036,-1.8122,-1.8534,-1.9093,-1.9662,-2.1571,-2.4595,-2.7158,-2.8481,-2.8793,-2.9156,-2.9421,-2.9645,-2.8516,-2.7514,-2.6785,-2.6977,-2.6586,-2.5541,-2.5584,-2.6406,-2.7786,-2.9444,-3.1539,-3.4179,-3.6533,-3.8397,-3.973,-4.0978,-4.1936,-4.2604,-4.2591,-4.2802,-4.3185,0.0,0.0,0.0,0.0,-3.3275,0.0,0.0,0.0,0.0,0.0,0.0,0.0,0.0,0.0,0.0,0.0,0.0,0.0,0.0,0.0,0.0,0.0,0.0,0.0,0.0,-2.9587,-3.1303,-3.1546,-3.1545,-3.1549,-3.171,-3.2493,0.0,0.0,0.0,0.0,0.0,-3.9954,-4.0916,-4.252,-4.3841,-4.4711,-4.4138,-4.3906,-4.4605,-4.3395,-4.2295,-4.2173,-4.1427,-4.0005,-3.7579,-3.7117,0.0,0.0,0.0,0.0,0.0,0.0,0.0,0.0,0.0,0.0,0.0,0.0,0.0,0.0,0.0,0.0,-2.4787,-2.2219,-2.2374,-2.1456,-2.0062,-2.0998,-2.1715,-2.2149,-2.3289,-2.3525,-2.3125,-2.3434,-2.2562,-2.0918,-2.1298,-2.1,-2.0529,-2.3128,-2.5024,-2.6562,-2.9435,-3.1125,-3.1719,-3.1845,-3.2452,-3.3242,-3.2587,-3.1025,-2.8934,-2.9391,-2.8898,-2.755,-2.8133,-2.8549,-2.8614,-3.0575,-3.2254,-3.3666,-3.6841,-3.8838,-3.9336,-4.0824,-4.1781,-4.2166,-4.2366,-4.2729,-4.3193,-4.0542,0.0,0.0,-3.6006,-3.3758,0.0,0.0,0.0,0.0,0.0,0.0,0.0,0.0,0.0,0.0,0.0,0.0,0.0,0.0,0.0,0.0,0.0,0.0,0.0,0.0,-3.1802,-3.2454,-3.3604,-3.365,-3.197,-3.286,-3.4093,-3.5281,-3.6742,-3.7774,-3.8364,-4.0203,-4.1831,-4.2701,-4.382,-4.4609,-4.4882,-4.5102,-4.5156,-4.4797,-4.4207,-4.3442,-4.2283,-4.1391,-4.035,-3.8929,-3.8214,-3.7637,-3.7069,-3.6725,-3.6541,-3.6505,-3.6295,-3.531,-3.2666,-3.2,-3.1835,-3.1826,-3.1603,-3.1371,-3.1262,-3.0791,-3.0432,-2.7354,-2.4916,-2.5027,-2.4131,-2.2653,-2.3923,-2.4346,-2.425,-2.5658,-2.616,-2.6012,-2.6366,-2.5622,-2.4118,-2.4266,-2.3851,-2.3186,-2.5648,-2.7413,-2.8453,-3.1032,-3.2861,-3.3743,-3.3907,-3.4777,-3.6179,-3.5687,-3.4424,-3.2516,-3.204,-3.1068,-2.9566,-3.0299,-3.0518,-3.0389,-3.2446,-3.3889,-3.4715,-3.7808,-3.956,-3.9872,-4.1015,-4.1781,-4.2232,-4.2655,-4.2892,-4.2948,-4.1493,-4.1271,0.0,-3.8766,0.0,0.0,0.0,0.0,0.0,0.0,0.0,0.0,0.0,0.0,0.0,0.0,0.0,0.0,0.0,0.0,0.0,0.0,0.0,0.0,-3.3774,-3.4518,-3.4017,-3.5218,-3.5338,-3.3384,-3.4783,-3.6324,-3.7572,-3.9992,-4.1373,-4.0733,-4.2428,-4.4054,-4.4918,-4.5768,-4.6275,-4.6206,-4.6619,-4.6714,-4.6065,-4.5658,-4.4974,-4.3559,-4.2613,-4.1571,-4.0139,-3.9445,-3.8864,-3.8322,-3.8191,-3.8191,-3.817,-3.8182,-3.7371,-3.4812,-3.4113,-3.3843,-3.3504,-3.3195,-3.294,-3.2814,-3.2374,-3.1984,-3.1041,-2.809,-2.8748,-2.7959,-2.6068,-2.6857,-2.6387,-2.5089,-2.5747,-2.6486,-2.6949,-2.6711,-2.6878,-2.7446,-2.7051,-2.6904,-2.7177,-2.7571,-2.8566,-3.0221,-3.2141,-3.3693,-3.4838,-3.5235,-3.6324,-3.8068,-3.7685,-3.7503,-3.7336,-3.4924,-3.2978,-3.1838,-3.2207,-3.2514,-3.2933,-3.4835,-3.626,-3.7087,-3.9219,-4.0567,-4.106,-4.1456,-4.2037,-4.2935,-4.3427,-4.3355,-4.27,-4.3885,-4.4303,-4.338,-4.2703,0.0,0.0,0.0,0.0,0.0,0.0,0.0,0.0,0.0,0.0,0.0,0.0,0.0,0.0,0.0,0.0,0.0,0.0,0.0,-3.6373,-3.7668,-3.7549,-3.584,-3.6516,-3.6764,-3.6037,-3.7475,-3.9232,-4.0875,-4.344,-4.4445,-4.2876,-4.4753,-4.6601,-4.7381,-4.8209,-4.872,-4.8651,-4.8561,-4.8438,-4.8275,-4.7632,-4.6776,-4.5757,-4.4922,-4.3597,-4.1195,-4.0733,-4.014,-3.8551,-3.8291,-3.8295,-3.8196,-3.826,-3.79,-3.6987,-3.6074,-3.5251,-3.4386,-3.3537,-3.2881,-3.273,-3.2828,-3.269,-3.4261,-3.0571,-3.0805,-2.9871,-2.8483,-2.9813,-3.06,-3.0971,-3.2295,-3.2805,-3.2759,-3.2703,-3.1782,-3.035,-3.0193,-2.9763,-2.9185,-3.0499,-3.1338,-3.1824,-3.3988,-3.5473,-3.6359,-3.6995,-3.8161,-3.9706,-3.9387,-3.9553,-4.0047,-3.9237,-3.7553,-3.5259,-3.5947,-3.6034,-3.5525,-3.6644,-3.7444,-3.7897,-3.9628,-4.0672,-4.0958,-4.1628,-4.2461,-4.3427,-4.3751,-4.4,-4.4065,-4.4188,-4.4272,-4.4222,-4.2612,0.0,-4.0273,0.0,0.0,0.0,0.0,-3.4835,-3.1844,-3.1778,0.0,0.0,0.0,-3.5988,0.0,0.0,0.0,0.0,-3.5506,-3.6622,-3.8554,-3.9553,-3.9614,-3.8556,-3.9277,-3.947,-3.8615,-4.0648,-4.2292,-4.2889,-4.5226,-4.6892,-4.6987,-4.7578,-4.816,-4.8382,-4.8571,-4.8647,-4.8572,-4.8438,-4.8343,-4.8227,-4.7927,-4.745,-4.657,-4.576,-4.4581,-4.2656,-4.1393,-4.0472,-4.0011,-3.9855,-3.9798,-3.9754,-3.9723,-3.9445,-3.8465,-3.7187,-3.6228,-3.5736,-3.4988,-3.4331,-3.4241,-3.4165,-3.4091,-3.789,-3.5033,-3.409,-3.3223,-3.2709,-3.3864,-3.4476,-3.4564,-3.5787,-3.6318,-3.631,-3.5946,-3.5198,-3.4047,-3.3155,-3.2496,-3.2131,-3.3125,-3.3583,-3.3616,-3.5536,-3.6881,-3.7728,-3.8131,-3.9199,-4.0754,-4.0477,-4.0606,-4.1243,-4.1423,-4.0769,-3.9345,-3.9646,-3.9205,-3.8098,-3.9289,-3.972,-3.9409,-4.067,-4.1502,-4.1821,-4.2589,-4.346,-4.4269,-4.4232,-4.4414,-4.493,-4.4606,-4.4524,-4.4921,-4.3675,-4.2829,0.0,-4.1432,-4.034,-3.9199,-3.8847,-3.7498,-3.4858,-3.4152,0.0,0.0,-3.7409,-3.8347,-3.7961,0.0,0.0,-3.8448,-3.8892,-3.9921,-4.1507,-4.21,-4.2198,-4.1694,-4.249,-4.268,-4.184,-4.376,-4.5312,-4.5679,-4.7411,-4.8922,-4.9686,-4.9836,-4.9969,-5.0249,-5.0251,-5.014,-5.004,-4.9625,-4.9312,-4.9216,-4.9105,-4.8779,-4.7914,-4.7108,-4.5817,-4.341,-4.1979,-4.0992,-4.0622,-4.05,-4.0422,-4.0339,-4.0307,-4.0062,-3.9373,-3.8175,-3.7128,-3.6768,-3.6196,-3.5735,-3.5652,-3.5564,-3.5488,-4.154,-4.0485,-3.8274,-3.7486,-3.7813,-3.8294,-3.7664,-3.6489,-3.7126,-3.7618,-3.7919,-3.7157,-3.7382,-3.8232,-3.5878,-3.5115,-3.5581,-3.5299,-3.5331,-3.5578,-3.678,-3.7895,-3.8929,-3.8986,-3.9865,-4.1405,-4.1195,-4.1211,-4.1564,-4.2166,-4.2798,-4.3521,-4.3033,-4.2108,-4.0998,-4.2349,-4.258,-4.1558,-4.2296,-4.2912,-4.3231,-4.417,-4.4886,-4.5436,-4.4871,-4.4843,-4.5437,-4.5239,-4.5211,-4.5459,-4.5563,-4.564,-4.5668,-4.4213,-4.3069,-4.2438,-4.1103,-4.0043,-3.9435,-3.8215,-3.8126,-3.9414,-3.9989,-4.0865,-4.2373,-4.2048,-4.2179,-4.3035,-4.3424,-4.3955,-4.4722,-4.4937,-4.4997,-4.4968,-4.5667,-4.5944,-4.5287,-4.6703,-4.8002,-4.8794,-4.9664,-5.0512,-5.1286,-5.1467,-5.1791,-5.2489,-5.2427,-5.2325,-5.2279,-5.1401,-5.0829,-5.0604,-5.0663,-5.0337,-4.9199,-4.8241,-4.6568,-4.3772,-4.2441,-4.1524,-4.08,-4.0543,-4.0436,-4.0196,-4.0157,-4.0051,-3.9823,-3.8907,-3.815,-3.7468,-3.7099,-3.6868,-3.6696,-3.6578,-3.6512,-4.3211,-4.2931,-4.1736,-4.0631,-3.9699,-3.9326,-3.9139,-3.915,-3.8916,-3.8732,-3.8621,-3.8533,-3.8663,-3.8865,-3.7903,-3.7533,-3.7639,-3.6969,-3.6684,-3.6828,-3.7445,-3.8341,-3.9314,-3.9838,-4.0742,-4.1913,-4.2643,-4.3278,-4.3777,-4.4122,-4.4541,-4.5142,-4.5516,-4.5181,-4.4073,-4.4398,-4.4266,-4.3516,-4.3457,-4.3556,-4.3814,-4.4945,-4.5887,-4.667,-4.634,-4.6271,-4.653,-4.6399,-4.6222,-4.6005,-4.6283,-4.63,-4.5988,-4.5843,-4.5217,-4.3944,-4.3467,-4.3111,-4.2976,-4.2408,-4.1593,-4.0578,-4.1868,-4.2709,-4.2657,-4.3235,-4.3744,-4.4145,-4.5427,-4.6123,-4.5753,-4.6328,-4.6766,-4.6696,-4.6941,-4.7289,-4.7765,-4.8748,-4.9484,-4.9763,-5.0551,-5.1162,-5.1367,-5.198,-5.2445,-5.259,-5.1969,-5.1447,-5.1321,-5.1106,-5.0897,-5.0773,-5.0701,-5.0317,-4.9316,-4.7394,-4.563,-4.417,-4.2675,-4.1586,-4.1318,-4.1132,-4.0781,-4.0084,-4.0268,-4.0239,-3.9564,-3.9149,-3.8867,-3.8488,-3.7469,-3.6525,-3.6498,-3.6441,-3.634,-4.5004,-4.4627,-4.404,-4.3409,-4.2539,-4.1482,-4.1198,-4.1398,-4.0885,-4.0485,-4.0359,-4.0263,-4.0147,-3.9981,-3.9888,-3.9703,-3.9414,-3.8972,-3.874,-3.8644,-3.8839,-3.949,-4.047,-4.0695,-4.1397,-4.2392,-4.3119,-4.3908,-4.4449,-4.5072,-4.5725,-4.6496,-4.713,-4.7133,-4.6615,-4.6322,-4.5897,-4.5527,-4.5398,-4.5398,-4.5524,-4.6595,-4.7474,-4.8091,-4.7835,-4.7546,-4.7485,-4.7265,-4.704,-4.6637,-4.7293,-4.7427,-4.6922,-4.7506,-4.7419,-4.636,-4.6001,-4.5842,-4.5896,-4.5865,-4.5193,-4.3882,-4.4445,-4.4897,-4.5015,-4.5591,-4.6227,-4.6822,-4.7804,-4.8561,-4.8875,-4.9342,-4.9819,-5.0169,-5.0228,-5.0471,-5.0977,-5.1476,-5.1915,-5.2361,-5.2511,-5.2689,-5.3085,-5.3221,-5.3264,-5.3156,-5.2368,-5.173,-5.158,-5.1266,-5.0906,-5.0863,-5.072,-5.0164,-4.8912,-4.7489,-4.5972,-4.4461,-4.335,-4.2451,-4.1551,-4.1254,-4.0836,-3.992,-3.9902,-3.9937,-3.932,-3.912,-3.8979,-3.8789,-3.8339,-3.7764,-3.7426,-3.725,-3.7191,-4.6586,-4.5817,-4.5447,-4.5392,-4.535,-4.3816,-4.3218,-4.3371,-4.2682,-4.2424,-4.251,-4.2216,-4.1883,-4.1585,-4.176,-4.1595,-4.1053,-4.0872,-4.0738,-4.0561,-4.0338,-4.0795,-4.1715,-4.1557,-4.1938,-4.2754,-4.3236,-4.3921,-4.4586,-4.5535,-4.6616,-4.7603,-4.8048,-4.8368,-4.858,-4.8057,-4.7605,-4.7132,-4.7316,-4.7407,-4.744,-4.8422,-4.9195,-4.9555,-4.9183,-4.8757,-4.8487,-4.8155,-4.7879,-4.7555,-4.8489,-4.8857,-4.8364,-4.9224,-4.9528,-4.8969,-4.8468,-4.8327,-4.8514,-4.873,-4.8681,-4.8199,-4.7655,-4.7503,-4.7914,-4.8351,-4.901,-5.0037,-5.0275,-5.1035,-5.2534,-5.2679,-5.299,-5.3682,-5.3799,-5.3838,-5.3877,-5.39,-5.4222,-5.5036,-5.4463,-5.429,-5.4876,-5.445,-5.3949,-5.3774,-5.3156,-5.2636,-5.2472,-5.1643,-5.1014,-5.0996,-5.0738,-4.9855,-4.8544,-4.7886,-4.6827,-4.4898,-4.4075,-4.3479,-4.1857,-4.1518,-4.1,-3.9977,-3.9836,-3.9713,-3.9342,-3.9238,-3.9165,-3.9001,-3.9182,-3.9163,-3.8606,-3.8606,-3.8583,-4.7128,-4.6671,-4.5902,-4.5553,-4.5289,-4.4462,-4.4195,-4.4291,-4.3284,-4.316,-4.3691,-4.3956,-4.4098,-4.4169,-4.3399,-4.2989,-4.2701,-4.176,-4.125,-4.1205,-4.1175,-4.1441,-4.1922,-4.1922,-4.2334,-4.3236,-4.4246,-4.5144,-4.5903,-4.6524,-4.7323,-4.8357,-4.8667,-4.8893,-4.9154,-4.9791,-4.9017,-4.6944,-4.7316,-4.7591,-4.7591,-4.8882,-4.9767,-5.0228,-4.9851,-4.9783,-4.9941,-4.979,-4.9683,-4.9798,-5.0285,-5.0522,-5.0413,-5.0897,-5.0919,-5.0333,-5.0327,-5.0525,-5.0783,-5.0901,-5.1276,-5.189,-5.199,-5.093,-4.8514,-4.9691,-5.102,-5.1908,-5.263,-5.3205,-5.3497,-5.3593,-5.3728,-5.3844,-5.39,-5.3908,-5.3892,-5.3923,-5.4014,-5.4203,-5.4119,-5.4062,-5.4271,-5.4089,-5.3975,-5.3922,-5.3682,-5.3541,-5.3416,-5.2051,-5.1199,-5.164,-5.0567,-4.9346,-4.8876,-4.764,-4.6633,-4.575,-4.4585,-4.3681,-4.3113,-4.2799,-4.2115,-4.0734,-4.1163,-4.1323,-4.0178,-4.0314,-4.0341,-3.9593,-3.9528,-3.9349,-3.8615,-3.9309,-3.975,-4.796,-4.7452,-4.6849,-4.6367,-4.5865,-4.5458,-4.5216,-4.4961,-4.3803,-4.3542,-4.3994,-4.4571,-4.4971,-4.5108,-4.5022,-4.4959,-4.4898,-4.4251,-4.3975,-4.3927,-4.3516,-4.3464,-4.3647,-4.3567,-4.376,-4.4329,-4.5149,-4.5878,-4.6629,-4.7297,-4.8112,-4.9079,-4.9363,-4.9629,-4.9693,-5.0124,-4.9686,-4.8131,-4.8428,-4.8591,-4.8651,-4.9642,-5.0307,-5.0585,-5.07,-5.0688,-5.0677,-5.0733,-5.0806,-5.0809,-5.1528,-5.1786,-5.1484,-5.2098,-5.2585,-5.2764,-5.2589,-5.2932,-5.3849,-5.3775,-5.387,-5.4336,-5.4624,-5.3698,-5.1153,-5.2336,-5.3545,-5.4411,-5.5286,-5.5948,-5.6338,-5.6393,-5.64,-5.6427,-5.6425,-5.6402,-5.6415,-5.6454,-5.6298,-5.5954,-5.5898,-5.5723,-5.5282,-5.5216,-5.5139,-5.5034,-5.4618,-5.4452,-5.4514,-5.3249,-5.2159,-5.1895,-5.0692,-4.9519,-4.8867,-4.7843,-4.6706,-4.6114,-4.5066,-4.4058,-4.3348,-4.3137,-4.2585,-4.1398,-4.1533,-4.1557,-4.096,-4.0977,-4.0965,-4.05,-4.0288,-3.9929,-3.9167,-3.9243,-3.9213,-4.889,-4.8138,-4.7799,-4.727,-4.6489,-4.6375,-4.6022,-4.555,-4.4338,-4.391,-4.4211,-4.4929,-4.5298,-4.5663,-4.6295,-4.6732,-4.6751,-4.6749,-4.664,-4.6487,-4.5776,-4.5455,-4.5387,-4.5251,-4.5281,-4.5567,-4.5938,-4.6521,-4.7258,-4.8026,-4.8883,-4.9613,-5.0058,-5.0237,-5.0334,-5.0167,-5.0058,-5.0056,-4.9814,-4.9795,-4.9973,-5.0376,-5.0694,-5.0892,-5.1315,-5.15,-5.1384,-5.1661,-5.1756,-5.1751,-5.2823,-5.3144,-5.2704,-5.361,-5.4549,-5.5427,-5.5019,-5.5364,-5.6789,-5.6515,-5.6348,-5.6559,-5.6859,-5.6297,-5.4547,-5.516,-5.602,-5.6893,-5.7602,-5.8304,-5.8952,-5.9022,-5.9026,-5.9007,-5.9012,-5.8981,-5.8984,-5.9062,-5.8672,-5.8159,-5.7938,-5.7733,-5.703,-5.6835,-5.6792,-5.6602,-5.6078,-5.5642,-5.5866,-5.4632,-5.3051,-5.2066,-5.1214,-5.0367,-4.9328,-4.8491,-4.7529,-4.6679,-4.5696,-4.4621,-4.3746,-4.3295,-4.2835,-4.195,-4.1687,-4.173,-4.1619,-4.1704,-4.1572,-4.1364,-4.1262,-4.0833,-3.9856,-3.921,-3.8816,-4.9346,-4.8738,-4.8195,-4.7587,-4.6996,-4.6559,-4.6248,-4.6129,-4.5273,-4.5113,-4.5286,-4.5786,-4.6314,-4.6634,-4.6808,-4.701,-4.7182,-4.7177,-4.6876,-4.6341,-4.6251,-4.595,-4.5664,-4.5582,-4.5853,-4.6448,-4.6736,-4.7266,-4.8118,-4.8718,-4.9241,-4.9852,-5.0168,-5.0602,-5.1164,-5.0467,-5.0624,-5.1665,-5.0798,-5.0514,-5.0907,-5.0823,-5.0946,-5.1246,-5.1658,-5.2126,-5.2631,-5.2889,-5.3262,-5.379,-5.4822,-5.5367,-5.5448,-5.6443,-5.7215,-5.7477,-5.7544,-5.7751,-5.8055,-5.8085,-5.8535,-5.949,-5.9694,-5.9007,-5.7399,-5.7354,-5.7797,-5.8623,-5.8942,-5.8955,-5.9056,-5.9205,-5.9295,-5.9218,-5.914,-5.9098,-5.9244,-5.9244,-5.9152,-5.8889,-5.8831,-5.8732,-5.8389,-5.8298,-5.8139,-5.808,-5.7583,-5.7615,-5.7008,-5.5503,-5.3819,-5.2806,-5.2319,-5.1754,-5.0789,-4.9958,-4.8975,-4.8126,-4.6666,-4.5566,-4.5006,-4.4393,-4.3632,-4.276,-4.2939,-4.3061,-4.2643,-4.3024,-4.2922,-4.2382,-4.2132,-4.1589,-4.0244,-4.0178,-4.0002,-5.0022,-4.9395,-4.9138,-4.8326,-4.715,-4.656,-4.6574,-4.7023,-4.6301,-4.6172,-4.6567,-4.7131,-4.7521,-4.7792,-4.8149,-4.8503,-4.8679,-4.8997,-4.8931,-4.8399,-4.8369,-4.8248,-4.7835,-4.7976,-4.8298,-4.8627,-4.8998,-4.932,-4.9797,-5.008,-5.034,-5.0371,-5.0469,-5.0896,-5.1582,-5.1322,-5.1791,-5.2909,-5.1775,-5.1218,-5.128,-5.1479,-5.1741,-5.2109,-5.2552,-5.3266,-5.4224,-5.4607,-5.5016,-5.5545,-5.6165,-5.6587,-5.6808,-5.7396,-5.823,-5.9383,-5.9588,-6.0128,-6.1215,-6.1391,-6.1732,-6.2299,-6.2383,-6.2122,-6.1381,-6.0874,-6.0796,-6.1186,-6.1587,-6.1868,-6.1909,-6.1907,-6.1866,-6.1888,-6.1849,-6.1609,-6.1198,-6.1088,-6.0715,-5.9854,-5.9616,-5.9348,-5.8777,-5.8612,-5.8449,-5.8252,-5.8073,-5.7837,-5.7566,-5.6548,-5.5361,-5.4097,-5.3025,-5.2227,-5.1647,-5.084,-4.9927,-4.9002,-4.7777,-4.66,-4.5668,-4.4904,-4.4389,-4.359,-4.368,-4.3717,-4.3378,-4.3606,-4.3578,-4.3328,-4.2742,-4.2051,-4.1368,-4.083,-4.0028,-5.0759,-5.008,-4.9938,-4.9007,-4.76,-4.7263,-4.75,-4.7912,-4.7631,-4.76,-4.7884,-4.8173,-4.8341,-4.8433,-4.9072,-4.9614,-4.9913,-5.0537,-5.0594,-5.0208,-5.0296,-5.0059,-4.9702,-5.0056,-5.0289,-5.0463,-5.0894,-5.1149,-5.1149,-5.1434,-5.1466,-5.1114,-5.1008,-5.1318,-5.2024,-5.2119,-5.2661,-5.3681,-5.2848,-5.2261,-5.2126,-5.2423,-5.2786,-5.3135,-5.359,-5.4313,-5.5367,-5.5839,-5.6325,-5.6705,-5.7175,-5.7629,-5.8068,-5.8425,-5.9472,-6.1127,-6.1477,-6.2201,-6.3673,-6.3962,-6.4159,-6.4489,-6.4492,-6.468,-6.5036,-6.4333,-6.367,-6.3436,-6.3744,-6.4131,-6.4086,-6.4099,-6.4198,-6.4159,-6.4109,-6.3631,-6.313,-6.2869,-6.2285,-6.0942,-6.0501,-5.9987,-5.9279,-5.8954,-5.8886,-5.8642,-5.812,-5.778,-5.7775,-5.7494,-5.6592,-5.5686,-5.4289,-5.3359,-5.2855,-5.2118,-5.1232,-5.023,-4.8968,-4.7751,-4.6504,-4.5844,-4.5143,-4.4411,-4.4225,-4.4262,-4.4225,-4.4225,-4.423,-4.4124,-4.3721,-4.3139,-4.261,-4.1295,-4.0015,-5.1396,-5.0755,-5.0166,-4.9518,-4.8921,-4.9342,-4.9314,-4.9061,-4.9709,-4.9699,-4.9165,-4.7989,-4.7869,-4.8214,-4.8864,-4.9503,-4.9935,-5.0534,-5.0568,-5.0274,-5.0487,-5.0366,-5.012,-5.0468,-5.0753,-5.1041,-5.1528,-5.1874,-5.1842,-5.2163,-5.2394,-5.2477,-5.223,-5.2227,-5.2613,-5.2638,-5.3076,-5.4106,-5.4322,-5.4305,-5.4045,-5.3921,-5.3885,-5.3885,-5.4481,-5.5,-5.5566,-5.5881,-5.6325,-5.6851,-5.7808,-5.8862,-5.9794,-6.0808,-6.1864,-6.2935,-6.3278,-6.3628,-6.3975,-6.4064,-6.4519,-6.5247,-6.5465,-6.6129,-6.7448,-6.6915,-6.5776,-6.473,-6.4364,-6.447,-6.4207,-6.4265,-6.4348,-6.4337,-6.4144,-6.3884,-6.3754,-6.3051,-6.2447,-6.2338,-6.1557,-6.0887,-6.0525,-6.0296,-6.0137,-5.9634,-5.8925,-5.858,-5.8864,-5.8081,-5.7409,-5.7486,-5.6922,-5.6058,-5.5272,-5.442,-5.3379,-5.2485,-5.0511,-4.9068,-4.8293,-4.7181,-4.6104,-4.5477,-4.5069,-4.5143,-4.5143,-4.5175,-4.5138,-4.4888,-4.4675,-4.4498,-4.3563,-4.2206,-4.0735,-5.237,-5.1546,-5.1184,-5.0654,-5.0129,-5.0016,-4.9939,-4.9945,-5.0122,-5.0105,-4.9926,-4.9595,-4.935,-4.9397,-4.9853,-5.0154,-5.0212,-5.0544,-5.0704,-5.081,-5.1088,-5.1213,-5.1243,-5.2298,-5.2896,-5.3246,-5.3679,-5.402,-5.4062,-5.3643,-5.352,-5.3776,-5.3408,-5.3278,-5.344,-5.364,-5.4091,-5.4703,-5.5069,-5.5402,-5.5648,-5.5044,-5.4828,-5.5188,-5.5571,-5.6254,-5.7074,-5.7571,-5.7935,-5.8386,-5.8899,-5.9766,-6.0904,-6.154,-6.2554,-6.4055,-6.4909,-6.5444,-6.5578,-6.565,-6.6088,-6.6988,-6.7069,-6.7594,-6.8663,-6.8475,-6.795,-6.7307,-6.6683,-6.6195,-6.575,-6.5984,-6.6072,-6.562,-6.539,-6.5092,-6.4588,-6.4152,-6.369,-6.3167,-6.2618,-6.1997,-6.1339,-6.0665,-6.0137,-5.9782,-5.9345,-5.9282,-5.9326,-5.9139,-5.9027,-5.8877,-5.884,-5.8165,-5.6776,-5.5957,-5.5061,-5.3831,-5.2679,-5.1565,-4.9705,-4.867,-4.7525,-4.6628,-4.629,-4.6067,-4.603,-4.5955,-4.5918,-4.5584,-4.4703,-4.4235,-4.3808,-4.2746,-4.1503,-5.3217,-5.252,-5.2072,-5.1541,-5.1084,-5.0663,-5.0612,-5.0869,-5.0556,-5.0594,-5.0663,-5.1147,-5.1173,-5.0904,-5.1004,-5.1052,-5.1061,-5.0921,-5.1238,-5.1832,-5.1964,-5.2243,-5.2826,-5.3927,-5.4809,-5.5254,-5.5748,-5.6167,-5.6163,-5.5425,-5.502,-5.5156,-5.4744,-5.4608,-5.4757,-5.5076,-5.5434,-5.5949,-5.6352,-5.6863,-5.7352,-5.6668,-5.6233,-5.6405,-5.6755,-5.7336,-5.8282,-5.8743,-5.9288,-5.9776,-6.0059,-6.0811,-6.2146,-6.2464,-6.3368,-6.5041,-6.6006,-6.6567,-6.6691,-6.6732,-6.7162,-6.7968,-6.8073,-6.8574,-6.938,-6.9431,-6.939,-6.9396,-6.8822,-6.8093,-6.75,-6.772,-6.7631,-6.6911,-6.6632,-6.6244,-6.5373,-6.502,-6.447,-6.39,-6.332,-6.2847,-6.2041,-6.1178,-6.0581,-6.0408,-6.0263,-6.0078,-6.0041,-6.0529,-6.0641,-6.0079,-6.0265,-5.9552,-5.7903,-5.708,-5.6295,-5.5435,-5.4538,-5.3161,-5.1342,-5.0379,-4.9046,-4.8113,-4.7553,-4.7033,-4.6884,-4.6773,-4.6698,-4.5992,-4.5148,-4.4374,-4.4235,-4.3361,-4.264,-5.3964,-5.3366,-5.2516,-5.2113,-5.1759,-5.1731,-5.1731,-5.1759,-5.1674,-5.1581,-5.1506,-5.2145,-5.2541,-5.2426,-5.2179,-5.2159,-5.221,-5.1943,-5.236,-5.329,-5.3122,-5.3558,-5.4576,-5.5374,-5.5857,-5.6214,-5.7088,-5.7409,-5.7361,-5.7084,-5.6836,-5.6614,-5.6229,-5.6376,-5.6745,-5.6842,-5.7304,-5.7919,-5.8345,-5.8898,-5.9289,-5.8892,-5.8178,-5.7607,-5.7886,-5.8282,-5.8443,-5.8945,-5.9666,-6.0492,-6.0984,-6.2064,-6.3634,-6.427,-6.5041,-6.6123,-6.64,-6.6553,-6.6696,-6.6712,-6.7156,-6.7968,-6.8205,-6.8804,-7.0298,-6.9868,-6.9708,-7.0176,-7.0058,-6.9613,-6.9072,-6.8798,-6.8394,-6.7581,-6.736,-6.6885,-6.609,-6.5341,-6.473,-6.4449,-6.3744,-6.3064,-6.2604,-6.2239,-6.184,-6.1732,-6.1695,-6.1543,-6.1468,-6.1578,-6.1578,-6.1392,-6.0941,-6.0113,-5.9214,-5.8277,-5.7674,-5.6888,-5.573,-5.4721,-5.3714,-5.2562,-5.0972,-4.9674,-4.9115,-4.8558,-4.7924,-4.7627,-4.7553,-4.6995,-4.603,-4.5366,-4.53,-4.435,-4.3627,-5.4533,-5.3819,-5.3927,-5.3852,-5.3632,-5.3632,-5.3323,-5.2925,-5.2925,-5.2829,-5.2558,-5.302,-5.3279,-5.3464,-5.3875,-5.3585,-5.2911,-5.274,-5.3158,-5.3849,-5.3985,-5.436,-5.507,-5.6329,-5.7179,-5.762,-5.8312,-5.8446,-5.8108,-5.8008,-5.784,-5.7695,-5.7755,-5.7912,-5.804,-5.8247,-5.8542,-5.8928,-5.9168,-5.949,-6.009,-5.9944,-5.9758,-5.9743,-5.9536,-5.945,-5.9611,-6.0079,-6.0591,-6.1098,-6.1324,-6.2099,-6.3433,-6.491,-6.5934,-6.6392,-6.6528,-6.662,-6.6691,-6.6759,-6.7402,-6.875,-6.8908,-6.9584,-7.0941,-7.1054,-7.094,-7.1076,-7.1029,-7.0758,-7.0467,-6.9938,-6.9154,-6.8397,-6.8073,-6.7898,-6.7423,-6.6665,-6.5991,-6.5771,-6.4641,-6.3448,-6.3175,-6.2518,-6.2033,-6.1996,-6.1883,-6.1844,-6.1919,-6.2217,-6.2403,-6.1914,-6.1839,-6.1686,-6.0781,-5.9435,-5.8385,-5.7747,-5.6846,-5.6095,-5.5158,-5.3967,-5.2453,-5.1601,-5.0972,-5.0008,-4.9341,-4.841,-4.8373,-4.8296,-4.7293,-4.6554,-4.6598,-4.5493,-4.4801,-5.5099,-5.4403,-5.4806,-5.5013,-5.4934,-5.4734,-5.4423,-5.4166,-5.3994,-5.3898,-5.3848,-5.3936,-5.4241,-5.4598,-5.5066,-5.503,-5.4322,-5.4111,-5.4207,-5.484,-5.513,-5.5596,-5.6215,-5.7476,-5.8446,-5.8939,-5.9708,-5.9871,-5.954,-5.9557,-5.9315,-5.8903,-5.9254,-5.9415,-5.9397,-5.9663,-6.0031,-6.0305,-6.0461,-6.0857,-6.1213,-6.1181,-6.1115,-6.1167,-6.0855,-6.0602,-6.0567,-6.0928,-6.1229,-6.1454,-6.1822,-6.272,-6.4193,-6.5567,-6.6406,-6.6489,-6.6594,-6.663,-6.6683,-6.6756,-6.7537,-6.9179,-6.9416,-7.0082,-7.1604,-7.1782,-7.1675,-7.1568,-7.1706,-7.1717,-7.151,-7.1004,-7.0157,-6.9155,-6.8809,-6.8614,-6.8356,-6.764,-6.7217,-6.6896,-6.5715,-6.4723,-6.4214,-6.3463,-6.2975,-6.2748,-6.2671,-6.2595,-6.2707,-6.3006,-6.3266,-6.2585,-6.2582,-6.2429,-6.1786,-6.0584,-5.9495,-5.8777,-5.7955,-5.7241,-5.6492,-5.5221,-5.4219,-5.3477,-5.2557,-5.16,-5.0602,-4.9527,-4.9266,-4.9449,-4.863,-4.7667,-4.7262,-4.6527,-4.587,-5.5771,-5.5118,-5.5036,-5.5329,-5.5478,-5.5049,-5.5049,-5.5306,-5.4877,-5.4921,-5.5234,-5.507,-5.5381,-5.5854,-5.5812,-5.6047,-5.6352,-5.5735,-5.5831,-5.6519,-5.6528,-5.7057,-5.8022,-5.887,-5.9522,-6.0161,-6.1152,-6.1638,-6.1559,-6.1679,-6.1318,-6.0669,-6.0827,-6.0924,-6.0711,-6.1185,-6.1696,-6.2126,-6.2498,-6.2866,-6.3084,-6.2666,-6.2263,-6.1914,-6.2108,-6.1876,-6.1009,-6.1375,-6.1649,-6.184,-6.2657,-6.4222,-6.5717,-6.6361,-6.65,-6.6581,-6.668,-6.6702,-6.6693,-6.68,-6.7538,-6.9054,-6.9393,-7.0112,-7.1526,-7.1862,-7.1769,-7.1707,-7.2126,-7.2467,-7.2302,-7.2129,-7.142,-6.9986,-6.9701,-6.9347,-6.8599,-6.8127,-6.7928,-6.7616,-6.6721,-6.6315,-6.5877,-6.5162,-6.4519,-6.4402,-6.4209,-6.4134,-6.4059,-6.4016,-6.4009,-6.3817,-6.336,-6.2865,-6.2412,-6.18,-6.0815,-5.9906,-5.8974,-5.819,-5.755,-5.6498,-5.5502,-5.4691,-5.3437,-5.2484,-5.1785,-5.0824,-5.0528,-5.0416,-4.9488,-4.8783,-4.8266,-4.7675,-4.6826,-5.6413,-5.6061,-5.6437,-5.6586,-5.676,-5.6557,-5.6495,-5.6374,-5.6142,-5.6071,-5.6094,-5.639,-5.6482,-5.6576,-5.6807,-5.7371,-5.7669,-5.7337,-5.7308,-5.7527,-5.7837,-5.8296,-5.903,-5.9859,-6.0769,-6.1628,-6.2144,-6.2361,-6.2238,-6.2427,-6.2266,-6.2042,-6.1799,-6.1971,-6.2162,-6.2093,-6.2291,-6.2768,-6.3002,-6.3289,-6.3617,-6.3568,-6.3563,-6.3803,-6.3982,-6.3769,-6.3291,-6.2863,-6.2989,-6.3589,-6.3538,-6.4097,-6.5351,-6.6217,-6.6555,-6.6663,-6.6693,-6.675,-6.6775,-6.6848,-6.7577,-6.8986,-6.9366,-7.0142,-7.1611,-7.2235,-7.2341,-7.2308,-7.2832,-7.3202,-7.307,-7.2957,-7.2438,-7.143,-7.1159,-7.0724,-6.9858,-6.9152,-6.8379,-6.7715,-6.7268,-6.7011,-6.6787,-6.6293,-6.6024,-6.5827,-6.5448,-6.5148,-6.5032,-6.4612,-6.4079,-6.3925,-6.3537,-6.3407,-6.3052,-6.2666,-6.1937,-6.0839,-5.987,-5.8947,-5.8342,-5.7553,-5.6632,-5.5638,-5.4386,-5.3547,-5.2816,-5.2227,-5.1896,-5.1416,-5.0676,-5.0157,-4.9676,-4.8972,-4.8157,-5.6945,-5.6781,-5.7158,-5.7416,-5.7445,-5.7528,-5.7435,-5.7306,-5.7276,-5.7261,-5.7261,-5.7573,-5.7794,-5.7679,-5.8239,-5.8639,-5.8933,-5.8593,-5.878,-5.9122,-5.8828,-5.9409,-6.0476,-6.1179,-6.1862,-6.2493,-6.2847,-6.3062,-6.3093,-6.338,-6.348,-6.3271,-6.3155,-6.331,-6.3526,-6.3111,-6.3094,-6.3601,-6.3576,-6.355,-6.3671,-6.3719,-6.3842,-6.3972,-6.4068,-6.4245,-6.4385,-6.3962,-6.3869,-6.4226,-6.4174,-6.4698,-6.5661,-6.6373,-6.6808,-6.7053,-6.6954,-6.7009,-6.7598,-6.7559,-6.8046,-6.9444,-6.9787,-7.0328,-7.1587,-7.2399,-7.2696,-7.2693,-7.3456,-7.3983,-7.387,-7.3752,-7.3461,-7.3001,-7.2454,-7.186,-7.103,-7.0358,-6.9569,-6.8783,-6.8182,-6.7846,-6.7579,-6.716,-6.6965,-6.665,-6.627,-6.5891,-6.5736,-6.5309,-6.4924,-6.4576,-6.4338,-6.4167,-6.3873,-6.3437,-6.2925,-6.1882,-6.0766,-5.9725,-5.8869,-5.8051,-5.7169,-5.6397,-5.5294,-5.4822,-5.417,-5.3363,-5.285,-5.2336,-5.2005,-5.1415,-5.0898,-5.0342,-4.9564,-5.764,-5.7303,-5.7303,-5.7557,-5.7751,-5.7833,-5.7915,-5.8166,-5.8166,-5.8356,-5.8644,-5.8882,-5.9131,-5.9389,-5.9539,-5.991,-6.0297,-5.9791,-6.0355,-6.1005,-6.0573,-6.0704,-6.2344,-6.2816,-6.2944,-6.3008,-6.3371,-6.3712,-6.397,-6.4532,-6.4756,-6.4266,-6.4516,-6.4838,-6.4421,-6.4014,-6.396,-6.4473,-6.4171,-6.3791,-6.354,-6.35,-6.3482,-6.3154,-6.3146,-6.3657,-6.4666,-6.481,-6.4479,-6.3999,-6.4838,-6.5648,-6.6396,-6.6663,-6.7073,-6.7647,-6.7188,-6.7748,-6.8683,-6.8544,-6.8828,-7.027,-7.0433,-7.0909,-7.1848,-7.2569,-7.3005,-7.3076,-7.4089,-7.4755,-7.4635,-7.4542,-7.4446,-7.4303,-7.3357,-7.2452,-7.1743,-7.155,-7.0794,-7.0039,-6.9359,-6.8754,-6.8409,-6.7764,-6.7338,-6.6978,-6.6818,-6.6668,-6.6462,-6.6187,-6.6135,-6.5634,-6.4919,-6.4373,-6.3854,-6.3622,-6.3184,-6.2917,-6.1875,-6.0956,-5.9879,-5.9034,-5.8153,-5.7262,-5.6455,-5.6066,-5.5448,-5.4601,-5.4202,-5.4022,-5.3514,-5.2782,-5.2192,-5.175,-5.1158,-5.7892,-5.7974,-5.7951,-5.8062,-5.8085,-5.8107,-5.8246,-5.8555,-5.8555,-5.8961,-5.9546,-5.9879,-6.0106,-6.0315,-6.0725,-6.1119,-6.1217,-6.1023,-6.1874,-6.3205,-6.237,-6.2496,-6.3517,-6.3674,-6.3791,-6.3939,-6.3945,-6.3999,-6.418,-6.4741,-6.4858,-6.4527,-6.4555,-6.4416,-6.4103,-6.375,-6.3715,-6.4252,-6.4353,-6.4331,-6.4327,-6.3896,-6.4127,-6.4717,-6.4193,-6.4523,-6.5524,-6.5793,-6.5565,-6.5017,-6.579,-6.6085,-6.5912,-6.6429,-6.7005,-6.7274,-6.7633,-6.7916,-6.8435,-6.8867,-6.9518,-7.0376,-7.0609,-7.112,-7.256,-7.32,-7.3751,-7.4292,-7.5138,-7.548,-7.5354,-7.5288,-7.5187,-7.4824,-7.3794,-7.2996,-7.2851,-7.2091,-7.1217,-7.0802,-7.0005,-6.9472,-6.9121,-6.8851,-6.8537,-6.8203,-6.7778,-6.7404,-6.7195,-6.6769,-6.6528,-6.5597,-6.4882,-6.429,-6.3807,-6.3574,-6.3468,-6.3676,-6.3112,-6.2414,-6.141,-6.0529,-5.9648,-5.8767,-5.7813,-5.7198,-5.65,-5.5728,-5.5662,-5.5411,-5.4975,-5.4285,-5.3924,-5.3487,-5.2789,-5.8114,-5.8195,-5.8254,-5.8254,-5.8415,-5.8406,-5.8654,-5.8991,-5.9099,-5.9422,-6.0136,-6.0555,-6.0887,-6.1052,-6.1716,-6.2106,-6.2301,-6.2134,-6.3015,-6.4191,-6.4177,-6.4214,-6.4386,-6.4504,-6.4879,-6.4966,-6.465,-6.4737,-6.4883,-6.5122,-6.4953,-6.492,-6.5058,-6.5003,-6.4756,-6.4498,-6.4435,-6.4769,-6.4632,-6.4593,-6.4457,-6.4165,-6.4314,-6.4872,-6.4638,-6.4936,-6.5866,-6.6224,-6.614,-6.6072,-6.6659,-6.6824,-6.6185,-6.7169,-6.7794,-6.7868,-6.8383,-6.8903,-6.9569,-6.9905,-7.0239,-7.087,-7.1042,-7.1693,-7.2773,-7.349,-7.4146,-7.4885,-7.5505,-7.5686,-7.5633,-7.5532,-7.543,-7.5094,-7.4296,-7.3763,-7.38,-7.2966,-7.213,-7.1558,-7.0835,-7.0148,-6.9905,-6.9557,-6.9197,-6.8863,-6.8435,-6.8166,-6.7915,-6.7384,-6.6891,-6.6258,-6.5468,-6.4958,-6.4398,-6.4044,-6.3836,-6.4007,-6.4347,-6.3686,-6.2658,-6.1777,-6.0713,-5.9758,-5.9024,-5.8327,-5.7703,-5.6969,-5.6308,-5.6095,-5.5956,-5.5785,-5.5318,-5.4884,-5.4229,-5.8335,-5.8415,-5.8466,-5.8575,-5.8882,-5.8841,-5.9087,-5.9499,-5.9529,-5.9849,-6.0481,-6.1,-6.1379,-6.1714,-6.2545,-6.313,-6.3292,-6.3286,-6.4067,-6.5008,-6.5625,-6.585,-6.5226,-6.5765,-6.5936,-6.5814,-6.5495,-6.5406,-6.5443,-6.5293,-6.5148,-6.5177,-6.5958,-6.6135,-6.5607,-6.57,-6.5902,-6.5651,-6.5237,-6.4807,-6.4464,-6.4275,-6.4384,-6.4792,-6.5152,-6.5461,-6.6174,-6.6535,-6.6743,-6.6864,-6.7528,-6.7489,-6.7175,-6.8533,-6.9119,-6.9233,-6.938,-7.0128,-7.1247,-7.0863,-7.1076,-7.1743,-7.1874,-7.2298,-7.3246,-7.3917,-7.4417,-7.5194,-7.5485,-7.5622,-7.5566,-7.5427,-7.5283,-7.5171,-7.4942,-7.456,-7.3987,-7.3761,-7.3382,-7.2349,-7.1476,-7.0979,-7.0357,-6.9772,-6.9116,-6.8884,-6.8605,-6.8474,-6.8352,-6.8034,-6.781,-6.754,-6.6712,-6.5848,-6.5223,-6.4635,-6.4414,-6.4361,-6.5081,-6.4824,-6.3576,-6.2585,-6.1484,-6.0603,-6.0199,-5.9722,-5.9171,-5.8364,-5.7519,-5.7262,-5.7455,-5.6956,-5.6381,-5.5981,-5.5438,-5.9422,-5.956,-5.962,-5.962,-5.9773,-5.9758,-5.9758,-5.988,-5.988,-6.0272,-6.0897,-6.1103,-6.1645,-6.2247,-6.338,-6.406,-6.4191,-6.4764,-6.564,-6.6434,-6.7141,-6.7438,-6.7131,-6.7044,-6.648,-6.6248,-6.5929,-6.5549,-6.53,-6.553,-6.5248,-6.5141,-6.5851,-6.595,-6.5804,-6.6247,-6.6312,-6.6068,-6.5947,-6.5627,-6.5085,-6.4757,-6.4895,-6.5538,-6.6256,-6.6742,-6.7178,-6.7828,-6.8259,-6.8347,-6.8132,-6.8164,-6.8526,-6.9078,-6.9421,-6.9623,-7.0108,-7.0578,-7.0892,-7.1378,-7.1939,-7.2523,-7.2687,-7.3362,-7.4783,-7.4788,-7.5151,-7.5658,-7.5793,-7.5819,-7.5618,-7.5394,-7.5322,-7.5209,-7.5055,-7.4901,-7.4594,-7.4023,-7.33,-7.2463,-7.1628,-7.0677,-6.9783,-6.9584,-6.9184,-6.8875,-6.8735,-6.8639,-6.8591,-6.8543,-6.8357,-6.8134,-6.7232,-6.6219,-6.5679,-6.5078,-6.4843,-6.4926,-6.5558,-6.6145,-6.4897,-6.3906,-6.3025,-6.2254,-6.163,-6.1043,-6.0309,-5.9942,-5.9134,-5.9061,-5.8877,-5.8603,-5.8179,-5.7523,-5.6983,-6.0516,-6.1081,-6.0623,-6.0502,-6.0411,-6.0183,-6.0031,-6.0197,-6.0197,-6.0586,-6.1401,-6.1823,-6.2229,-6.2541,-6.4122,-6.4801,-6.49,-6.605,-6.6982,-6.7736,-6.8229,-6.8456,-6.8665,-6.8303,-6.7869,-6.7452,-6.7123,-6.6849,-6.6807,-6.6363,-6.6173,-6.5935,-6.6369,-6.6397,-6.6155,-6.6849,-6.6857,-6.6329,-6.6281,-6.6222,-6.5987,-6.5838,-6.6141,-6.6935,-6.7653,-6.7933,-6.8072,-6.8429,-6.8975,-6.9321,-6.9173,-6.8992,-6.937,-7.0002,-7.0279,-7.0169,-7.08,-7.125,-7.1425,-7.1603,-7.216,-7.2963,-7.3021,-7.4001,-7.5098,-7.5563,-7.5809,-7.6172,-7.6532,-7.682,-7.65,-7.6044,-7.5818,-7.5589,-7.5207,-7.4977,-7.4859,-7.4478,-7.4058,-7.3371,-7.2762,-7.1811,-7.0964,-7.0003,-6.9303,-6.9042,-6.865,-6.8554,-6.8591,-6.8506,-6.8431,-6.806,-6.7317,-6.6564,-6.5975,-6.5521,-6.5322,-6.5551,-6.6072,-6.6659,-6.6476,-6.5595,-6.4787,-6.387,-6.2842,-6.1887,-6.119,-6.0933,-6.0603,-6.0052,-5.9832,-6.01,-6.0,-5.9164,-5.8747,-6.1783,-6.2549,-6.1753,-6.1371,-6.1218,-6.0821,-6.0621,-6.0586,-6.0709,-6.1227,-6.1777,-6.2676,-6.2625,-6.3024,-6.4735,-6.5286,-6.5772,-6.702,-6.8402,-6.8257,-6.8929,-6.9066,-6.9129,-6.9159,-6.9164,-6.9013,-6.8392,-6.8399,-6.8315,-6.7832,-6.6998,-6.7179,-6.7396,-6.728,-6.7021,-6.7621,-6.7881,-6.7081,-6.7034,-6.6902,-6.6904,-6.7027,-6.7616,-6.8188,-6.8675,-6.8814,-6.8944,-6.9224,-6.9614,-7.035,-7.0477,-7.0168,-7.0175,-7.0781,-7.1575,-7.084,-7.1517,-7.1751,-7.1719,-7.1858,-7.2186,-7.3041,-7.3192,-7.4056,-7.5369,-7.6066,-7.6273,-7.6646,-7.704,-7.7441,-7.7416,-7.6578,-7.616,-7.5931,-7.5321,-7.5053,-7.4935,-7.4895,-7.4664,-7.4199,-7.3405,-7.2532,-7.1572,-7.0605,-6.9873,-6.9207,-6.8819,-6.8543,-6.858,-6.8506,-6.8431,-6.8171,-6.7503,-6.6627,-6.6001,-6.6149,-6.5874,-6.6066,-6.6586,-6.7026,-6.7467,-6.688,-6.5925,-6.4934,-6.3906,-6.3025,-6.2365,-6.2108,-6.163,-6.0933,-6.0713,-6.0908,-6.0798,-6.0614,-6.0324,-6.2631,-6.3431,-6.3307,-6.2965,-6.2592,-6.2903,-6.2333,-6.1597,-6.2063,-6.2214,-6.2279,-6.2473,-6.2929,-6.3483,-6.4865,-6.6031,-6.6905,-6.838,-6.8975,-6.8605,-6.922,-6.9619,-6.9371,-6.9478,-6.9477,-6.9384,-6.8999,-6.8749,-6.8444,-6.7569,-6.7688,-6.7891,-6.7927,-6.7839,-6.8315,-6.8951,-6.8941,-6.8259,-6.8212,-6.8045,-6.7973,-6.8129,-6.8437,-6.8953,-6.944,-6.9717,-6.9955,-7.0501,-7.1048,-7.1331,-7.1403,-7.134,-7.1264,-7.1633,-7.1737,-7.1724,-7.1795,-7.1936,-7.1877,-7.1848,-7.2639,-7.3639,-7.397,-7.4722,-7.5915,-7.651,-7.6764,-7.7102,-7.7067,-7.6838,-7.5852,-7.6082,-7.5589,-7.5361,-7.5246,-7.5015,-7.4935,-7.4857,-7.4585,-7.4044,-7.3594,-7.3068,-7.1996,-7.1073,-7.0373,-6.9671,-6.9174,-6.89,-6.8814,-6.8654,-6.8506,-6.8171,-6.7763,-6.6802,-6.5903,-6.6395,-6.6574,-6.6602,-6.6953,-6.723,-6.756,-6.7614,-6.6953,-6.5946,-6.5228,-6.4494,-6.3906,-6.3392,-6.3025,-6.2548,-6.2108,-6.1704,-6.1741,-6.1826,-6.125,-6.3692,-6.4883,-6.4464,-6.4015,-6.3735,-6.3641,-6.3298,-6.2768,-6.3017,-6.3107,-6.323,-6.3816,-6.3762,-6.403,-6.5675,-6.6971,-6.7706,-6.8652,-6.9086,-6.8897,-6.9556,-6.9899,-6.9644,-6.9817,-6.9839,-6.9812,-6.9671,-6.9697,-6.9532,-6.9137,-6.8862,-6.8966,-6.8767,-6.8742,-6.8929,-6.9214,-6.9468,-6.9285,-6.9017,-6.897,-6.9131,-6.9472,-6.9772,-7.0073,-7.038,-7.0655,-7.0813,-7.1126,-7.1472,-7.1559,-7.1661,-7.1732,-7.1844,-7.1936,-7.1948,-7.201,-7.1992,-7.1924,-7.1924,-7.1905,-7.2549,-7.3975,-7.4266,-7.5016,-7.6245,-7.6931,-7.7382,-7.8062,-7.8267,-7.8062,-7.8065,-7.7111,-7.6655,-7.6275,-7.5703,-7.5169,-7.4973,-7.4932,-7.4547,-7.4006,-7.3673,-7.3146,-7.2195,-7.1388,-7.0804,-7.0166,-6.9602,-6.9304,-6.9123,-6.8814,-6.8543,-6.8357,-6.8011,-6.758,-6.6716,-6.6911,-6.7274,-6.73,-6.7393,-6.767,-6.7743,-6.778,-6.7596,-6.6993,-6.6296,-6.5668,-6.5081,-6.442,-6.431,-6.4163,-6.3833,-6.3466,-6.3246,-6.2965,-6.239,-6.4639,-6.6268,-6.5458,-6.5008,-6.4851,-6.4476,-6.41,-6.3912,-6.411,-6.4106,-6.417,-6.5108,-6.5055,-6.4868,-6.6159,-6.7611,-6.7811,-6.8562,-6.8947,-6.9296,-6.9632,-6.99,-7.0105,-7.0389,-7.0585,-7.0806,-7.1052,-7.1036,-7.0626,-7.0229,-7.0205,-7.0071,-6.979,-6.9632,-6.9739,-7.0079,-7.0067,-7.0001,-6.9816,-6.9927,-7.0658,-7.1198,-7.1479,-7.1603,-7.1678,-7.1626,-7.1668,-7.155,-7.1581,-7.1645,-7.1718,-7.1833,-7.1905,-7.2062,-7.2203,-7.2212,-7.2186,-7.2232,-7.2439,-7.249,-7.3223,-7.4534,-7.4538,-7.5327,-7.6341,-7.7302,-7.8132,-7.9056,-7.9277,-7.913,-7.898,-7.8597,-7.7912,-7.7418,-7.6465,-7.5627,-7.5393,-7.5274,-7.5081,-7.4547,-7.402,-7.3333,-7.257,-7.2264,-7.1788,-7.0818,-7.0172,-6.9686,-6.9432,-6.8814,-6.8543,-6.8457,-6.8383,-6.8198,-6.7839,-6.7576,-6.7863,-6.8035,-6.8017,-6.8147,-6.8073,-6.8,-6.7762,-6.7561,-6.7193,-6.6512,-6.5999,-6.5485,-6.5191,-6.5081,-6.5264,-6.5044,-6.442,-6.392,-6.3468,-6.5333,-6.6512,-6.6417,-6.6038,-6.5597,-6.5975,-6.5502,-6.4587,-6.5267,-6.5618,-6.5346,-6.5287,-6.5772,-6.6347,-6.6977,-6.7862,-6.8372,-6.8668,-6.8879,-6.9153,-6.9416,-6.9767,-7.0389,-7.087,-7.1336,-7.173,-7.2508,-7.2171,-7.1441,-7.0698,-7.0605,-7.09,-7.0639,-7.0586,-7.0946,-7.1131,-7.1638,-7.1731,-7.1744,-7.2053,-7.2477,-7.2732,-7.2965,-7.2971,-7.2677,-7.2362,-7.2289,-7.1935,-7.163,-7.1704,-7.177,-7.1866,-7.1984,-7.2736,-7.3061,-7.3123,-7.316,-7.3373,-7.3852,-7.3846,-7.4233,-7.5145,-7.5385,-7.5793,-7.6742,-7.773,-7.8423,-7.8371,-7.8971,-7.9169,-7.8979,-7.8328,-7.7949,-7.7798,-7.7379,-7.6652,-7.6262,-7.5994,-7.5763,-7.5077,-7.4547,-7.3893,-7.3204,-7.3048,-7.2736,-7.1726,-7.0863,-7.0415,-6.9975,-6.9458,-6.9026,-6.9088,-6.9125,-6.8976,-6.8911,-6.8646,-6.8652,-6.8769,-6.8752,-6.8752,-6.8697,-6.8623,-6.8165,-6.7945,-6.7633,-6.723,-6.6553,-6.6113,-6.5946,-6.5925,-6.5946,-6.5705,-6.5228,-6.4802,-6.4485,-6.6016,-6.6617,-6.6828,-6.6638,-6.652,-6.691,-6.6791,-6.6281,-6.6161,-6.6204,-6.6316,-6.6322,-6.6709,-6.7202,-6.6998,-6.7066,-6.7603,-6.815,-6.8426,-6.8749,-6.9064,-6.9415,-6.9902,-7.0696,-7.1516,-7.2228,-7.2794,-7.3069,-7.2335,-7.1938,-7.1781,-7.136,-7.132,-7.1255,-7.177,-7.1757,-7.2115,-7.2477,-7.2881,-7.2965,-7.3021,-7.3169,-7.3409,-7.3562,-7.2987,-7.2749,-7.258,-7.2047,-7.1699,-7.1796,-7.2133,-7.2578,-7.2821,-7.3459,-7.4162,-7.4802,-7.479,-7.4681,-7.4476,-7.4528,-7.5218,-7.6015,-7.6342,-7.6633,-7.7548,-7.845,-7.9018,-7.8961,-7.9547,-7.9665,-7.9321,-7.8978,-7.8713,-7.8447,-7.8179,-7.7602,-7.7097,-7.6903,-7.6558,-7.5797,-7.5073,-7.453,-7.391,-7.3452,-7.322,-7.2673,-7.1958,-7.1536,-7.113,-7.0685,-7.0339,-7.0066,-7.0053,-6.9915,-6.9836,-6.9679,-6.9573,-6.9632,-6.9559,-6.9596,-6.954,-6.9357,-6.8972,-6.8642,-6.8403,-6.7835,-6.7122,-6.6919,-6.6843,-6.668,-6.6643,-6.6366,-6.6072,-6.5909,-6.5426,-6.6016,-6.6259,-6.6806,-6.7005,-6.7005,-6.7285,-6.7388,-6.7395,-6.7048,-6.6924,-6.726,-6.746,-6.7608,-6.7388,-6.702,-6.7285,-6.7826,-6.8015,-6.8624,-6.9046,-6.9358,-6.9957,-7.0754,-7.1476,-7.2048,-7.23,-7.3687,-7.3928,-7.3699,-7.3406,-7.2814,-7.2022,-7.2169,-7.2248,-7.2192,-7.2462,-7.2898,-7.3452,-7.4134,-7.4106,-7.3756,-7.3865,-7.4043,-7.3933,-7.3558,-7.3158,-7.2929,-7.2413,-7.2064,-7.2251,-7.2663,-7.3105,-7.3571,-7.4369,-7.503,-7.562,-7.5833,-7.5996,-7.585,-7.5854,-7.6242,-7.6949,-7.7421,-7.7771,-7.8651,-7.9377,-7.9714,-7.9657,-8.0044,-8.0391,-8.0316,-7.9819,-7.9553,-7.9131,-7.8823,-7.8283,-7.7855,-7.7699,-7.7358,-7.6554,-7.5906,-7.5318,-7.4702,-7.3891,-7.3545,-7.3349,-7.3016,-7.2582,-7.2062,-7.1467,-7.1119,-7.0698,-7.061,-7.0522,-7.0443,-7.0397,-7.0438,-7.0496,-7.0478,-7.0459,-7.0459,-7.0293,-6.9944,-6.9577,-6.9137,-6.8532,-6.7854,-6.7762,-6.7687,-6.7393,-6.7173,-6.7136,-6.699,-6.6753,-6.6103,-6.5188,-6.5356,-6.6511,-6.691,-6.6942,-6.7317,-6.7593,-6.7701,-6.7871,-6.8074,-6.8307,-6.8587,-6.8082,-6.7505,-6.7777,-6.8489,-6.9673,-6.9336,-7.0038,-7.0958,-7.1551,-7.1622,-7.2246,-7.2823,-7.3576,-7.4475,-7.5046,-7.4968,-7.4771,-7.447,-7.408,-7.3744,-7.3148,-7.3341,-7.3549,-7.3709,-7.4072,-7.4708,-7.5425,-7.555,-7.5207,-7.5221,-7.5442,-7.5428,-7.5092,-7.4624,-7.3937,-7.3251,-7.2935,-7.3004,-7.3336,-7.3739,-7.4476,-7.5272,-7.5895,-7.6126,-7.6532,-7.6972,-7.7402,-7.7541,-7.8291,-7.8871,-7.9113,-7.9076,-7.9614,-7.955,-7.9838,-8.0308,-8.0428,-8.043,-8.0431,-8.0315,-8.0048,-7.9776,-7.9429,-7.9077,-7.8727,-7.8571,-7.8154,-7.7354,-7.6733,-7.6262,-7.563,-7.4891,-7.3972,-7.3822,-7.326,-7.282,-7.2187,-7.1677,-7.1454,-7.118,-7.1106,-7.1018,-7.0879,-7.0909,-7.1283,-7.1433,-7.1379,-7.1379,-7.1379,-7.114,-7.0973,-7.0349,-6.9835,-6.921,-6.8586,-6.833,-6.8017,-6.7797,-6.7614,-6.7467,-6.7263,-6.6969,-6.6123,-6.5334,-6.5093,-6.5592,-6.5804,-6.6039,-6.6892,-6.7486,-6.7685,-6.7949,-6.8107,-6.844,-6.856,-6.8446,-6.8116,-6.8198,-6.8705,-6.946,-7.0222,-7.0878,-7.129,-7.1715,-7.2131,-7.2823,-7.3432,-7.3863,-7.4655,-7.5334,-7.5898,-7.5566,-7.5325,-7.5482,-7.5084,-7.4051,-7.3676,-7.3961,-7.4845,-7.5449,-7.6085,-7.6562,-7.6652,-7.6161,-7.6258,-7.6293,-7.5861,-7.5362,-7.505,-7.4712,-7.4088,-7.3892,-7.3977,-7.4388,-7.4821,-7.5382,-7.6219,-7.6561,-7.6671,-7.7078,-7.7869,-7.8729,-7.8789,-7.8815,-7.9904,-8.0299,-8.0473,-8.0407,-8.0323,-8.0302,-8.0501,-8.0543,-8.0468,-8.0468,-8.043,-8.0276,-8.0116,-7.9958,-7.9723,-7.9486,-7.9253,-7.8945,-7.8144,-7.7672,-7.7274,-7.6601,-7.5972,-7.5051,-7.4206,-7.3639,-7.3032,-7.2522,-7.2197,-7.2136,-7.2099,-7.2099,-7.2123,-7.2021,-7.214,-7.2257,-7.2206,-7.2226,-7.2097,-7.206,-7.2208,-7.1931,-7.1232,-7.057,-7.0,-6.9431,-6.8752,-6.8274,-6.7924,-6.7741,-6.765,-6.741,-6.7185,-6.6384,-6.5019,-6.4789,-6.445,-6.4725,-6.544,-6.6676,-6.746,-6.7978,-6.8367,-6.8759,-6.9052,-6.9073,-6.9049,-6.8997,-6.9028,-6.9516,-7.0153,-7.0937,-7.1489,-7.2049,-7.2535,-7.274,-7.3177,-7.3718,-7.4292,-7.4583,-7.533,-7.5967,-7.6032,-7.5999,-7.6139,-7.5865,-7.5118,-7.4685,-7.5031,-7.584,-7.6708,-7.7155,-7.7631,-7.7528,-7.6999,-7.7173,-7.7316,-7.6842,-7.661,-7.635,-7.6069,-7.5545,-7.537,-7.5456,-7.5674,-7.5991,-7.656,-7.7083,-7.742,-7.7571,-7.7859,-7.8572,-7.9392,-7.9879,-7.9792,-8.0728,-8.1049,-8.1103,-8.0984,-8.0826,-8.0646,-8.0505,-8.0506,-8.0506,-8.0468,-8.043,-8.0313,-8.0154,-8.0034,-7.9836,-7.9789,-7.9632,-7.9356,-7.8933,-7.8504,-7.7885,-7.7409,-7.6705,-7.5679,-7.4806,-7.4036,-7.3579,-7.3293,-7.3131,-7.3205,-7.3205,-7.3205,-7.3303,-7.3387,-7.3112,-7.2822,-7.2684,-7.2669,-7.2595,-7.2576,-7.2723,-7.265,-7.206,-7.1398,-7.0863,-7.0126,-6.9336,-6.8583,-6.7904,-6.7831,-6.7847,-6.7679,-6.7414,-6.6926,-6.4358,-6.4035,-6.3277,-6.3765,-6.5279,-6.6644,-6.7687,-6.8484,-6.949,-7.022,-7.0463,-7.0395,-7.0243,-7.023,-7.0175,-7.0717,-7.1364,-7.1966,-7.2509,-7.3247,-7.3526,-7.4117,-7.4416,-7.4713,-7.4935,-7.5226,-7.5762,-7.6176,-7.6384,-7.6345,-7.6575,-7.694,-7.6542,-7.6256,-7.659,-7.7589,-7.7855,-7.7533,-7.8435,-7.833,-7.7988,-7.8156,-7.8231,-7.8094,-7.8205,-7.7943,-7.7504,-7.7021,-7.7003,-7.7443,-7.6688,-7.7053,-7.8026,-7.8219,-7.8397,-7.8389,-7.907,-7.9853,-8.0709,-8.1416,-8.1537,-8.1346,-8.1422,-8.1175,-8.0888,-8.0758,-8.0723,-8.0543,-8.0506,-8.0468,-8.0469,-8.0392,-8.0273,-8.0154,-8.0034,-7.995,-7.9903,-7.9898,-7.9627,-7.9387,-7.8851,-7.8315,-7.7961,-7.7363,-7.6365,-7.5395,-7.4533,-7.4137,-7.4064,-7.3989,-7.4014,-7.3952,-7.3952,-7.3678,-7.3665,-7.3615,-7.3438,-7.3252,-7.3091,-7.289,-7.2835,-7.2779,-7.2705,-7.2595,-7.2078,-7.1299,-7.056,-6.9806,-6.8904,-6.8129,-6.8092,-6.807,-6.7885,-6.7677,-6.7343,-6.4295,-6.3963,-6.3015,-6.316,-6.4352,-6.5869,-6.7033,-6.8021,-6.9812,-7.0893,-7.1012,-7.1079,-7.0835,-7.0705,-7.1145,-7.1572,-7.2012,-7.2962,-7.3587,-7.3737,-7.4237,-7.4752,-7.5089,-7.5281,-7.5612,-7.6445,-7.6658,-7.6637,-7.7274,-7.6946,-7.726,-7.7664,-7.8282,-7.8429,-7.7994,-7.8255,-7.8346,-7.8945,-7.9464,-7.9437,-7.8828,-7.9037,-7.9138,-7.8854,-7.9081,-7.9067,-7.8822,-7.8457,-7.8637,-7.904,-7.8168,-7.8457,-7.9125,-7.9239,-7.9257,-7.9287,-7.9694,-8.0033,-8.0764,-8.133,-8.166,-8.1569,-8.1375,-8.1099,-8.086,-8.0685,-8.0614,-8.0581,-8.0621,-8.0583,-8.0468,-8.0353,-8.0233,-8.0154,-8.0072,-7.9946,-7.9898,-7.9898,-7.9778,-7.9652,-7.9267,-7.9018,-7.869,-7.8276,-7.7324,-7.6792,-7.6031,-7.557,-7.5434,-7.4898,-7.4674,-7.4499,-7.435,-7.4013,-7.3815,-7.3765,-7.3615,-7.3357,-7.3162,-7.3054,-7.2945,-7.2835,-7.289,-7.2871,-7.2331,-7.1695,-7.0791,-6.9939,-6.9026,-6.8396,-6.847,-6.8333,-6.8171,-6.8099,-6.7932,-6.412,-6.3828,-6.2783,-6.3033,-6.4095,-6.5481,-6.6966,-6.8626,-7.0625,-7.147,-7.1593,-7.1744,-7.1621,-7.1463,-7.1836,-7.2277,-7.2347,-7.345,-7.4077,-7.4192,-7.487,-7.5529,-7.5868,-7.5885,-7.6253,-7.7054,-7.7088,-7.6958,-7.7056,-7.7275,-7.7909,-7.8815,-8.0009,-8.0092,-7.9773,-7.984,-8.0046,-8.0649,-8.0942,-8.1037,-8.0773,-8.0758,-8.0708,-8.0386,-8.0293,-8.0368,-8.0024,-7.9893,-7.9959,-8.0078,-7.9934,-7.9822,-7.9977,-8.0144,-8.0156,-8.0147,-8.0491,-8.0739,-8.1286,-8.1364,-8.1579,-8.1475,-8.1214,-8.1016,-8.0826,-8.0685,-8.0846,-8.0887,-8.0888,-8.0927,-8.0889,-8.0694,-8.0461,-8.0459,-8.0106,-8.0022,-7.9973,-7.9973,-8.0011,-7.9886,-7.9683,-7.95,-7.9321,-7.902,-7.8408,-7.8027,-7.7692,-7.7192,-7.6606,-7.6007,-7.5458,-7.5158,-7.487,-7.4496,-7.4148,-7.3864,-7.3665,-7.3424,-7.3268,-7.3162,-7.3054,-7.2982,-7.3091,-7.3124,-7.2473,-7.1798,-7.0958,-7.0066,-6.9521,-6.916,-6.8974,-6.8803,-6.8544,-6.8442,-6.8381,-6.3808,-6.3558,-6.2814,-6.3319,-6.4707,-6.5901,-6.8031,-7.0815,-7.16,-7.2038,-7.2262,-7.2228,-7.2176,-7.2567,-7.2671,-7.2873,-7.3296,-7.4169,-7.4612,-7.5067,-7.574,-7.6446,-7.6824,-7.6908,-7.7037,-7.691,-7.6946,-7.7031,-7.659,-7.7536,-7.8586,-7.9781,-8.1035,-8.1444,-8.1595,-8.1829,-8.1849,-8.193,-8.2006,-8.2142,-8.2149,-8.2741,-8.2477,-8.2189,-8.2136,-8.1934,-8.1497,-8.1019,-8.1181,-8.1091,-8.0635,-8.0583,-8.0686,-8.1009,-8.1054,-8.1226,-8.1663,-8.1727,-8.1703,-8.1621,-8.1407,-8.1258,-8.1107,-8.092,-8.0788,-8.0726,-8.0886,-8.1308,-8.1499,-8.1614,-8.1612,-8.1344,-8.1035,-8.0725,-8.0258,-8.0173,-8.013,-8.0125,-8.0201,-8.0081,-7.993,-7.9721,-7.95,-7.9227,-7.8935,-7.8801,-7.8391,-7.8041,-7.7516,-7.6954,-7.6391,-7.5904,-7.5539,-7.4929,-7.4581,-7.4223,-7.3864,-7.3628,-7.3461,-7.332,-7.3199,-7.3145,-7.3252,-7.3082,-7.2629,-7.1937,-7.1193,-7.0757,-7.0459,-7.0134,-6.992,-6.95,-6.9331,-6.8903,-6.8788,-6.4216,-6.3874,-6.4239,-6.4705,-6.5476,-6.7565,-6.9495,-7.0849,-7.1188,-7.1546,-7.2072,-7.221,-7.2331,-7.245,-7.3273,-7.3733,-7.433,-7.4996,-7.551,-7.6035,-7.6443,-7.7002,-7.7311,-7.744,-7.7606,-7.7809,-7.7772,-7.7425,-7.7713,-7.8431,-7.9928,-8.1493,-8.2061,-8.2669,-8.32,-8.3627,-8.3057,-8.2679,-8.2803,-8.3018,-8.3219,-8.3581,-8.3439,-8.3461,-8.3231,-8.2902,-8.2444,-8.1951,-8.2046,-8.1805,-8.17,-8.1724,-8.1819,-8.1907,-8.1911,-8.1836,-8.1956,-8.1948,-8.1756,-8.1579,-8.1451,-8.1291,-8.108,-8.0792,-8.0688,-8.0808,-8.1078,-8.1729,-8.2149,-8.2263,-8.2338,-8.2106,-8.172,-8.1296,-8.0904,-8.0819,-8.0851,-8.1035,-8.1035,-8.0687,-8.0498,-7.9865,-7.9689,-7.9369,-7.9161,-7.9139,-7.9015,-7.8666,-7.8365,-7.7802,-7.7276,-7.6751,-7.6262,-7.5689,-7.5089,-7.4704,-7.4233,-7.3912,-7.3852,-7.3811,-7.3558,-7.3506,-7.3447,-7.3201,-7.2819,-7.2261,-7.1509,-7.1247,-7.1247,-7.1219,-7.1004,-7.0517,-7.0114,-6.9739,-6.9259,-6.4561,-6.3988,-6.4668,-6.5578,-6.6831,-6.8825,-7.018,-7.0882,-7.1007,-7.1491,-7.1985,-7.2159,-7.2382,-7.2983,-7.3652,-7.4252,-7.4837,-7.5785,-7.6336,-7.6619,-7.7041,-7.7813,-7.8089,-7.798,-7.8079,-7.8278,-7.8165,-7.7704,-7.851,-7.9815,-8.1308,-8.2182,-8.2864,-8.3532,-8.3937,-8.4054,-8.3903,-8.3578,-8.3557,-8.3742,-8.3984,-8.4237,-8.4401,-8.4203,-8.3927,-8.3754,-8.3351,-8.296,-8.2995,-8.2961,-8.2959,-8.2756,-8.2788,-8.2771,-8.3047,-8.3048,-8.3102,-8.3014,-8.282,-8.252,-8.2207,-8.1946,-8.1754,-8.1762,-8.1498,-8.1499,-8.2073,-8.2684,-8.2837,-8.2951,-8.2949,-8.2868,-8.2406,-8.1901,-8.1778,-8.1653,-8.1837,-8.2102,-8.1869,-8.1438,-8.0931,-8.0264,-7.9821,-7.9547,-7.9311,-7.9263,-7.9214,-7.9102,-7.8865,-7.8639,-7.8027,-7.7502,-7.6976,-7.6488,-7.5887,-7.5436,-7.5181,-7.5009,-7.5135,-7.4858,-7.4323,-7.3899,-7.3838,-7.3553,-7.3119,-7.263,-7.2202,-7.2089,-7.2014,-7.2108,-7.2079,-7.1554,-7.1179,-7.0916,-7.0278,-6.4799,-6.4158,-6.461,-6.6287,-6.839,-6.9716,-7.0515,-7.0916,-7.1222,-7.1546,-7.1898,-7.2088,-7.2759,-7.3551,-7.417,-7.4825,-7.5636,-7.6586,-7.7188,-7.7202,-7.7861,-7.8539,-7.8682,-7.8782,-7.8198,-7.7991,-7.8122,-7.8508,-7.9276,-8.0548,-8.1904,-8.2518,-8.3335,-8.3892,-8.4073,-8.4317,-8.4242,-8.4201,-8.4506,-8.4889,-8.5245,-8.5622,-8.5851,-8.5244,-8.5113,-8.5041,-8.4505,-8.434,-8.4528,-8.4325,-8.4083,-8.3678,-8.3632,-8.3627,-8.4015,-8.4104,-8.4037,-8.3853,-8.3614,-8.3343,-8.3264,-8.3163,-8.3218,-8.299,-8.2646,-8.2225,-8.2646,-8.3372,-8.3601,-8.3867,-8.3941,-8.3671,-8.3209,-8.2855,-8.2694,-8.257,-8.2595,-8.2747,-8.2671,-8.2248,-8.171,-8.1036,-8.0745,-8.0547,-8.016,-7.9773,-7.9537,-7.9526,-7.9263,-7.9139,-7.8752,-7.814,-7.7614,-7.7126,-7.6788,-7.6402,-7.6316,-7.6256,-7.6194,-7.5621,-7.4861,-7.4524,-7.435,-7.3901,-7.3501,-7.3399,-7.311,-7.3007,-7.3007,-7.3241,-7.3062,-7.2545,-7.217,-7.1862,-7.1299,-6.5023,-6.4659,-6.6204,-6.7565,-6.8738,-7.0122,-7.0825,-7.0916,-7.1367,-7.1634,-7.1879,-7.2654,-7.3326,-7.3774,-7.512,-7.5881,-7.652,-7.7298,-7.8056,-7.806,-7.8377,-7.8603,-7.8711,-7.8445,-7.799,-7.802,-7.8426,-7.9553,-8.0688,-8.1846,-8.2798,-8.3538,-8.402,-8.402,-8.4125,-8.428,-8.4481,-8.4541,-8.512,-8.5464,-8.5705,-8.5926,-8.6005,-8.5775,-8.5732,-8.5545,-8.5053,-8.4821,-8.4738,-8.4572,-8.462,-8.4554,-8.4511,-8.4434,-8.4455,-8.4513,-8.4533,-8.4405,-8.4224,-8.401,-8.3797,-8.3512,-8.3409,-8.3639,-8.3524,-8.3028,-8.3104,-8.3907,-8.4402,-8.4668,-8.4742,-8.4358,-8.405,-8.3853,-8.3574,-8.3487,-8.3361,-8.3399,-8.3443,-8.3019,-8.2482,-8.2127,-8.1792,-8.1443,-8.1094,-8.0735,-8.0451,-8.0177,-7.9612,-7.9338,-7.9165,-7.8715,-7.8102,-7.7689,-7.7502,-7.7303,-7.7216,-7.6991,-7.6879,-7.6193,-7.5346,-7.4908,-7.4496,-7.4244,-7.3954,-7.3804,-7.3766,-7.3888,-7.3963,-7.4085,-7.3934,-7.3296,-7.2883,-7.2583,-7.2057,-6.5542,-6.5264,-6.6982,-6.8194,-6.9051,-7.0306,-7.1007,-7.1244,-7.1634,-7.181,-7.2088,-7.3033,-7.3757,-7.4274,-7.5829,-7.6868,-7.7368,-7.8112,-7.8469,-7.8659,-7.8461,-7.8562,-7.8481,-7.8459,-7.8198,-7.8238,-7.9333,-8.0577,-8.1995,-8.2799,-8.3485,-8.3929,-8.402,-8.42,-8.4215,-8.4381,-8.4616,-8.4732,-8.5486,-8.5927,-8.6088,-8.623,-8.6236,-8.6114,-8.6157,-8.6049,-8.6068,-8.586,-8.5871,-8.5682,-8.5651,-8.5429,-8.5384,-8.5292,-8.5389,-8.5538,-8.5484,-8.5163,-8.4927,-8.4658,-8.4426,-8.4246,-8.4213,-8.4632,-8.4709,-8.4289,-8.4289,-8.4938,-8.4897,-8.5123,-8.5121,-8.4851,-8.4774,-8.4618,-8.4534,-8.441,-8.4366,-8.4366,-8.4404,-8.4164,-8.3633,-8.3013,-8.2657,-8.2112,-8.1809,-8.1649,-8.1405,-8.0972,-8.0358,-7.9838,-7.9639,-7.9327,-7.8827,-7.8515,-7.8403,-7.8253,-7.8102,-7.7839,-7.7539,-7.6965,-7.6316,-7.5351,-7.4638,-7.446,-7.4272,-7.416,-7.416,-7.4197,-7.4197,-7.416,-7.4122,-7.3972,-7.3596,-7.3183,-7.2808,-6.5989,-6.5747,-6.7345,-6.8435,-6.9194,-7.0397,-7.1188,-7.16,-7.1898,-7.2072,-7.2434,-7.3241,-7.4223,-7.5102,-7.6002,-7.7039,-7.7677,-7.7754,-7.8213,-7.8523,-7.8431,-7.8559,-7.8711,-7.8912,-7.8807,-7.9349,-8.0378,-8.1376,-8.2501,-8.3264,-8.3726,-8.3876,-8.4095,-8.4365,-8.443,-8.4794,-8.5214,-8.5721,-8.6333,-8.6889,-8.689,-8.6795,-8.6846,-8.6838,-8.6829,-8.6948,-8.7079,-8.7082,-8.7222,-8.6987,-8.6585,-8.6396,-8.6215,-8.6167,-8.6319,-8.6418,-8.6328,-8.6145,-8.6037,-8.5681,-8.5619,-8.5626,-8.559,-8.5511,-8.5473,-8.5473,-8.5473,-8.5471,-8.5469,-8.5391,-8.5388,-8.5308,-8.527,-8.5308,-8.5224,-8.5262,-8.5262,-8.5224,-8.5138,-8.5013,-8.4556,-8.3986,-8.3557,-8.3019,-8.2747,-8.2595,-8.224,-8.1779,-8.1347,-8.0934,-8.065,-8.0252,-7.9752,-7.9515,-7.9116,-7.9041,-7.8853,-7.8628,-7.829,-7.7802,-7.7201,-7.6187,-7.5276,-7.4648,-7.446,-7.4498,-7.431,-7.4197,-7.4197,-7.4272,-7.416,-7.4122,-7.3897,-7.3559,-7.3521,-6.6001,-6.6142,-6.788,-6.8673,-6.9009,-7.0524,-7.1367,-7.16,-7.1898,-7.2072,-7.2588,-7.348,-7.4168,-7.4391,-7.5541,-7.6384,-7.6994,-7.7274,-7.7496,-7.7678,-7.7947,-7.8243,-7.8698,-7.9201,-7.9717,-8.0614,-8.164,-8.2445,-8.3097,-8.3726,-8.4057,-8.4148,-8.5084,-8.5361,-8.5474,-8.5912,-8.667,-8.7008,-8.7378,-8.7964,-8.8115,-8.8137,-8.8342,-8.8277,-8.8079,-8.8007,-8.7854,-8.7493,-8.7376,-8.7276,-8.7226,-8.7069,-8.7039,-8.6923,-8.6927,-8.6845,-8.68,-8.6478,-8.6246,-8.5954,-8.5813,-8.5779,-8.5667,-8.5588,-8.5588,-8.5664,-8.5702,-8.5779,-8.5739,-8.5624,-8.5546,-8.5429,-8.5391,-8.5502,-8.5495,-8.5655,-8.5696,-8.5578,-8.546,-8.5422,-8.5273,-8.4965,-8.4809,-8.4382,-8.4149,-8.3916,-8.3437,-8.293,-8.224,-8.1952,-8.1698,-8.1188,-8.0677,-7.9854,-7.9266,-7.9691,-7.9579,-7.9341,-7.8966,-7.8376,-7.7738,-7.6965,-7.6139,-7.5399,-7.5061,-7.5061,-7.476,-7.461,-7.4385,-7.4423,-7.4272,-7.4122,-7.3972,-7.3859,-7.3784]}]]